[[{"header":{"parameterUnit":"m.s-1","parameterCategory":1,"la1":31.0,"la2":29.5877,"lo1":-88.7671,"lo2":-86.6584,"dy":0.0162,"dx":0.0185,"nx":115,"ny":88,"refTime":"2023-08-26T06:00:00:Z","depth":0,"parameterNumber":2,"parameterNumberName":"U-component_of_WINDS"},"data":[0.0,0.0,0.0,0.0,0.0,0.0,0.0,0.0,0.0,0.0,0.0,0.0,0.0,0.0,0.0,0.0,0.0,0.0,0.0,0.0,0.0,0.0,0.0,0.0,0.0,0.0,0.0,0.0,0.0,0.0,0.0,0.0,0.0,0.0,0.0,0.0,0.0,0.0,0.0,0.0,0.0,0.0,0.0,0.0,0.0,0.0,0.0,0.0,0.0,0.0,0.0,0.0,0.0,0.0,0.0,0.0,0.0,0.0,0.0,0.0,0.0,0.0,0.0,0.0,0.0,0.0,0.0,0.0,0.0,0.0,0.0,0.0,0.0,0.0,0.0,0.0,0.0,0.0,0.0,0.0,0.0,0.0,0.0,0.0,0.0,0.0,0.0,0.0,0.0,0.0,0.0,0.0,0.0,0.0,0.0,0.0,0.0,0.0,0.0,0.0,0.0,0.0,0.0,0.0,0.0,0.0,0.0,0.0,0.0,0.0,0.0,0.0,0.0,0.0,0.0,0.0,0.0,0.0,0.0,0.0,0.0,0.0,0.0,0.0,0.0,0.0,0.0,0.0,0.0,0.0,0.0,0.0,0.0,0.0,0.0,0.0,0.0,0.0,0.0,0.0,0.0,0.0,0.0,0.0,0.0,0.0,0.0,0.0,0.0,0.0,0.0,0.0,0.0,0.0,0.0,0.0,0.0,0.0,0.0,0.0,0.0,0.0,0.0,0.0,0.0,0.0,0.0,0.0,0.0,0.0,0.0,0.0,0.0,0.0,0.0,0.0,0.0,0.0,0.0,0.0,0.0,0.0,0.0,0.0,0.0,0.0,0.0,0.0,0.0,0.0,0.0,0.0,0.0,0.0,0.0,0.0,0.0,0.0,0.0,0.0,0.0,0.0,0.0,0.0,0.0,0.0,0.0,0.0,0.0,0.0,0.0,0.0,0.0,0.0,0.0,0.0,0.0,0.0,0.0,0.0,0.0,0.0,0.0,0.0,0.0,0.0,0.0,0.0,0.0,0.0,0.0,0.0,0.0,0.0,0.0,0.0,0.0,0.0,0.0,0.0,0.0,0.0,0.0,0.0,0.0,0.0,0.0,0.0,0.0,0.0,0.0,0.0,0.0,0.0,0.0,0.0,0.0,0.0,0.0,0.0,0.0,0.0,0.0,0.0,0.0,0.0,0.0,0.0,0.0,0.0,0.0,0.0,0.0,0.0,0.0,0.0,0.0,0.0,0.0,0.0,0.0,0.0,0.0,0.0,0.0,0.0,0.0,0.0,0.0,0.0,0.0,0.0,0.0,0.0,0.0,0.0,0.0,0.0,0.0,0.0,0.0,0.0,0.0,0.0,0.0,0.0,0.0,0.0,0.0,0.0,0.0,0.0,0.0,0.0,0.0,0.0,0.0,0.0,0.0,0.0,0.0,0.0,0.0,0.0,0.0,0.0,0.0,0.0,0.0,0.0,0.0,0.0,0.0,0.0,0.0,0.0,0.0,0.0,0.0,0.0,0.0,0.0,0.0,0.0,0.0,0.0,0.0,0.0,0.0,0.0,0.0,0.0,0.0,0.0,0.0,0.0,0.0,0.0,0.0,0.0,0.0,0.0,0.0,0.0,0.0,0.0,0.0,0.0,0.0,0.0,0.0,0.0,0.0,0.0,0.0,0.0,0.0,0.0,0.0,0.0,0.0,0.0,0.0,0.0,0.0,0.0,0.0,0.0,0.0,0.0,0.0,0.0,0.0,0.0,0.0,0.0,0.0,0.0,0.0,0.0,0.0,0.0,0.0,0.0,0.0,0.0,0.0,0.0,0.0,0.0,0.0,0.0,0.0,0.0,0.0,0.0,0.0,0.0,0.0,0.0,0.0,0.0,0.0,0.0,0.0,0.0,0.0,0.0,0.0,0.0,0.0,0.0,0.0,0.0,0.0,0.0,0.0,0.0,0.0,0.0,0.0,0.0,0.0,0.0,0.0,0.0,0.0,0.0,0.0,0.0,0.0,0.0,0.0,0.0,0.0,0.0,0.0,0.0,0.0,0.0,0.0,0.0,0.0,0.0,0.0,0.0,0.0,0.0,0.0,0.0,0.0,0.0,0.0,0.0,0.0,0.0,0.0,0.0,0.0,0.0,0.0,0.0,0.0,0.0,0.0,0.0,0.0,0.0,0.0,0.0,0.0,0.0,0.0,0.0,0.0,0.0,0.0,0.0,0.0,0.0,0.0,0.0,0.0,0.0,0.0,0.0,0.0,0.0,0.0,0.0,0.0,0.0,0.0,0.0,0.0,0.0,0.0,0.0,0.0,0.0,0.0,0.0,0.0,0.0,0.0,0.0,0.0,0.0,0.0,0.0,0.0,0.0,0.0,0.0,0.0,0.0,0.0,0.0,0.0,0.0,0.0,0.0,0.0,0.0,0.0,0.0,0.0,0.0,0.0,0.0,0.0,0.0,0.0,0.0,0.0,0.0,0.0,0.0,0.0,0.0,0.0,0.0,0.0,0.0,0.0,0.0,0.0,0.0,0.0,0.0,0.0,0.0,0.0,0.0,0.0,0.0,0.0,0.0,0.0,0.0,0.0,0.0,0.0,0.0,0.0,0.0,0.0,0.0,0.0,0.0,0.0,0.0,0.0,0.0,0.0,0.0,0.0,0.0,0.0,0.0,0.0,0.0,0.0,0.0,0.0,0.0,0.0,0.0,0.0,0.0,0.0,0.0,0.0,0.0,0.0,0.0,0.0,0.0,0.0,0.0,0.0,0.0,0.0,0.0,0.0,0.0,0.0,0.0,0.0,0.0,0.0,0.0,0.0,0.0,0.0,0.0,0.0,0.0,0.0,0.0,0.0,0.0,0.0,0.0,0.0,0.0,0.0,0.0,0.0,0.0,0.0,0.0,0.0,0.0,0.0,0.0,0.0,0.0,0.0,0.0,0.0,0.0,0.0,0.0,0.0,0.0,0.0,0.0,0.0,0.0,0.0,0.0,0.0,0.0,0.0,0.0,0.0,0.0,0.0,0.0,0.0,0.0,0.0,0.0,0.0,0.0,0.0,0.0,0.0,0.0,0.0,0.0,0.0,0.0,0.0,0.0,0.0,0.0,0.0,0.0,0.0,0.0,0.0,0.0,0.0,0.0,0.0,0.0,0.0,0.0,0.0,0.0,0.0,0.0,0.0,0.0,0.0,0.0,0.0,0.0,0.0,0.0,0.0,0.0,0.0,0.0,0.0,0.0,0.0,0.0,0.0,0.0,0.0,0.0,0.0,0.0,0.0,0.0,0.0,0.0,0.0,0.0,0.0,0.0,0.0,0.0,0.0,0.0,0.0,0.0,0.0,0.0,0.0,0.0,0.0,0.0,0.0,0.0,0.0,0.0,0.0,0.0,0.0,0.0,0.0,0.0,0.0,0.0,0.0,0.0,0.0,0.0,0.0,0.0,0.0,0.0,0.0,0.0,0.0,0.0,0.0,0.0,0.0,0.0,0.0,0.0,0.0,0.0,0.0,0.0,0.0,0.0,0.0,0.0,0.0,0.0,0.0,0.0,0.0,0.0,0.0,0.0,0.0,0.0,0.0,0.0,0.0,0.0,0.0,0.0,0.0,0.0,0.0,0.0,0.0,0.0,0.0,0.0,0.0,0.0,0.0,0.0,0.0,0.0,0.0,0.0,0.0,0.0,0.0,0.0,0.0,0.0,0.0,0.0,0.0,0.0,0.0,0.0,0.0,0.0,0.0,0.0,0.0,0.0,0.0,0.0,0.0,0.0,0.0,0.0,0.0,0.0,0.0,0.0,0.0,0.0,0.0,0.0,0.0,0.0,0.0,0.0,0.0,0.0,0.0,0.0,0.0,0.0,0.0,0.0,0.0,0.0,0.0,0.0,0.0,0.0,0.0,0.0,0.0,0.0,0.0,0.0,0.0,0.0,0.0,0.0,0.0,0.0,0.0,0.0,0.0,0.0,0.0,0.0,0.0,0.0,0.0,0.0,0.0,0.0,0.0,0.0,0.0,0.0,0.0,0.0,0.0,0.0,0.0,0.0,0.0,0.0,0.0,0.0,0.0,0.0,0.0,0.0,0.0,0.0,0.0,0.0,0.0,0.0,0.0,0.0,0.0,0.0,0.0,0.0,0.0,0.0,0.0,0.0,0.0,0.0,0.0,0.0,0.0,0.0,0.0,0.0,0.0,0.0,0.0,0.0,0.0,0.0,0.0,0.0,0.0,0.0,0.0,0.0,0.0,0.0,0.0,0.0,0.0,0.0,0.0,0.0,0.0,0.0,0.0,0.0,0.4497,0.0,0.0,0.0,0.0,0.0,0.0,0.0,0.0,0.0,0.0,0.0,0.0,0.0,0.0,0.0,0.0,0.0,0.0,0.0,0.0,0.0,0.0,0.0,0.0,0.0,0.0,0.0,0.0,0.0,0.0,0.0,0.0,0.0,0.0,0.0,0.0,0.0,0.0,0.0,0.0,0.0,0.0,0.0,0.0,0.0,0.0,0.0,0.0,0.0,0.0,0.0,0.0,0.0,0.0,0.0,0.0,0.0,0.0,0.0,0.0,0.0,0.0,0.0,0.0,0.0,0.0,0.0,0.0,0.0,0.0,0.0,0.0,0.0,0.0,0.0,0.0,0.0,0.0,0.0,0.0,0.0,0.0,0.0,0.0,0.0,0.0,0.0,0.0,0.0,0.0,0.0,0.0,0.0,0.0,0.0,0.0,0.0,0.0,0.0,0.0,0.0,0.0,0.0,0.0,0.0,0.0,0.0,0.0,0.0,0.0,0.5473,0.5416,0.5482,0.5433,0.5258,0.0,0.0,0.0,0.0,0.0,0.0,0.0,0.0,0.0,0.0,0.0,0.0,0.0,0.0,0.0,0.0,0.0,0.0,0.0,0.0,0.0,0.0,0.0,0.0,0.0,0.0,0.0,0.0,0.0,0.0,0.0,0.0,0.0,0.0,0.0,0.0,0.0,0.0,0.0,0.0,0.0,0.0,0.0,0.0,0.0,0.0,0.0,0.0,0.0,0.0,0.0,0.0,0.0,0.0,0.0,0.0,0.0,0.0,0.0,0.0,0.0,0.0,0.0,0.0,0.0,0.0,0.0,0.0,0.0,0.0,0.0,0.0,0.0,0.0,0.0,0.0,0.0,0.0,0.0,0.0,0.0,0.0,0.0,0.0,0.0,0.0,0.0,0.0,0.0,0.0,0.0,0.0,0.0,0.0,0.0,0.0,0.0,0.0,0.0,0.0,0.0,0.0,0.0,0.0,0.0,0.0,0.0,0.0,0.0,0.0,0.0,0.0,0.5715,0.5679,0.5588,0.0,0.0,0.0,0.0,0.0,0.0,0.0,0.0,0.0,0.0,0.0,0.0,0.0,0.0,0.0,0.0,0.0,0.0,0.0,0.0,0.0,0.0,0.0,0.0,0.0,0.0,0.0,0.0,0.0,0.0,0.0,0.0,0.0,0.0,0.0,0.0,0.0,0.0,0.0,0.0,0.0,0.0,0.0,0.0,0.0,0.0,0.0,0.0,0.0,0.0,0.0,0.0,0.0,0.0,0.0,0.0,0.0,0.0,0.0,0.0,0.0,0.0,0.0,0.0,0.0,0.0,0.0,0.0,0.0,0.0,0.0,0.0,0.0,0.0,0.0,0.0,0.0,0.0,0.0,0.0,0.0,0.0,0.0,0.0,0.0,0.0,0.0,0.0,0.0,0.0,0.0,0.0,0.0,0.0,0.0,0.0,0.0,0.0,0.0,0.0,0.0,0.0,0.0,0.0,0.0,0.0,0.0,0.0,0.0,0.0,0.57,0.5715,0.5819,0.0,0.5078,0.0,0.0,0.0,0.0,0.0,0.0,0.0,0.0,0.0,0.0,0.0,0.0,0.0,0.0,0.0,0.0,0.0,0.0,0.0,0.0,0.0,0.0,0.0,0.0,0.0,0.0,0.0,0.0,0.0,0.0,0.0,0.0,0.0,0.0,0.0,0.0,0.0,0.0,0.0,0.0,0.0,0.0,0.0,0.0,0.0,0.0,0.0,0.0,0.0,0.0,0.0,0.0,0.0,0.0,0.0,0.0,0.0,0.0,0.0,0.0,0.0,0.0,0.0,0.0,0.0,0.0,0.0,0.0,0.0,0.0,0.0,0.0,0.0,0.0,0.0,0.0,0.0,0.0,0.0,0.0,0.0,0.0,0.0,0.0,0.0,0.0,0.0,0.0,0.0,0.0,0.0,0.0,0.0,0.0,0.0,0.0,0.0,0.0,0.0,0.0,0.0,0.0,0.0,0.0,0.0,0.0,0.0,0.0,0.0,0.0,0.5753,0.616,0.631,0.596,0.0,0.0,0.0,0.0,0.0,0.0,0.0,0.0,0.0,0.0,0.0,0.0,0.0,0.0,0.0,0.0,0.0,0.0,0.0,0.0,0.0,0.0,0.0,0.0,0.0,0.0,0.0,0.0,0.0,0.0,0.0,0.0,0.0,0.0,0.0,0.0,0.0,0.0,0.0,0.0,0.0,0.0,0.0,0.0,0.0,0.0,0.0,0.0,0.0,0.0,0.0,0.0,0.0,0.0,0.0,0.0,0.0,0.0,0.0,0.0,0.0,0.0,0.0,0.0,0.0,0.0,0.0,0.0,0.0,0.0,0.0,0.0,0.0,0.0,0.0,0.0,0.0,0.0,0.0,0.0,0.0,0.0,0.0,0.0,0.0,0.0,0.0,0.0,0.0,0.0,0.0,0.0,0.0,0.0,0.0,0.0,0.0,0.0,0.0,0.0,0.0,0.0,0.0,0.0,0.0,0.0,0.0,0.0,0.0,0.0,0.5835,0.6024,0.6608,0.6648,0.6276,0.5457,0.0,0.0,0.0,0.0,0.0,0.0,0.0,0.0,0.0,0.0,0.0,0.0,0.0,0.0,0.0,0.0,0.0,0.0,0.0,0.0,0.0,0.0,0.0,0.0,0.0,0.0,0.0,0.0,0.0,0.0,0.0,0.0,0.0,0.0,0.0,0.0,0.0,0.0,0.0,0.0,0.0,0.0,0.0,0.0,0.0,0.0,0.0,0.0,0.0,0.0,0.0,0.0,0.0,0.0,0.0,0.0,0.0,0.0,0.0,0.0,0.0,0.0,0.0,0.0,0.0,0.0,0.0,0.0,0.0,0.0,0.0,0.0,0.0,0.0,0.0,0.0,0.0,0.0,0.0,0.0,0.0,0.0,0.0,0.0,0.0,0.0,0.0,0.0,0.0,0.0,0.0,0.0,0.0,0.0,0.0,0.0,0.0,0.0,0.0,0.0,0.0,0.0,0.0,0.0,0.0,0.0,0.0,0.0,0.6015,0.6242,0.6559,0.6957,0.6652,0.6424,0.0,0.0,0.0,0.0,0.0,0.0,0.0,0.0,0.0,0.0,0.0,0.0,0.0,0.0,0.0,0.0,0.0,0.0,0.0,0.0,0.0,0.0,0.0,0.0,0.0,0.0,0.0,0.0,0.0,0.0,0.0,0.0,0.0,0.0,0.0,0.0,0.0,0.0,0.0,0.0,0.0,0.0,0.0,0.0,0.0,0.0,0.0,0.0,0.0,0.0,0.0,0.0,0.0,0.0,0.0,0.0,0.0,0.0,0.0,0.0,0.0,0.0,0.0,0.0,0.0,0.0,0.0,0.0,0.0,0.0,0.0,0.0,0.0,0.0,0.0,0.0,0.0,0.0,0.0,0.0,0.0,0.0,0.0,0.0,0.0,0.0,0.0,0.0,0.0,0.0,0.0,0.0,0.0,0.0,0.0,0.0,0.0,0.0,0.0,0.0,0.0,0.0,0.0,0.0,0.0,0.0,0.0,0.0,0.0,0.6207,0.6619,0.6841,0.6868,0.7087,0.6947,0.0,0.0,0.0,0.0,0.0,0.0,0.0,0.0,0.0,0.0,0.0,0.0,0.0,0.0,0.0,0.0,0.0,0.0,0.0,0.0,0.0,0.0,0.0,0.0,0.0,0.0,0.0,0.0,0.0,0.0,0.0,0.0,0.0,0.0,0.0,0.0,0.0,0.0,0.0,0.0,0.0,0.0,0.0,0.0,0.0,0.0,0.0,0.0,0.0,0.0,0.0,0.0,0.0,0.0,0.0,0.0,0.0,0.0,0.0,0.0,0.0,0.0,0.0,0.0,0.0,0.0,0.0,0.0,0.0,0.0,0.0,0.0,0.0,0.0,0.0,0.0,0.0,0.0,0.0,0.0,0.0,0.0,0.0,0.0,0.0,0.0,0.0,0.0,0.0,0.0,0.0,0.0,0.0,0.0,0.0,0.0,0.0,0.0,0.0,0.0,0.0,0.0,0.0,0.0,0.0,0.0,0.0,0.0,0.0,0.6163,0.0,0.6674,0.677,0.7027,0.6924,0.0,0.0,0.0,0.0,0.0,0.0,0.0,0.0,0.0,0.0,0.0,0.0,0.0,0.0,0.0,0.0,0.0,0.0,0.0,0.0,0.0,0.0,0.0,0.0,0.0,0.0,0.0,0.0,0.0,0.0,0.0,0.0,0.0,0.0,0.0,0.0,0.0,0.0,0.0,0.0,0.0,0.0,0.0,0.0,0.0,0.0,0.0,0.0,0.0,0.0,0.0,0.0,0.0,0.0,0.0,0.0,0.0,0.0,0.0,0.0,0.0,0.0,0.0,0.0,0.0,0.0,0.0,0.0,0.0,0.0,0.0,0.0,0.0,0.0,0.0,0.0,0.0,0.0,0.0,0.0,0.0,0.0,0.0,0.0,0.0,0.0,0.0,0.0,0.0,0.0,0.0,0.0,0.0,0.0,0.0,0.0,0.0,0.0,0.0,0.0,0.0,0.0,0.0,0.0,0.0,0.0,0.0,0.0,0.6137,0.5876,0.5779,0.6024,0.6659,0.6479,0.6338,0.0,0.0,0.0,0.0,0.0,0.0,0.0,0.0,0.0,0.0,0.0,0.0,0.0,0.0,0.0,0.0,0.0,0.0,0.0,0.0,0.0,0.0,0.0,0.0,0.0,0.0,0.0,0.0,0.0,0.0,0.0,0.0,0.0,0.0,0.0,0.0,0.0,0.0,0.0,0.0,0.0,0.0,0.0,0.0,0.0,0.0,0.0,0.0,0.0,0.0,0.0,0.0,0.0,0.0,0.0,0.0,0.0,0.0,0.0,0.0,0.0,0.0,0.0,0.0,0.0,0.0,0.0,0.0,0.0,0.0,0.0,0.0,0.0,0.0,0.0,0.0,0.0,0.0,0.0,0.0,0.0,0.0,0.0,0.0,0.0,0.0,0.0,0.0,0.0,0.0,0.0,0.0,0.0,0.0,0.0,0.0,0.0,0.0,0.0,0.0,0.0,0.0,0.0,0.0,0.0,0.0,0.0,0.0,0.0,0.5268,0.5333,0.5675,0.6337,0.6557,0.665,0.0,0.0,0.0,0.0,0.0,0.0,0.0,0.0,0.0,0.0,0.0,0.0,0.0,0.0,0.0,0.0,0.0,0.0,0.0,0.0,0.0,0.0,0.0,0.0,0.0,0.0,0.0,0.0,0.0,0.0,0.0,0.0,0.0,0.0,0.0,0.0,0.0,0.0,0.0,0.0,0.0,0.0,0.0,0.0,0.0,0.0,0.0,0.0,0.0,0.0,0.0,0.0,0.0,0.0,0.0,0.0,0.0,0.0,0.0,0.0,0.0,0.0,0.0,0.0,0.0,0.0,0.0,0.0,0.0,0.0,0.0,0.0,0.0,0.0,0.0,0.0,0.0,0.0,0.0,0.0,0.0,0.0,0.0,0.0,0.0,0.0,0.0,0.0,0.0,0.0,0.0,0.0,0.0,0.0,0.0,0.0,0.0,0.0,0.0,0.0,0.0,0.0,0.0,0.0,0.0,0.0,0.0,0.0,0.0,0.4104,0.4321,0.468,0.5144,0.5694,0.5929,0.5832,0.0,0.0,0.0,0.0,0.0,0.0,0.0,0.0,0.0,0.0,0.0,0.0,0.0,0.0,0.0,0.0,0.0,0.0,0.0,0.0,0.0,0.0,0.0,0.0,0.0,0.0,0.0,0.0,0.0,0.0,0.0,0.0,0.0,0.0,0.0,0.0,0.0,0.0,0.0,0.0,0.0,0.0,0.0,0.0,0.0,0.0,0.0,0.0,0.0,0.0,0.0,0.0,0.0,0.0,0.0,0.0,0.0,0.0,0.0,0.0,0.0,0.0,0.0,0.0,0.0,0.0,0.0,0.0,0.0,0.0,0.0,0.0,0.0,0.0,0.0,0.0,0.0,0.0,0.0,0.0,0.0,0.0,0.0,0.0,0.0,0.0,0.0,0.0,0.0,0.0,0.0,0.0,0.0,0.0,0.0,0.0,0.0,0.0,0.0,0.0,0.0,0.0,0.0,0.0,0.0,0.0,0.0,0.0,0.2591,0.296,0.3226,0.34,0.4132,0.4462,0.0,0.0,0.0,0.0,0.0,0.0,0.0,0.0,0.0,0.0,0.0,0.0,0.0,0.0,0.0,0.0,0.0,0.0,0.0,0.0,0.0,0.0,0.0,0.0,0.0,0.0,0.0,0.0,0.0,0.0,0.0,0.0,0.0,0.0,0.0,0.0,0.0,0.0,0.0,0.0,0.0,0.0,0.0,0.0,0.0,0.0,0.0,0.0,0.0,0.0,0.0,0.0,0.0,0.0,0.0,0.0,0.0,0.0,0.0,0.0,0.0,0.0,0.0,0.0,0.0,0.0,0.0,0.0,0.0,0.0,0.0,0.0,0.0,0.0,0.0,0.0,0.0,0.0,0.0,0.0,0.0,0.0,0.0,0.0,0.0,0.0,0.0,0.0,0.0,0.0,0.0,0.0,0.0,0.0,0.0,0.0,0.0,0.0,0.0,0.0,0.0,0.0,0.0,0.0,0.0,0.0,0.0,0.0,0.0,0.2384,0.2377,0.2558,0.2933,0.3439,0.3955,0.0,0.0,0.0,0.0,0.0,0.0,0.0,0.0,0.0,0.0,0.0,0.0,0.0,0.0,0.0,0.0,0.0,0.0,0.0,0.0,0.0,0.0,0.0,0.0,0.0,0.0,0.0,0.0,0.0,0.0,0.0,0.0,0.0,0.0,0.0,0.0,0.0,0.0,0.0,0.0,0.0,0.0,0.0,0.0,0.0,0.0,0.0,0.0,0.0,0.0,0.0,0.0,0.0,0.0,0.0,0.0,0.0,0.0,0.0,0.0,0.0,0.0,0.0,0.0,0.0,0.0,0.0,0.0,0.0,0.0,0.0,0.0,0.0,0.0,0.0,0.0,0.0,0.0,0.0,0.0,0.0,0.0,0.0,0.0,0.0,0.0,0.0,0.0,0.0,0.0,0.0,0.0,0.0,0.0,0.0,0.0,0.0,0.0,0.0,0.0,0.0,0.0,0.0,0.0,0.0,0.0,0.0,0.0,0.2025,0.186,0.1767,0.1913,0.2312,0.2986,0.3594,0.0,0.0,0.0,0.0,0.0,0.0,0.0,0.0,0.0,0.0,0.0,0.0,0.0,0.0,0.0,0.0,0.0,0.0,0.0,0.0,0.0,0.0,0.0,0.0,0.0,0.0,0.0,0.0,0.0,0.0,0.0,0.0,0.0,0.0,0.0,0.0,0.0,0.0,0.0,0.0,0.0,0.0,0.0,0.0,0.0,0.0,0.0,0.0,0.0,0.0,0.0,0.0,0.0,0.0,0.0,0.0,0.0,0.0,0.0,0.0,0.0,0.0,0.0,0.0,0.0,0.0,0.0,0.0,0.0,0.0,0.0,0.0,0.0,0.0,0.0,0.0,0.0,0.0,0.0,0.0,0.0,0.0,0.0,0.0,0.0,0.0,0.0,0.0,0.0,0.0,0.0,0.0,0.0,0.0,0.0,0.0,0.0,0.0,0.0,0.0,0.0,0.0,0.0,0.0,0.0,0.0,0.0,0.0,0.1572,0.1233,0.1172,0.135,0.1669,0.2611,0.3246,0.0,0.0,0.0,0.0,0.0,0.0,0.0,0.0,0.0,0.0,0.0,0.0,0.0,0.0,0.0,0.0,0.0,0.0,0.0,0.0,0.0,0.0,0.0,0.0,0.0,0.0,0.0,0.0,0.0,0.0,0.0,0.0,0.0,0.0,0.0,0.0,0.0,0.0,0.0,0.0,0.0,0.0,0.0,0.0,0.0,0.0,0.0,0.0,0.0,0.0,0.0,0.0,0.0,0.0,0.0,0.0,0.0,0.0,0.0,0.0,0.0,0.0,0.0,0.0,0.0,0.0,0.0,0.0,0.0,0.0,0.0,0.0,0.0,0.0,0.0,0.0,0.0,0.0,0.0,0.0,0.0,0.0,0.0,0.0,0.0,0.0,0.0,0.0,0.0,0.0,0.0,0.0,0.0,0.0,0.0,0.0,0.0,0.0,0.0,0.0,0.0,0.0,0.0,0.0,0.0,0.0,0.0,0.0,0.1613,0.1299,0.1071,0.1109,0.138,0.2102,0.2723,0.0,0.0,0.0,0.0,0.0,0.0,0.0,0.0,0.0,0.0,0.0,0.0,0.0,0.0,0.0,0.0,0.0,0.0,0.0,0.0,0.0,0.0,0.0,0.0,0.0,0.0,0.0,0.0,0.0,0.0,0.0,0.0,0.0,0.0,0.0,0.0,0.0,0.0,0.0,0.0,0.0,0.0,0.0,0.0,0.0,0.0,0.0,0.0,-1.0544,0.0,0.0,0.0,0.0,0.0,0.0,0.0,0.0,0.0,0.0,0.0,0.0,0.0,0.0,0.0,0.0,0.0,0.0,0.0,0.0,0.0,0.0,0.0,0.0,0.0,0.0,0.0,0.0,0.0,0.0,0.0,0.0,0.0,0.0,0.0,0.0,0.0,0.0,0.0,0.0,0.0,0.0,0.0,0.0,0.0,0.0,0.0,0.0,0.0,0.0,0.0,0.0,0.0,0.0,0.0,0.0,0.0,0.0,0.0,0.1415,0.101,0.0774,0.0738,0.0937,0.1465,0.2042,0.0,0.0,0.0,0.0,0.0,0.0,0.0,0.0,0.0,0.0,0.0,0.0,0.0,0.0,0.0,0.0,0.0,0.0,0.0,0.0,0.0,0.0,0.0,0.0,0.0,0.0,0.0,0.0,0.0,0.0,0.0,0.0,0.0,0.0,0.0,0.0,0.0,0.0,0.0,0.0,0.0,0.0,0.0,0.0,0.0,0.0,0.0,0.0,0.0,0.0,0.0,0.0,0.0,0.0,0.0,0.0,0.0,0.0,0.0,0.0,0.0,0.0,0.0,0.0,0.0,0.0,0.0,0.0,0.0,0.0,0.0,0.0,0.0,0.0,0.0,0.0,0.0,0.0,0.0,0.0,0.0,0.0,0.0,0.0,0.0,0.0,0.0,0.0,0.0,0.0,0.0,0.0,0.0,0.0,0.0,0.0,0.0,0.0,0.0,0.0,0.0,0.0,0.0,0.0,0.0,0.0,0.0,0.1514,0.1145,0.0672,0.0367,0.0265,0.0398,0.0763,0.1359,0.2145,0.0,0.0,0.0,0.0,0.0,0.0,0.0,0.0,0.0,0.0,0.0,0.0,0.0,0.0,0.0,0.0,0.0,0.0,0.0,0.0,0.0,0.0,0.0,0.0,0.0,0.0,0.0,0.0,0.0,0.0,0.0,0.0,0.0,0.0,0.0,0.0,0.0,0.0,-0.3201,-0.4987,0.0,0.0,0.0,0.0,0.0,0.0,0.0,0.0,-0.9795,0.0,0.0,0.0,0.0,0.0,0.0,0.0,0.0,0.0,0.0,0.0,0.0,0.0,0.0,0.0,0.0,0.0,0.0,0.0,0.0,0.0,0.0,0.0,0.0,0.0,0.0,0.0,0.0,0.0,0.0,0.0,0.0,0.0,0.0,0.0,0.0,0.0,0.0,0.0,0.0,0.0,0.0,0.0,0.0,0.0,0.0,0.0,0.0,0.0,0.0,0.0,0.0,0.0,0.0,0.0,0.0,0.1742,0.1345,0.0908,0.037,0.0032,-0.0094,-0.0062,0.025,0.0687,0.122,0.0,0.0,0.0,0.0,0.0,0.0,0.0,0.0,0.0,0.0,0.0,0.0,0.0,0.0,0.0,0.0,0.0,0.0,0.0,0.0,0.0,0.0,0.0,0.0,0.0,0.0,0.0,0.0,0.0,0.0,0.0,0.0,0.0,0.0,0.0,0.0,0.0,0.0,0.0,-0.4883,-0.6052,0.0,0.0,0.0,0.0,0.0,0.0,0.0,0.0,-0.9215,0.0,0.0,0.0,0.0,0.0,0.0,0.0,0.0,0.0,0.0,0.0,0.0,0.0,0.0,0.0,0.0,0.0,0.0,0.0,0.0,0.0,0.0,0.0,0.0,0.0,0.0,0.0,0.0,0.0,0.0,0.0,0.0,0.0,0.0,0.0,0.0,0.0,0.0,0.0,0.0,0.0,0.0,0.0,0.0,0.0,0.0,0.0,0.0,0.0,0.0,0.0,0.0,0.0,0.0,0.0,0.1609,0.1276,0.0841,0.0302,-0.0095,-0.0369,-0.0431,-0.0209,0.0238,0.0,0.0,0.0,0.0,0.0,0.0,0.0,0.0,0.0,0.0,0.0,0.0,0.0,0.0,0.0,0.0,0.0,0.0,0.0,0.0,0.0,0.0,0.0,0.0,0.0,0.0,0.0,0.0,0.0,0.0,0.0,0.0,0.0,0.0,0.0,0.0,0.0,0.0,0.0,0.0,-0.4202,-0.5075,-0.6277,0.0,0.0,0.0,0.0,0.0,0.0,-0.9847,-0.9227,0.0,0.0,0.0,0.0,0.0,0.0,0.0,0.0,0.0,0.0,0.0,0.0,0.0,0.0,0.0,0.0,0.0,0.0,0.0,0.0,0.0,0.0,0.0,0.0,0.0,0.0,0.0,0.0,0.0,0.0,0.0,0.0,0.0,0.0,0.0,0.0,0.0,0.0,0.0,0.0,0.0,0.0,0.0,0.0,0.0,0.0,0.0,0.0,0.0,0.0,0.0,0.0,0.0,0.0,0.0,0.1542,0.1244,0.0841,0.0335,-0.0126,-0.0454,-0.0635,-0.0491,-0.0086,0.0,0.0,0.0,0.0,0.0,0.0,0.0,0.0,0.0,0.0,0.0,0.0,0.0,0.0,0.0,0.0,0.0,0.0,0.0,0.0,0.0,0.0,0.0,0.0,0.0,0.0,0.0,0.0,0.0,0.0,0.0,0.0,0.0,0.0,0.0,0.0,0.0,0.0,0.0,0.0,0.0,-0.397,-0.4992,-0.5975,0.0,0.0,0.0,0.0,-0.9871,-0.966,0.0,0.0,0.0,0.0,0.0,0.0,0.0,0.0,0.0,0.0,0.0,0.0,0.0,0.0,0.0,0.0,0.0,0.0,0.0,0.0,0.0,0.0,0.0,0.0,0.0,0.0,0.0,0.0,0.0,0.0,0.0,0.0,0.0,0.0,0.0,0.0,0.0,0.0,0.0,0.0,0.0,0.0,0.0,0.0,0.0,0.0,0.0,0.0,0.0,0.0,0.0,0.0,0.0,0.0,0.0,0.0,0.1583,0.1279,0.0875,0.0502,0.003,-0.0285,-0.0427,-0.0452,-0.0197,0.0,0.0,0.0,0.0,0.0,0.0,0.0,0.0,0.0,0.0,0.0,0.0,0.0,0.0,0.0,0.0,0.0,0.0,0.0,0.0,0.0,0.0,0.0,0.0,0.0,0.0,0.0,0.0,0.0,0.0,0.0,0.0,0.0,0.0,0.0,0.0,0.0,0.0,0.0,0.0,0.0,-0.297,-0.4098,-0.5012,-0.607,0.0,0.0,-0.9044,-0.9396,-0.9307,0.0,0.0,0.0,0.0,0.0,0.0,0.0,0.0,0.0,0.0,0.0,0.0,0.0,0.0,0.0,0.0,0.0,0.0,0.0,0.0,0.0,0.0,0.0,0.0,0.0,0.0,0.0,0.0,0.0,0.0,0.0,0.0,0.0,0.0,0.0,0.0,0.0,0.0,0.0,0.0,0.0,0.0,0.0,0.0,0.0,0.0,0.0,0.0,0.0,0.0,0.0,0.0,0.0,0.0,0.0,0.1698,0.1417,0.0977,0.0673,0.0503,0.0124,-0.0178,-0.0385,-0.0229,-0.0,0.0,0.0,0.0,0.0,0.0,0.0,0.0,0.0,0.0,0.0,0.0,0.0,0.0,0.0,0.0,0.0,0.0,0.0,0.0,0.0,0.0,0.0,0.0,0.0,0.0,0.0,0.0,0.0,0.0,0.0,0.0,0.0,0.0,0.0,0.0,0.0,0.0,0.0,0.0,0.0,0.0,0.0,-0.2716,-0.388,0.0,0.0,0.0,-0.8685,-0.9169,0.0,0.0,0.0,0.0,0.0,0.0,0.0,0.0,0.0,0.0,0.0,0.0,0.0,0.0,0.0,0.0,0.0,0.0,0.0,0.0,0.0,0.0,0.0,0.0,0.0,0.0,0.0,0.0,0.0,0.0,0.0,0.0,0.0,0.0,0.0,0.0,0.0,0.0,0.0,0.0,0.0,0.0,0.0,0.0,0.0,0.0,0.0,0.0,0.0,0.0,0.0,0.0,0.0,0.0,0.0,0.0,0.0,0.1238,0.0745,0.0437,0.0369,0.0127,-0.0092,-0.0215,0.0029,0.0,0.0,0.0,0.0,0.0,0.0,0.0,0.0,0.0,0.0,0.0,0.0,0.0,0.0,0.0,0.0,0.0,0.0,0.0,0.0,0.0,0.0,0.0,0.0,0.0,0.0,0.0,0.231,0.0,0.0,0.0,0.0,0.0,0.0,0.0,0.0,0.0,0.0,0.0,0.0,0.0,0.0,-0.1129,-0.1576,-0.2878,-0.4302,0.0,0.0,-0.8395,-0.9056,-0.9185,-0.9083,0.0,0.0,0.0,0.0,0.0,0.0,0.0,0.0,0.0,0.0,0.0,0.0,0.0,0.0,0.0,0.0,0.0,0.0,0.0,0.0,0.0,0.0,0.0,0.0,0.0,0.0,0.0,0.0,0.0,0.0,0.0,0.0,0.0,0.0,0.0,0.0,0.0,0.0,0.0,0.0,0.0,0.0,0.0,0.0,0.0,0.0,0.0,0.0,0.0,0.0,0.0,0.0,0.0,0.0,0.0,0.1087,0.0587,0.0236,0.0067,0.0032,0.0092,0.0246,0.0337,0.0569,0.0,0.0,0.0,0.0,0.0,0.0,0.0,0.0,0.0,0.0,0.0,0.0,0.0,0.0,0.0,0.0,0.0,0.0,0.0,0.0,0.0,0.0,0.0,0.0,0.0,0.0,0.0,0.0,0.0,0.0,0.0,0.0,0.0,0.0,0.0,0.0,0.0,0.0,0.0,0.0,0.0,-0.0159,-0.1115,-0.2106,-0.3545,0.0,0.0,-0.81,-0.9224,-0.9441,-0.9403,-0.9182,0.0,0.0,0.0,0.0,0.0,0.0,0.0,0.0,0.0,0.0,0.0,0.0,0.0,0.0,0.0,0.0,0.0,0.0,0.0,0.0,0.0,0.0,0.0,0.0,0.0,0.0,0.0,0.0,0.0,0.0,0.0,0.0,0.0,0.0,0.0,0.0,0.0,0.0,0.0,0.0,0.0,0.0,0.0,0.0,0.0,0.0,0.0,0.0,0.0,0.0,0.0,0.0,0.0,0.1124,0.0914,0.05,0.0209,-0.0,-0.0,0.013,0.0423,0.064,0.102,0.0,0.0,0.0,0.0,0.0,0.0,0.0,0.0,0.0,0.0,0.0,0.0,0.0,0.0,0.0,0.0,0.0,0.0,0.0,0.0,0.0,0.0,0.0,0.0,0.0,0.0,0.0,0.0,-0.0644,-0.1426,-0.1632,0.0,0.0,0.0,0.0,0.0,0.0,0.0,0.0,0.0,0.0,0.0416,-0.065,-0.2129,0.0,0.0,-0.6641,-0.7903,-0.9015,-0.9362,-0.9478,-0.943,-0.9037,0.0,0.0,0.0,0.0,0.0,0.0,0.0,0.0,0.0,0.0,0.0,0.0,0.0,0.0,0.0,0.0,0.0,0.0,0.0,0.0,0.0,0.0,0.0,0.0,0.0,0.0,0.0,0.0,0.0,0.0,0.0,0.0,0.0,0.0,0.0,0.0,0.0,0.0,0.0,0.0,0.0,0.0,0.0,0.0,0.0,0.0,0.0,0.0,0.0,0.0,0.0,0.0,0.1019,0.0763,0.0451,0.0218,-0.0,0.0103,0.0241,0.0483,0.0894,0.1316,0.0,0.0,0.0,0.0,0.0,0.0,0.0,0.0,0.0,0.0,0.0,0.0,0.0,0.0,0.0,0.0,0.0,0.0,0.0,0.0,0.0,0.0,0.0,0.0,0.0,0.0,0.0,0.0,-0.081,-0.1547,-0.1552,0.0,0.0,0.0,0.0,0.0,0.0,0.0,0.0,0.0,0.0,0.0607,-0.0267,-0.2009,-0.3717,-0.5084,-0.6532,-0.7845,-0.9042,-0.9656,-1.0012,-1.0122,0.0,0.0,0.0,0.0,0.0,0.0,0.0,0.0,0.0,0.0,0.0,0.0,0.0,0.0,0.0,0.0,0.0,0.0,0.0,0.0,0.0,0.0,0.0,0.0,0.0,0.0,0.0,0.0,0.0,0.0,0.2679,0.0,0.0,0.0,0.0,0.0,0.0,0.0,0.0,0.0,0.0,0.0,0.0,0.0,0.0,0.0,0.0,0.0,0.0,0.0,0.0,0.0,0.0,0.0927,0.0713,0.0441,0.0192,0.0036,0.0327,0.0473,0.0437,0.0985,0.1378,0.1632,0.0,0.0,0.0,0.0,0.0,0.0,0.0,0.0,0.0,0.0,0.0,0.0,0.0,0.0,0.0,0.0,0.0,0.0,0.0,0.0,0.0,0.0,0.0,0.0,0.0,0.0,0.0703,-0.0404,-0.1142,0.0,0.0,0.0,0.0,0.0,0.0,0.0,0.0,0.0,0.0,0.0914,0.0313,-0.0179,-0.1646,-0.3465,-0.5243,-0.6644,-0.7987,-0.9385,-1.0363,-1.1094,0.0,0.0,0.0,0.0,0.0,0.0,0.0,0.0,0.0,0.0,0.0,0.0,0.0,0.0,0.0,0.0,0.0,0.0,0.0,0.0,0.0,0.0,0.0,0.0,0.0,0.0,0.0,0.3822,0.3435,0.0,0.0,0.0,0.0,0.0,0.0,0.0,0.0,0.0,0.0,0.0,0.3889,0.3889,0.0,0.0,0.0,0.0,0.0,0.0,0.0,0.0,0.0,0.0,0.0,0.0,0.1069,0.0718,0.0539,0.0442,0.0461,0.0575,0.069,0.0843,0.1304,0.1653,0.1884,0.0,0.0,0.0,0.0,0.0,0.0,0.0,0.0,0.0,0.0,0.0,0.0,0.0,0.0,0.0,0.0,0.0,0.0,0.0,0.0,0.0,0.0,0.0,0.0,0.0,-0.0099,0.0,0.0,0.0,0.0,0.0,0.0,0.0,0.0,0.0,0.0,0.0,0.0613,0.0393,-0.0221,-0.0844,-0.1508,-0.2988,-0.4554,0.0,0.0,0.0,0.0,0.0,0.0,0.0,0.0,0.0,0.0,0.0,0.0,0.0,0.0,-1.1919,-1.0459,-0.9687,-0.9078,-0.8477,0.0,0.0,0.0,0.0,0.0,0.0,0.0,0.0,0.0,0.0,0.0,0.0,0.0,0.0,0.3955,0.0,0.3417,0.0,0.0,0.0,0.0,0.0,0.0,0.0,0.0,0.3735,0.3941,0.4187,0.4187,0.419,0.0,0.4021,0.3767,0.0,0.0,0.0,0.0,0.0,0.0,0.0,0.0,0.1327,0.0947,0.0798,0.0819,0.0949,0.1014,0.1127,0.1289,0.1554,0.1743,0.1973,0.2229,0.2269,0.0,0.0,0.0,0.0,0.0,0.0,0.0,0.0,0.0,0.0,0.0,0.0,0.0,0.0,0.0,0.0,0.0,0.0,0.0,0.0,0.0,0.0,0.0,-0.0693,0.0,0.0,0.0,0.0,0.0,0.0,0.0,0.0,0.0,0.0132,-0.0045,-0.0455,-0.0999,-0.1652,-0.2517,-0.3709,0.0,0.0,0.0,0.0,0.0,0.0,0.0,-1.3252,-1.3545,-1.4277,-1.487,-1.4939,-1.5048,-1.5309,-1.5875,0.0,0.0,-1.2952,-1.2014,-1.138,-1.0591,-1.0366,-1.0486,-1.1263,-1.1943,-1.2721,0.0,0.0,0.0,0.0,0.0,0.0,0.0,0.0,0.43,0.423,0.0,0.3679,0.0,0.0,0.0,0.0,0.0,0.303,0.0,0.0,0.4089,0.4307,0.447,0.4522,0.4467,0.4477,0.4304,0.4076,0.3901,0.3574,0.0,0.0,0.0,0.0,0.0,0.0,0.1718,0.1357,0.1262,0.1264,0.144,0.1555,0.165,0.1738,0.1628,0.1708,0.1984,0.1844,0.1767,0.1769,0.1786,0.0,0.0,0.0,0.0,0.0,0.0,0.0,0.0,0.0,0.0,0.0,0.0,0.0,0.0,0.0,0.0,0.0,0.0,0.0,0.0,-0.1658,0.0,0.0,0.0,0.0,0.0,0.0,0.0,0.0,0.0,0.0,-0.1002,-0.1282,-0.1849,-0.2785,0.0,0.0,0.0,0.0,-0.7445,-0.8529,-0.977,-1.0956,-1.1947,-1.358,-1.4815,-1.5133,0.0,0.0,-1.7094,-1.7313,-1.7518,-1.7626,-1.7867,-1.7501,-1.5261,-1.4225,-1.3434,-1.2602,-1.2445,-1.262,-1.2908,-1.3367,-1.392,0.4794,0.0,0.0,0.0,0.0,0.3711,0.3849,0.4065,0.4281,0.4302,0.4186,0.3939,0.0,0.0,0.0,0.0,0.0,0.0,0.4008,0.442,0.4442,0.4512,0.4623,0.4514,0.4463,0.4467,0.4304,0.419,0.4135,0.3913,0.3691,0.3416,0.0,0.0,0.0,0.0,0.2278,0.2017,0.1892,0.1922,0.2048,0.2075,0.211,0.2062,0.1794,0.164,0.164,0.1574,0.1514,0.1516,0.146,0.0,0.0,0.0,0.0,0.0,0.0,0.0,0.0,0.0,0.0,0.0,0.0,0.0,0.0,0.0,0.0,0.0,0.0,0.0,-0.2912,-0.2762,-0.2103,0.0,0.0,0.0,0.0,0.0,0.0,0.0,0.0,0.0,-0.3329,-0.3296,-0.3623,0.0,0.0,-0.6963,-0.8259,-0.9248,-1.0092,-1.0604,-1.1735,0.0,-1.3636,-1.4922,-1.6072,-1.6705,-1.739,-1.7868,-1.7706,-1.7881,-1.8108,-1.8201,-1.8425,-1.8198,-1.7228,-1.6245,-1.5238,-1.4133,-1.3822,-1.39,-1.4154,-1.4406,-1.4655,0.5149,0.4624,0.3689,0.3352,0.3259,0.3356,0.3628,0.4151,0.4392,0.4611,0.4677,0.4431,0.4215,0.4017,0.3738,0.0,0.0,0.0,0.4363,0.4729,0.47,0.472,0.4775,0.4687,0.4643,0.4643,0.4535,0.4448,0.4329,0.4213,0.4017,0.3749,0.0,0.0,0.299,0.2877,0.2739,0.2523,0.2485,0.2417,0.237,0.2385,0.2317,0.2116,0.1875,0.1657,0.1415,0.1365,0.1392,0.1445,0.1362,0.1178,0.0,0.0,0.0,0.0,0.0,0.0,0.0,0.0,0.0,0.0,0.0,0.0419,0.0,0.0,0.0,0.0,-0.3245,-0.38,-0.3994,-0.3554,0.0,0.0,0.0,0.0,0.0,0.0,0.0,-0.139,-0.2757,-0.3997,-0.4835,-0.5358,-0.5901,-0.6597,-0.7795,-0.8982,-0.9964,0.0,-1.2111,-1.2596,-1.3588,-1.4541,-1.5308,-1.6347,-1.7327,-1.8001,-1.8299,-1.8397,-1.8266,-1.8358,-1.845,-1.8517,-1.8556,-1.8436,-1.7851,-1.7253,-1.6564,-1.5588,-1.5333,-1.5398,-1.552,-1.5637,-1.5734,0.5687,0.5159,0.3914,0.3281,0.3131,0.3061,0.3578,0.4423,0.4602,0.5015,0.544,0.5032,0.4839,0.4824,0.4461,0.0,0.4291,0.4473,0.4655,0.4765,0.4877,0.4935,0.4935,0.4925,0.4918,0.4918,0.4918,0.4787,0.4536,0.4529,0.4403,0.4058,0.3778,0.3543,0.3188,0.313,0.3074,0.2961,0.2979,0.2828,0.2511,0.2483,0.234,0.1987,0.1828,0.1621,0.1319,0.1309,0.1384,0.1546,0.1432,0.1234,0.0898,0.0,0.0,0.0,0.0,0.0,0.0,0.0,0.0,0.0,0.0,0.0,0.0,0.0,0.0,0.0,-0.507,0.0,-0.4903,-0.4015,0.0,0.0,0.0,0.0101,0.0152,-0.0261,-0.0962,-0.2027,0.0,0.0,-0.5692,-0.7245,-0.8313,-0.8536,-0.9549,-1.0687,-1.1767,-1.2764,-1.3726,-1.4489,-1.5384,-1.6154,-1.6768,-1.7696,-1.8447,-1.8852,-1.8898,-1.8669,-1.862,-1.8595,-1.8556,-1.8372,-1.8425,-1.8232,-1.7632,-1.7497,-1.7376,-1.6923,-1.6768,-1.6746,-1.6697,-1.6724,-1.673,0.5818,0.5473,0.4387,0.3663,0.3314,0.319,0.353,0.4183,0.4781,0.5156,0.5297,0.534,0.5256,0.5179,0.5115,0.5014,0.502,0.5087,0.516,0.525,0.5135,0.5081,0.5074,0.4907,0.4857,0.4918,0.4982,0.4961,0.4803,0.48,0.4723,0.4511,0.4452,0.4167,0.3635,0.363,0.3522,0.3302,0.3161,0.2874,0.2544,0.236,0.2131,0.1858,0.1601,0.1421,0.1315,0.1326,0.1545,0.1862,0.1759,0.1512,0.1231,-0.0,0.0,0.0,0.0,0.0,0.0,0.0,0.0,0.0,0.0,-0.0112,-0.061,0.0,-0.2724,0.0,-0.4449,-0.481,-0.4506,-0.3809,0.0,0.0,-0.1279,-0.0473,-0.0263,-0.0758,-0.1548,-0.2595,-0.3819,-0.5093,-0.6392,-0.8146,-0.9644,-1.0656,-1.1504,-1.2451,-1.364,-1.4748,-1.5519,-1.5917,-1.6623,-1.734,-1.7876,-1.8613,-1.906,-1.8921,-1.863,-1.8397,-1.8282,-1.8095,-1.7868,-1.772,-1.772,-1.7693,-1.7638,-1.7664,-1.7663,-1.7564,-1.714,-1.6635,-1.6649,-1.6733,-1.6754,0.604,0.5775,0.4869,0.4336,0.4025,0.3614,0.3885,0.4583,0.5197,0.5475,0.5566,0.5667,0.5577,0.5228,0.5372,0.5331,0.5259,0.5259,0.5358,0.5418,0.5266,0.5266,0.5328,0.5122,0.5118,0.5114,0.5181,0.521,0.5144,0.5013,0.4917,0.4796,0.4793,0.4531,0.4085,0.3966,0.3744,0.3416,0.291,0.2651,0.2575,0.209,0.1749,0.1658,0.161,0.1473,0.12,0.1582,0.1853,0.2014,0.2106,0.2071,0.179,0.0614,-0.0222,0.0,0.0,0.0,0.0,0.0,0.0,0.0,0.0,0.0,0.0,0.0,-0.2401,-0.3354,-0.4168,-0.4431,-0.402,-0.345,-0.2813,-0.2164,-0.1441,-0.1036,-0.1036,-0.1605,-0.2406,-0.3183,-0.4446,-0.581,-0.7042,-0.8731,-1.0356,-1.1657,-1.2561,-1.3486,-1.471,-1.5784,-1.6587,-1.705,-1.7699,-1.8315,-1.8745,-1.9053,-1.9139,-1.8731,-1.8383,-1.8068,-1.7828,-1.7611,-1.7421,-1.7216,-1.7229,-1.7284,-1.738,-1.7434,-1.7488,-1.749,-1.7261,-1.7033,-1.719,-1.7279,-1.7302,0.6397,0.6117,0.5375,0.507,0.4983,0.4276,0.4389,0.5116,0.5532,0.5885,0.6086,0.5996,0.5732,0.5307,0.5453,0.5434,0.5252,0.5252,0.5318,0.5444,0.539,0.5398,0.5583,0.5454,0.5379,0.5428,0.5428,0.5429,0.5424,0.5226,0.5098,0.4979,0.4975,0.4778,0.4504,0.421,0.3801,0.3288,0.2552,0.2242,0.2486,0.173,0.1323,0.1353,0.1549,0.1522,0.1122,0.1797,0.2189,0.2127,0.2465,0.2635,0.241,0.123,0.0448,0.0,-0.0393,0.0,0.0,0.0,0.0,0.0,0.0,0.0,0.0,-0.1089,-0.1736,-0.3046,-0.3852,-0.4009,-0.3357,-0.2883,-0.2298,-0.1504,-0.1324,-0.1403,-0.1797,-0.2467,-0.3193,-0.3741,-0.5003,-0.6312,-0.7587,-0.9214,-1.0771,-1.2003,-1.306,-1.4093,-1.5264,-1.6275,-1.712,-1.7894,-1.8514,-1.8849,-1.9118,-1.9087,-1.8822,-1.8461,-1.8054,-1.776,-1.7352,-1.7157,-1.6989,-1.6833,-1.6808,-1.6866,-1.6866,-1.7018,-1.7115,-1.7115,-1.7201,-1.7368,-1.772,-1.7853,-1.8002,0.7038,0.6935,0.6068,0.5839,0.6014,0.5356,0.5117,0.5116,0.5535,0.5859,0.5992,0.5858,0.5761,0.572,0.5714,0.552,0.5396,0.5318,0.5335,0.5225,0.5418,0.5419,0.5378,0.5349,0.541,0.5432,0.5428,0.5411,0.5384,0.5384,0.5301,0.5277,0.5346,0.5152,0.4785,0.0,0.0,0.0,0.2422,0.2006,0.1591,0.14,0.1082,0.0649,0.0938,0.0,0.118,0.1793,0.224,0.2577,0.2635,0.0,0.0,0.0,0.0,0.0,0.0,0.0,0.0,0.0,0.0,0.0,0.0056,-0.0168,-0.0841,-0.1168,-0.16,-0.2304,-0.2798,-0.2968,-0.2865,-0.2103,-0.1444,-0.1056,-0.1118,-0.1347,-0.1741,-0.2352,-0.307,-0.3898,-0.5214,-0.6578,-0.7913,-0.9474,-1.0965,-1.2199,-1.3433,-1.4607,-1.5555,-1.6429,-1.7201,-1.7908,-1.8475,-1.8822,-1.8898,-1.8606,-1.8254,-1.7868,-1.7449,-1.7089,-1.6723,-1.6534,-1.6362,-1.6219,-1.6207,-1.625,-1.6349,-1.6522,-1.6693,-1.6791,-1.6931,-1.7099,-1.7432,-1.7625,-1.7747,0.7211,0.0,0.6581,0.6461,0.0,0.623,0.6011,0.5889,0.5918,0.594,0.596,0.5814,0.5747,0.5603,0.544,0.5261,0.5168,0.5087,0.5098,0.5124,0.5285,0.5292,0.5369,0.5377,0.5517,0.5517,0.5583,0.5652,0.5717,0.5579,0.5474,0.5474,0.5403,0.5256,0.499,0.4662,0.3921,0.2831,0.234,0.1864,0.1323,0.0995,0.0735,0.0422,0.0713,0.0,0.0,0.0,0.0,0.0,0.0,0.0,0.0,0.2521,0.0,0.1459,0.101,0.0617,0.028,-0.0224,-0.0336,-0.0,-0.0,-0.0112,-0.0449,-0.0728,-0.0952,-0.1288,-0.1625,-0.1794,-0.1797,-0.1403,-0.1066,-0.0954,-0.1178,-0.1515,-0.1906,-0.2517,-0.3294,-0.4343,-0.5601,-0.6907,-0.8184,-0.974,-1.1116,-1.2258,-1.3569,-1.4698,-1.5611,-1.6552,-1.7419,-1.8042,-1.8344,-1.8514,-1.8383,-1.8082,-1.772,-1.7352,-1.6892,-1.6497,-1.612,-1.5869,-1.5703,-1.5603,-1.5635,-1.578,-1.5869,-1.6076,-1.6306,-1.6491,-1.6607,-1.6748,-1.7015,-1.7253,-1.7502,0.7384,0.7285,0.708,0.6972,0.6963,0.6824,0.6658,0.663,0.0,0.0,0.0,0.5823,0.5678,0.5317,0.5152,0.5007,0.4821,0.4819,0.4836,0.4953,0.5013,0.517,0.5277,0.5466,0.5548,0.5669,0.5734,0.5803,0.5943,0.5755,0.5627,0.5616,0.5501,0.5353,0.5059,0.4573,0.3939,0.3134,0.244,0.1899,0.1361,0.0762,0.0438,0.0436,0.079,0.1122,0.1372,0.1826,0.2222,0.2336,0.2622,0.2738,0.2681,0.2795,0.2567,0.1941,0.1542,0.1199,0.097,0.0399,0.0057,-0.0,-0.0,-0.0,-0.0,-0.0169,-0.034,-0.034,-0.0569,-0.0742,-0.0742,-0.0794,-0.0849,-0.0905,-0.1239,-0.1572,-0.2015,-0.2629,-0.3574,-0.4732,-0.5878,-0.7122,-0.8408,-0.9843,-1.1166,-1.2258,-1.3484,-1.4686,-1.5635,-1.6705,-1.7528,-1.8002,-1.8108,-1.8082,-1.7868,-1.7544,-1.7173,-1.671,-1.6293,-1.5913,-1.5558,-1.53,-1.5165,-1.5074,-1.5198,-1.5367,-1.5501,-1.5768,-1.5988,-1.6275,-1.6392,-1.6522,-1.6663,-1.6918,-1.7199,0.7875,0.7868,0.7547,0.7401,0.7392,0.7061,0.6656,0.6359,0.614,0.5985,0.5706,0.5692,0.5534,0.5263,0.5178,0.5034,0.4768,0.4765,0.4707,0.46,0.4901,0.5026,0.4911,0.5265,0.5491,0.5528,0.5522,0.5663,0.58,0.5783,0.5772,0.5769,0.5749,0.553,0.5133,0.4748,0.4212,0.3456,0.2854,0.2129,0.1202,0.0799,0.0592,0.0514,0.1022,0.1447,0.165,0.2009,0.2433,0.2857,0.3038,0.3162,0.3285,0.328,0.3043,0.2436,0.2068,0.1705,0.1279,0.067,0.0244,-0.0,-0.0,-0.0,-0.0,-0.0058,-0.0059,-0.0,-0.0,-0.0122,-0.0122,-0.0357,-0.0585,-0.0876,-0.1142,-0.1514,-0.1964,-0.2689,-0.3577,-0.4787,-0.5878,-0.7122,-0.8461,-0.9799,-1.1015,-1.211,-1.3379,-1.4571,-1.5876,-1.6918,-1.7391,-1.757,-1.7598,-1.7529,-1.7323,-1.6934,-1.6552,-1.6175,-1.5712,-1.5322,-1.4915,-1.4754,-1.4662,-1.4662,-1.4754,-1.4926,-1.5096,-1.5412,-1.5691,-1.5913,-1.6175,-1.6392,-1.6534,-1.6748,-1.6918,0.8038,0.7932,0.7868,0.7743,0.773,0.7488,0.7155,0.6746,0.659,0.621,0.5738,0.5555,0.5432,0.5295,0.5032,0.4797,0.4617,0.4617,0.4559,0.4383,0.4709,0.4872,0.4802,0.5101,0.5271,0.5457,0.5598,0.5826,0.6044,0.5966,0.5925,0.5918,0.5844,0.5552,0.5133,0.5002,0.4524,0.371,0.3183,0.2487,0.1748,0.1277,0.1128,0.1162,0.142,0.1654,0.1854,0.2096,0.2403,0.2835,0.314,0.3265,0.3202,0.3202,0.2956,0.2528,0.2157,0.1788,0.1359,0.0617,0.0123,-0.0,-0.0,-0.0,-0.0,-0.0,-0.0,-0.0,-0.0,-0.0,-0.0,-0.0244,-0.0604,-0.0907,-0.1253,-0.1644,-0.2136,-0.2758,-0.3645,-0.4864,-0.5937,-0.7122,-0.8468,-0.9629,-1.0839,-1.2052,-1.3474,-1.4846,-1.5888,-1.6448,-1.6888,-1.7144,-1.7144,-1.6934,-1.6693,-1.6293,-1.5901,-1.5445,-1.5096,-1.4731,-1.4384,-1.4255,-1.4197,-1.4197,-1.4326,-1.4605,-1.4846,-1.5108,-1.5424,-1.5748,-1.5925,-1.6132,-1.6405,-1.662,-1.6803,0.8038,0.8038,0.8038,0.8038,0.8028,0.7916,0.7684,0.7364,0.6979,0.6473,0.5916,0.5602,0.5484,0.5282,0.4924,0.4705,0.4463,0.4457,0.4407,0.432,0.4566,0.4682,0.4752,0.4986,0.5248,0.5454,0.5752,0.6051,0.6247,0.6139,0.6084,0.6064,0.5928,0.5633,0.534,0.5243,0.4819,0.4092,0.3597,0.2995,0.2356,0.1883,0.1664,0.1827,0.1823,0.1933,0.2079,0.2265,0.2516,0.2769,0.3207,0.3333,0.3141,0.3141,0.2955,0.2579,0.2265,0.1825,0.1261,0.063,0.0189,-0.0,-0.0,-0.0,-0.0,0.0189,0.0188,-0.0,-0.0,-0.0,-0.0,-0.0313,-0.0624,-0.0998,-0.1302,-0.1709,-0.2269,-0.285,-0.3759,-0.5035,-0.6072,-0.718,-0.8473,-0.9676,-1.1009,-1.2585,-1.4073,-1.5232,-1.5832,-1.6101,-1.6392,-1.6616,-1.667,-1.6436,-1.61,-1.5724,-1.5311,-1.4869,-1.4569,-1.4244,-1.3973,-1.3763,-1.3716,-1.3763,-1.4057,-1.4337,-1.4569,-1.488,-1.5187,-1.557,-1.5748,-1.5969,-1.6349,-1.6534,-1.6675,0.8038,0.8038,0.8038,0.8038,0.8038,0.8021,0.7936,0.7818,0.7314,0.684,0.6412,0.6026,0.5556,0.5107,0.5013,0.4739,0.4372,0.4285,0.4326,0.4251,0.4413,0.4617,0.4694,0.4939,0.5208,0.5663,0.5808,0.5997,0.6291,0.6251,0.6237,0.622,0.6084,0.5932,0.5696,0.5365,0.5006,0.4637,0.4406,0.3736,0.2695,0.2421,0.2218,0.2146,0.2278,0.2347,0.2397,0.2736,0.3,0.3135,0.333,0.3467,0.3467,0.3469,0.3199,0.2729,0.2333,0.1872,0.1203,0.107,0.0668,-0.0,-0.0,-0.0,-0.0,0.0601,0.0727,-0.0,-0.0,-0.0,-0.0,-0.0327,-0.0643,-0.1028,-0.1387,-0.1787,-0.2392,-0.2997,-0.3903,-0.5412,-0.6307,-0.7464,-0.8806,-1.0158,-1.1754,-1.3657,-1.4666,-1.5526,-1.6109,-1.6195,-1.6174,-1.6277,-1.6173,-1.5973,-1.5626,-1.5232,-1.4823,-1.4512,-1.4276,-1.3947,-1.3583,-1.3362,-1.3246,-1.3563,-1.3763,-1.3999,-1.4373,-1.4686,-1.5017,-1.5345,-1.5659,-1.5913,-1.6349,-1.6522,-1.6565,0.8038,0.8038,0.8038,0.8038,0.8038,0.8038,0.8007,0.7957,0.7556,0.718,0.6861,0.6516,0.5917,0.5108,0.4926,0.4714,0.4302,0.4297,0.4281,0.4249,0.4511,0.4722,0.4803,0.4967,0.5241,0.5539,0.5785,0.6169,0.6435,0.643,0.6346,0.6342,0.6193,0.6086,0.5848,0.572,0.5426,0.4981,0.4757,0.4382,0.3743,0.3263,0.2826,0.2614,0.2578,0.2622,0.2757,0.2889,0.3025,0.3226,0.3295,0.3362,0.3295,0.3295,0.3159,0.2686,0.2151,0.1615,0.1145,0.1078,0.0877,0.0337,0.0135,0.0202,0.0607,0.0945,0.0939,0.0666,0.0268,-0.0,-0.0,-0.0333,-0.0663,-0.1059,-0.1507,-0.1937,-0.2466,-0.3153,-0.4137,-0.5347,-0.6344,-0.7537,-0.8943,-1.0664,-1.2491,-1.4063,-1.486,-1.5424,-1.5946,-1.607,-1.6128,-1.6132,-1.6058,-1.5681,-1.5165,-1.4651,-1.428,-1.3999,-1.3784,-1.3556,-1.3306,-1.3084,-1.3064,-1.3314,-1.3515,-1.38,-1.4222,-1.4512,-1.4846,-1.521,-1.5647,-1.6044,-1.6349,-1.6392,-1.6436,0.8038,0.8038,0.8038,0.8038,0.8038,0.8038,0.8038,0.7942,0.7746,0.7486,0.7195,0.6899,0.6294,0.5551,0.5232,0.4894,0.4647,0.4527,0.4514,0.4604,0.4759,0.4886,0.4995,0.516,0.5357,0.551,0.5835,0.6238,0.6609,0.6546,0.6417,0.6329,0.6281,0.618,0.6018,0.5941,0.5659,0.5266,0.5106,0.4836,0.4449,0.3986,0.3566,0.3182,0.3055,0.308,0.3195,0.3125,0.3111,0.3226,0.3226,0.3226,0.3226,0.3159,0.2956,0.2487,0.195,0.1479,0.1143,0.1078,0.1012,0.0674,0.0337,0.0405,0.0945,0.108,0.108,0.1011,0.0607,-0.0,-0.0,-0.027,-0.0674,-0.1213,-0.1682,-0.2064,-0.2613,-0.3383,-0.4257,-0.5421,-0.648,-0.772,-0.9345,-1.1252,-1.3033,-1.4147,-1.477,-1.5295,-1.5796,-1.6057,-1.6093,-1.6144,-1.5942,-1.5465,-1.4755,-1.4376,-1.3978,-1.3536,-1.3344,-1.322,-1.3027,-1.29,-1.2929,-1.3218,-1.3409,-1.3658,-1.4093,-1.4384,-1.4765,-1.5255,-1.5691,-1.6001,-1.6219,-1.6306,-1.6436,0.8038,0.8038,0.8038,0.8038,0.8038,0.8038,0.8038,0.8038,0.7746,0.7537,0.7425,0.7027,0.6662,0.6341,0.5844,0.5598,0.5296,0.5018,0.4977,0.5062,0.497,0.501,0.5366,0.5364,0.5476,0.5709,0.6052,0.642,0.6709,0.6559,0.6468,0.6461,0.6417,0.6264,0.6268,0.6025,0.5786,0.5535,0.5378,0.5068,0.474,0.4568,0.4387,0.4012,0.3842,0.3714,0.3642,0.3348,0.3174,0.3232,0.3234,0.3232,0.3226,0.3092,0.2688,0.2018,0.1748,0.1479,0.1143,0.1078,0.1079,0.1012,0.0674,0.0607,0.1012,0.108,0.108,0.108,0.1012,0.0742,0.0135,-0.027,-0.0808,-0.1481,-0.1749,-0.2216,-0.2882,-0.3535,-0.455,-0.5709,-0.6854,-0.8355,-1.0483,-1.1966,-1.3126,-1.4205,-1.4954,-1.5571,-1.615,-1.6176,-1.6094,-1.6095,-1.5733,-1.5028,-1.4736,-1.4307,-1.3846,-1.3439,-1.3154,-1.2929,-1.2774,-1.2715,-1.29,-1.3084,-1.3276,-1.3563,-1.3952,-1.4384,-1.4834,-1.5244,-1.5614,-1.5881,-1.6132,-1.6262,-1.6392,0.8038,0.8038,0.8038,0.8038,0.8038,0.8038,0.8038,0.8038,0.7942,0.7743,0.7547,0.7347,0.7021,0.6677,0.653,0.6034,0.5429,0.5287,0.5272,0.5354,0.5346,0.5481,0.5564,0.5768,0.5791,0.5744,0.6271,0.6647,0.6858,0.6787,0.6715,0.6607,0.6468,0.6476,0.638,0.6224,0.5948,0.564,0.5482,0.5326,0.4935,0.4894,0.4699,0.45,0.4068,0.3765,0.373,0.3442,0.3331,0.3318,0.3313,0.3287,0.3167,0.2956,0.2554,0.1951,0.1681,0.1479,0.1143,0.1076,0.1078,0.1078,0.0809,0.0743,0.1012,0.108,0.108,0.108,0.108,0.0945,0.0674,-0.0,-0.0808,-0.148,-0.1884,-0.2354,-0.2956,-0.3689,-0.4622,-0.5885,-0.7456,-0.9256,-1.0514,-1.1896,-1.2964,-1.3872,-1.4656,-1.5313,-1.5874,-1.6007,-1.6063,-1.613,-1.5904,-1.5526,-1.4807,-1.4142,-1.362,-1.3302,-1.3016,-1.2783,-1.2618,-1.2618,-1.2754,-1.3007,-1.319,-1.3467,-1.3858,-1.4419,-1.488,-1.521,-1.557,-1.5792,-1.6013,-1.6188,-1.6306,0.8038,0.8038,0.8038,0.8038,0.8038,0.8038,0.8038,0.8038,0.8038,0.7942,0.7746,0.7646,0.7347,0.7045,0.6945,0.666,0.6013,0.5782,0.5669,0.5751,0.5927,0.595,0.5901,0.6093,0.6204,0.6163,0.6609,0.6916,0.6917,0.6953,0.6875,0.6773,0.662,0.6519,0.6464,0.6376,0.6077,0.5652,0.5562,0.5323,0.5018,0.4937,0.4859,0.4678,0.4171,0.3858,0.3832,0.3609,0.3493,0.3422,0.3335,0.3238,0.3044,0.2761,0.2348,0.1866,0.1659,0.1451,0.1174,0.1105,0.1106,0.1106,0.096,0.0888,0.1093,0.1084,0.1079,0.1079,0.0945,0.0945,0.0877,0.0135,-0.0808,-0.148,-0.1951,-0.2421,-0.3023,-0.3823,-0.4885,-0.6276,-0.7842,-0.9384,-1.0591,-1.1538,-1.2544,-1.3528,-1.4318,-1.4852,-1.5381,-1.5662,-1.5826,-1.5874,-1.5796,-1.5474,-1.4919,-1.4233,-1.3517,-1.3141,-1.2788,-1.2577,-1.251,-1.251,-1.2666,-1.292,-1.32,-1.3467,-1.3847,-1.4408,-1.4834,-1.5165,-1.5435,-1.5703,-1.5925,-1.61,-1.6231,0.8041,0.8038,0.8038,0.8038,0.8038,0.8038,0.8038,0.8038,0.8038,0.7939,0.7939,0.7743,0.7547,0.7444,0.7238,0.7126,0.6988,0.6603,0.6365,0.6354,0.6524,0.65,0.6314,0.656,0.6659,0.6726,0.6969,0.7051,0.7115,0.701,0.6939,0.6905,0.6776,0.6644,0.6491,0.6318,0.6004,0.568,0.5494,0.5249,0.5015,0.4779,0.4621,0.4621,0.4288,0.4011,0.386,0.3778,0.3664,0.3511,0.3281,0.2987,0.268,0.2462,0.2108,0.1739,0.1599,0.1382,0.1235,0.1159,0.1084,0.1081,0.1136,0.1122,0.1119,0.11,0.1085,0.1084,0.0813,0.0676,0.0878,0.0135,-0.0808,-0.1481,-0.1951,-0.249,-0.3092,-0.3889,-0.5014,-0.6736,-0.8037,-0.9075,-1.0295,-1.1178,-1.2112,-1.3164,-1.3838,-1.4309,-1.4911,-1.5196,-1.5254,-1.5362,-1.5362,-1.5187,-1.4744,-1.4298,-1.3603,-1.2973,-1.2604,-1.2314,-1.2363,-1.2421,-1.2569,-1.2822,-1.3142,-1.3409,-1.3847,-1.4373,-1.4697,-1.5017,-1.5289,-1.557,-1.5792,-1.5969,-1.6188,0.8136,0.8041,0.8038,0.8038,0.8038,0.8038,0.8038,0.8038,0.8038,0.8038,0.7942,0.7942,0.7743,0.7543,0.7441,0.7338,0.7232,0.6997,0.6979,0.6955,0.704,0.7047,0.6896,0.7001,0.7076,0.7121,0.7098,0.7143,0.7136,0.7092,0.6987,0.7048,0.6926,0.6753,0.6592,0.6345,0.5968,0.5613,0.5445,0.5165,0.4857,0.4701,0.4465,0.4075,0.3997,0.3746,0.3339,0.3409,0.3448,0.3371,0.3142,0.2822,0.2491,0.2334,0.2042,0.1603,0.1531,0.1385,0.1239,0.1167,0.1168,0.1166,0.1157,0.1153,0.1153,0.1142,0.1127,0.1112,0.0969,0.0964,0.0881,0.0135,-0.0809,-0.1547,-0.1951,-0.249,-0.3226,-0.4356,-0.5609,-0.6798,-0.7837,-0.8935,-1.0028,-1.0912,-1.1856,-1.2858,-1.3528,-1.407,-1.4478,-1.4715,-1.4834,-1.4893,-1.4834,-1.4737,-1.4359,-1.3875,-1.3296,-1.2757,-1.2397,-1.2184,-1.2224,-1.2274,-1.2471,-1.2764,-1.3084,-1.3409,-1.3847,-1.4233,-1.4558,-1.488,-1.5153,-1.5435,-1.5659,-1.5881,-1.6057,0.8262,0.813,0.8126,0.8092,0.8041,0.8038,0.8038,0.8038,0.8038,0.8038,0.8038,0.8038,0.7942,0.7743,0.7743,0.7643,0.7537,0.754,0.7537,0.7428,0.7461,0.7287,0.7221,0.7282,0.7366,0.7444,0.7299,0.7227,0.7221,0.717,0.7139,0.7119,0.7051,0.6883,0.6576,0.6325,0.5952,0.5439,0.5277,0.5059,0.4628,0.4229,0.3995,0.3763,0.3606,0.3374,0.2982,0.2981,0.3115,0.3154,0.2991,0.2589,0.2255,0.2103,0.1876,0.1575,0.1425,0.1351,0.1275,0.1279,0.1275,0.1199,0.119,0.1183,0.1181,0.1102,0.1084,0.0928,0.0995,0.0985,0.062,-0.0,-0.0818,-0.1548,-0.1951,-0.2622,-0.3491,-0.4758,-0.5811,-0.6793,-0.7707,-0.8742,-0.9831,-1.0717,-1.1608,-1.2482,-1.3216,-1.37,-1.4052,-1.4291,-1.4419,-1.4478,-1.4419,-1.42,-1.3911,-1.3441,-1.2949,-1.2582,-1.2187,-1.2104,-1.2076,-1.2116,-1.2274,-1.2715,-1.3094,-1.3324,-1.3716,-1.4093,-1.4419,-1.4743,-1.5017,-1.5289,-1.5525,-1.5748,-1.5969,0.8411,0.8289,0.8282,0.8194,0.7972,0.8062,0.8055,0.8038,0.8038,0.8038,0.8038,0.8038,0.8038,0.7939,0.7942,0.7939,0.7939,0.7942,0.7939,0.7839,0.7717,0.7566,0.7456,0.7512,0.7628,0.759,0.7455,0.7377,0.7339,0.7234,0.7146,0.7139,0.7037,0.69,0.6621,0.6414,0.593,0.5347,0.5054,0.4746,0.4335,0.3616,0.3295,0.3608,0.3295,0.2982,0.2747,0.2589,0.2668,0.2902,0.266,0.2344,0.204,0.1729,0.1642,0.164,0.1412,0.133,0.1333,0.1325,0.1327,0.1324,0.1227,0.1215,0.1212,0.1196,0.0958,0.0658,0.0803,0.0723,0.0142,-0.0281,-0.0833,-0.1561,-0.2091,-0.2891,-0.4087,-0.4957,-0.5815,-0.6732,-0.7587,-0.8495,-0.9831,-1.0598,-1.1358,-1.2174,-1.2903,-1.3329,-1.3631,-1.3872,-1.395,-1.401,-1.4001,-1.3696,-1.3403,-1.3011,-1.2494,-1.213,-1.1878,-1.1802,-1.1877,-1.2026,-1.2224,-1.2666,-1.3007,-1.3286,-1.3563,-1.3894,-1.428,-1.4616,-1.4891,-1.5153,-1.5424,-1.5659,-1.5925,0.856,0.8431,0.8425,0.8237,0.8008,0.8208,0.8143,0.8048,0.8041,0.8048,0.8038,0.8038,0.8038,0.8038,0.8038,0.8038,0.8038,0.8038,0.8038,0.8038,0.7942,0.7826,0.7858,0.7731,0.7756,0.7736,0.7611,0.7482,0.738,0.7329,0.7251,0.7054,0.6969,0.6864,0.664,0.6201,0.5781,0.5191,0.4775,0.4444,0.4038,0.3616,0.3188,0.2826,0.2904,0.2671,0.2201,0.2123,0.2121,0.22,0.2121,0.1963,0.1729,0.1651,0.1572,0.1415,0.1336,0.1336,0.1336,0.1336,0.1336,0.1336,0.1326,0.1246,0.1245,0.1238,0.0993,0.0679,0.045,0.0148,-0.0363,-0.0577,-0.1067,-0.1879,-0.2526,-0.323,-0.4156,-0.4957,-0.5818,-0.6728,-0.7521,-0.8554,-0.9703,-1.0598,-1.1296,-1.2112,-1.2728,-1.3155,-1.339,-1.358,-1.3709,-1.364,-1.3597,-1.3271,-1.2906,-1.2484,-1.2058,-1.1651,-1.1445,-1.1395,-1.1628,-1.1927,-1.2175,-1.252,-1.2871,-1.3113,-1.3382,-1.3716,-1.4104,-1.4488,-1.48,-1.5062,-1.5379,-1.5659,-1.5881,0.8716,0.8577,0.8577,0.8492,0.826,0.836,0.8272,0.8153,0.8136,0.8096,0.8052,0.8038,0.8038,0.8038,0.8038,0.8038,0.8038,0.8038,0.8038,0.8038,0.8038,0.7935,0.8011,0.7936,0.7909,0.7889,0.776,0.7648,0.7546,0.7438,0.7322,0.7155,0.691,0.6704,0.6422,0.6189,0.5678,0.5112,0.4621,0.4212,0.3798,0.3263,0.2907,0.2546,0.253,0.22,0.1807,0.173,0.1651,0.173,0.1808,0.1651,0.1493,0.1493,0.1415,0.1336,0.1336,0.1336,0.1336,0.1336,0.1336,0.1336,0.1336,0.1336,0.1335,0.1336,0.109,0.0925,0.0385,-0.0152,-0.0595,-0.0881,-0.1449,-0.2138,-0.2853,-0.3538,-0.4228,-0.502,-0.5881,-0.6732,-0.7647,-0.8554,-0.9831,-1.0598,-1.1303,-1.2058,-1.2621,-1.292,-1.3155,-1.3346,-1.3467,-1.3338,-1.3193,-1.288,-1.2506,-1.2019,-1.1609,-1.1219,-1.1143,-1.104,-1.1377,-1.1778,-1.2076,-1.2382,-1.2686,-1.2978,-1.3248,-1.3573,-1.401,-1.4384,-1.4651,-1.5017,-1.5345,-1.557,-1.5792,0.8749,0.8733,0.8733,0.8645,0.8625,0.8503,0.8425,0.8309,0.8292,0.8211,0.8102,0.8065,0.8065,0.8038,0.8038,0.8038,0.8038,0.8038,0.8038,0.8038,0.8038,0.8038,0.8035,0.8021,0.8011,0.7997,0.7892,0.7821,0.7729,0.7533,0.7411,0.7249,0.6962,0.6539,0.6257,0.6068,0.5667,0.4988,0.4622,0.4132,0.3634,0.2911,0.255,0.2444,0.1999,0.1816,0.1574,0.1415,0.1415,0.1573,0.1573,0.1493,0.1336,0.1336,0.1336,0.1336,0.1415,0.1415,0.1415,0.1415,0.1415,0.1415,0.1415,0.1336,0.1336,0.1336,0.1256,0.1252,0.055,-0.0078,-0.0609,-0.134,-0.191,-0.2331,-0.2929,-0.3615,-0.4352,-0.5103,-0.5943,-0.6793,-0.7712,-0.8737,-0.9761,-1.0598,-1.1303,-1.1996,-1.2498,-1.2805,-1.2981,-1.3111,-1.3111,-1.2981,-1.2789,-1.2617,-1.2125,-1.1616,-1.119,-1.0813,-1.0873,-1.0871,-1.1124,-1.1477,-1.1877,-1.2175,-1.248,-1.2774,-1.3065,-1.344,-1.3915,-1.4291,-1.4616,-1.5028,-1.539,-1.548,-1.5659,0.8689,0.8889,0.8889,0.8801,0.8672,0.8659,0.8574,0.8438,0.8438,0.8357,0.8245,0.8218,0.815,0.8045,0.8045,0.8038,0.8038,0.8038,0.8038,0.8038,0.8038,0.8038,0.8038,0.8038,0.8038,0.8028,0.8011,0.7929,0.7911,0.7733,0.7493,0.7201,0.6878,0.6442,0.5902,0.5811,0.5544,0.4982,0.4712,0.4222,0.3637,0.3001,0.2456,0.2167,0.1716,0.1442,0.142,0.1336,0.1336,0.1336,0.1416,0.1419,0.1337,0.1493,0.1493,0.1573,0.1651,0.173,0.173,0.173,0.173,0.173,0.1573,0.1493,0.1493,0.1415,0.1336,0.1258,0.0786,0.0156,-0.0543,-0.1372,-0.1958,-0.2388,-0.3004,-0.3813,-0.4686,-0.5287,-0.5973,-0.6876,-0.7847,-0.8807,-0.9888,-1.073,-1.1428,-1.1996,-1.2367,-1.2744,-1.2805,-1.2867,-1.2805,-1.2744,-1.2626,-1.2374,-1.1752,-1.1295,-1.0864,-1.0564,-1.0577,-1.0675,-1.0922,-1.1226,-1.1578,-1.1927,-1.2274,-1.2569,-1.292,-1.3334,-1.381,-1.4197,-1.4627,-1.4983,-1.53,-1.5435,-1.5603,0.8595,0.8712,0.8826,0.8893,0.8825,0.8815,0.873,0.8608,0.8587,0.8509,0.8374,0.8309,0.8225,0.8143,0.8075,0.8038,0.8038,0.8038,0.8038,0.8038,0.8038,0.8038,0.8038,0.8038,0.8038,0.8038,0.8035,0.7984,0.7926,0.7838,0.7689,0.7389,0.6952,0.6463,0.6,0.5816,0.546,0.5099,0.4837,0.4275,0.362,0.3056,0.2496,0.1942,0.1498,0.1315,0.1303,0.1462,0.1452,0.1442,0.1518,0.1588,0.1496,0.1651,0.173,0.173,0.1808,0.1887,0.1887,0.1887,0.1887,0.1889,0.1809,0.173,0.1651,0.1493,0.1415,0.1258,0.0864,0.0314,-0.0549,-0.148,-0.2081,-0.2451,-0.3083,-0.3925,-0.4837,-0.5497,-0.6194,-0.7109,-0.8113,-0.9034,-0.997,-1.0835,-1.1435,-1.2003,-1.2375,-1.2683,-1.2621,-1.2683,-1.2552,-1.249,-1.2375,-1.205,-1.1424,-1.094,-1.0515,-1.0325,-1.0288,-1.0419,-1.0667,-1.0972,-1.1276,-1.1678,-1.2126,-1.2529,-1.2871,-1.3296,-1.3763,-1.4244,-1.4662,-1.4983,-1.5255,-1.5424,-1.5647,0.8488,0.8484,0.8823,0.8937,0.8937,0.893,0.8859,0.8757,0.8743,0.8662,0.8523,0.8384,0.834,0.8245,0.814,0.8072,0.8041,0.8038,0.8038,0.8038,0.8038,0.8038,0.8038,0.8038,0.8038,0.8038,0.8038,0.8028,0.7994,0.7913,0.7794,0.7631,0.7111,0.6621,0.623,0.5908,0.5549,0.5102,0.4837,0.4302,0.3662,0.3086,0.2513,0.1872,0.1609,0.1517,0.1508,0.1587,0.1747,0.1721,0.1963,0.1941,0.1915,0.1889,0.2051,0.2053,0.214,0.2308,0.232,0.2236,0.2234,0.2066,0.2058,0.1899,0.1741,0.1577,0.1493,0.11,0.0629,-0.0079,-0.0707,-0.1489,-0.2117,-0.2577,-0.3149,-0.4105,-0.5035,-0.5806,-0.6658,-0.7591,-0.8544,-0.9478,-1.0212,-1.1008,-1.1508,-1.1949,-1.2321,-1.2498,-1.2498,-1.2436,-1.2305,-1.2182,-1.2058,-1.1586,-1.0975,-1.0612,-1.0198,-1.0045,-0.9999,-1.0257,-1.047,-1.0828,-1.1175,-1.1578,-1.1977,-1.2382,-1.2822,-1.3296,-1.3763,-1.4244,-1.4662,-1.4949,-1.521,-1.5468,-1.5691,0.8266,0.8484,0.8823,0.8937,0.8937,0.8937,0.892,0.8903,0.8889,0.8815,0.8679,0.8638,0.8482,0.833,0.8255,0.8163,0.8065,0.8038,0.8038,0.8038,0.8038,0.8038,0.8038,0.8038,0.8038,0.8038,0.8038,0.8038,0.8038,0.8004,0.7896,0.777,0.7331,0.6907,0.65,0.6146,0.5638,0.5099,0.4835,0.4391,0.3758,0.3209,0.2645,0.2078,0.1901,0.1887,0.1948,0.1938,0.2014,0.2259,0.2509,0.2669,0.2717,0.2567,0.2552,0.2575,0.2828,0.2924,0.2961,0.3063,0.299,0.2817,0.2616,0.2263,0.201,0.175,0.15,0.0943,-0.0,-0.1022,-0.1179,-0.173,-0.22,-0.2663,-0.3433,-0.4419,-0.5393,-0.6268,-0.7045,-0.8018,-0.897,-0.9876,-1.0539,-1.1108,-1.1589,-1.1874,-1.2096,-1.2205,-1.2189,-1.212,-1.2058,-1.1872,-1.1747,-1.1112,-1.0385,-1.0235,-0.9951,-0.979,-0.9836,-1.0102,-1.036,-1.0675,-1.1074,-1.1477,-1.1877,-1.2332,-1.2764,-1.3238,-1.3716,-1.4186,-1.4569,-1.4914,-1.5176,-1.5424,-1.5647,0.8045,0.8266,0.8716,0.8937,0.8937,0.8937,0.8937,0.8937,0.8937,0.8896,0.8821,0.8743,0.8642,0.8486,0.8319,0.8187,0.8072,0.8038,0.8038,0.8038,0.8038,0.8038,0.8038,0.8038,0.8038,0.8038,0.8038,0.8038,0.8038,0.8038,0.796,0.7811,0.7377,0.6957,0.6636,0.6236,0.5824,0.528,0.4924,0.4567,0.3942,0.3405,0.2936,0.2657,0.2382,0.2282,0.2443,0.2522,0.2507,0.2744,0.2993,0.3313,0.3439,0.3478,0.327,0.3138,0.3307,0.34,0.3353,0.3359,0.3273,0.3023,0.2913,0.255,0.2117,0.185,0.1511,0.0788,-0.0,-0.1179,-0.1573,-0.1887,-0.2199,-0.2823,-0.3602,-0.4535,-0.561,-0.6481,-0.7443,-0.834,-0.9166,-0.999,-1.0763,-1.1281,-1.1653,-1.188,-1.1914,-1.1917,-1.1887,-1.1747,-1.1622,-1.156,-1.1344,-1.0884,-1.0258,-1.008,-0.9788,-0.9602,-0.9681,-0.994,-1.0257,-1.0616,-1.0972,-1.1326,-1.1778,-1.2283,-1.2764,-1.3296,-1.3716,-1.4082,-1.4523,-1.4857,-1.5165,-1.5435,-1.5647,0.8048,0.8045,0.8605,0.8937,0.8937,0.8937,0.8937,0.8937,0.8937,0.8937,0.892,0.8818,0.8743,0.8635,0.8411,0.8187,0.8048,0.8038,0.8038,0.8038,0.8038,0.8038,0.8038,0.8038,0.8038,0.8038,0.8038,0.8038,0.8038,0.8038,0.7967,0.7768,0.7521,0.7185,0.6777,0.6475,0.5955,0.5549,0.5191,0.4832,0.4297,0.3762,0.3405,0.3315,0.2867,0.2862,0.3031,0.3207,0.3274,0.3421,0.3665,0.3905,0.4276,0.4344,0.4085,0.3827,0.3646,0.3643,0.3663,0.3585,0.3516,0.3264,0.3147,0.2684,0.215,0.1802,0.1452,0.0635,-0.0157,-0.1022,-0.1651,-0.1964,-0.2354,-0.2978,-0.3756,-0.4613,-0.5702,-0.6692,-0.7757,-0.8589,-0.9408,-1.0137,-1.0887,-1.141,-1.1741,-1.166,-1.1688,-1.1459,-1.143,-1.1254,-1.1185,-1.1059,-1.0906,-1.058,-1.0223,-1.0105,-0.9729,-0.9453,-0.9636,-0.9947,-1.0198,-1.0506,-1.0863,-1.1276,-1.1778,-1.2274,-1.2764,-1.3248,-1.3621,-1.4046,-1.4477,-1.48,-1.5062,-1.5334,-1.557,0.8048,0.8045,0.8605,0.8937,0.8937,0.8937,0.8937,0.8937,0.8937,0.8937,0.8937,0.891,0.8825,0.8655,0.8411,0.8197,0.8079,0.8038,0.8038,0.8038,0.8038,0.8038,0.8038,0.8038,0.8038,0.8038,0.8038,0.8038,0.8038,0.8038,0.8031,0.7865,0.7738,0.7521,0.7095,0.6774,0.628,0.5746,0.5463,0.5015,0.4389,0.403,0.3851,0.3674,0.3585,0.3585,0.3674,0.3851,0.4105,0.4103,0.4368,0.4632,0.4889,0.4886,0.4886,0.477,0.4559,0.4446,0.441,0.415,0.3884,0.352,0.3406,0.2944,0.2215,0.1661,0.1222,0.0649,-0.0159,-0.0944,-0.1731,-0.2042,-0.2431,-0.3134,-0.3915,-0.4771,-0.5783,-0.6633,-0.7706,-0.8537,-0.9242,-1.0042,-1.0832,-1.1307,-1.1736,-1.1572,-1.1386,-1.1155,-1.0953,-1.0771,-1.0624,-1.0561,-1.0557,-1.0315,-1.0045,-0.988,-0.9688,-0.9302,-0.9539,-0.9895,-1.0154,-1.0462,-1.0871,-1.1326,-1.1778,-1.2224,-1.2715,-1.32,-1.3573,-1.3952,-1.4384,-1.4651,-1.4915,-1.5187,-1.5525,0.8048,0.8045,0.8602,0.8937,0.8937,0.8937,0.8937,0.8937,0.8937,0.8937,0.8937,0.8937,0.8808,0.8594,0.8428,0.8156,0.7982,0.8038,0.8038,0.8038,0.8038,0.8038,0.8038,0.8038,0.8038,0.8038,0.8038,0.8038,0.8038,0.8038,0.8038,0.8014,0.7896,0.7691,0.741,0.7098,0.6685,0.6119,0.5681,0.5282,0.4832,0.4654,0.4567,0.4389,0.4387,0.43,0.4389,0.4656,0.4746,0.4743,0.4835,0.4924,0.5102,0.5188,0.5277,0.5364,0.4972,0.4791,0.465,0.43,0.3944,0.3585,0.3285,0.2815,0.2081,0.1524,0.1237,0.1058,-0.0,-0.0958,-0.1658,-0.1964,-0.2511,-0.3214,-0.3992,-0.4771,-0.5625,-0.6553,-0.7476,-0.8241,-0.8998,-0.9723,-1.0369,-1.084,-1.1101,-1.1011,-1.081,-1.0575,-1.0367,-1.0193,-1.0117,-1.006,-1.0097,-1.0024,-0.9794,-0.9601,-0.9576,-0.934,-0.948,-0.9784,-1.011,-1.047,-1.0879,-1.1276,-1.1728,-1.2175,-1.2676,-1.3104,-1.3478,-1.3858,-1.4291,-1.4558,-1.4823,-1.5119,-1.5402,0.8156,0.8156,0.8716,0.8937,0.8937,0.8937,0.8937,0.8937,0.8937,0.8937,0.8937,0.893,0.8788,0.8574,0.8377,0.823,0.8106,0.8055,0.8041,0.8038,0.8038,0.8038,0.8038,0.8038,0.8038,0.8038,0.8038,0.8038,0.8038,0.8038,0.8038,0.8035,0.7946,0.7754,0.7598,0.7321,0.701,0.651,0.6026,0.57,0.5325,0.5206,0.5104,0.501,0.4919,0.4919,0.501,0.5191,0.5191,0.5186,0.5277,0.5458,0.5547,0.5549,0.5552,0.5549,0.5176,0.4912,0.4656,0.4302,0.3855,0.3497,0.3047,0.249,0.202,0.1461,0.1269,0.125,0.0082,-0.0893,-0.1677,-0.1985,-0.2527,-0.3226,-0.3915,-0.4691,-0.5389,-0.6244,-0.7015,-0.7706,-0.8394,-0.8856,-0.952,-1.0166,-1.0431,-1.0466,-1.025,-0.9946,-0.9758,-0.9548,-0.9542,-0.9478,-0.9755,-0.9712,-0.9449,-0.9298,-0.9223,-0.9315,-0.9453,-0.9681,-0.9999,-1.0368,-1.0777,-1.1175,-1.1628,-1.2026,-1.2471,-1.2949,-1.343,-1.381,-1.414,-1.4512,-1.4789,-1.5085,-1.5267,0.8484,0.8484,0.8823,0.8937,0.8937,0.8937,0.8937,0.8937,0.8937,0.8937,0.8937,0.8927,0.8845,0.8682,0.8421,0.8287,0.8241,0.8106,0.8052,0.8038,0.8038,0.8038,0.8038,0.8038,0.8038,0.8038,0.8038,0.8038,0.8038,0.8038,0.8038,0.8028,0.7997,0.7923,0.7758,0.7504,0.7228,0.6823,0.6513,0.6173,0.5866,0.5636,0.5399,0.5211,0.502,0.501,0.5013,0.5371,0.5547,0.563,0.5811,0.5905,0.5902,0.5905,0.5908,0.5641,0.528,0.5013,0.4835,0.4302,0.3857,0.3408,0.2868,0.215,0.1869,0.1141,0.1041,0.1119,-0.0,-0.0915,-0.1638,-0.2106,-0.248,-0.3092,-0.37,-0.4382,-0.5082,-0.5938,-0.6633,-0.7169,-0.7706,-0.8093,-0.8399,-0.899,-0.9601,-0.9675,-0.9397,-0.9114,-0.8958,-0.8765,-0.8894,-0.8958,-0.9338,-0.925,-0.8956,-0.892,-0.9104,-0.9173,-0.9249,-0.9501,-0.9792,-1.0205,-1.0675,-1.1032,-1.1427,-1.1877,-1.2274,-1.2706,-1.3142,-1.3621,-1.4046,-1.4373,-1.4708,-1.4994,-1.5085,0.8595,0.8712,0.8826,0.8937,0.8937,0.8937,0.8937,0.8937,0.8937,0.8937,0.8937,0.893,0.8855,0.8703,0.8441,0.83,0.8262,0.8113,0.8055,0.8038,0.8038,0.8038,0.8038,0.8038,0.8038,0.8038,0.8038,0.8038,0.8038,0.8038,0.8038,0.8038,0.8038,0.8014,0.7851,0.7677,0.7408,0.7244,0.6938,0.6578,0.6569,0.645,0.6317,0.6221,0.6034,0.602,0.6099,0.6025,0.6088,0.6169,0.6263,0.6263,0.6171,0.6174,0.5997,0.5733,0.528,0.501,0.4832,0.421,0.3497,0.2781,0.2243,0.1885,0.1615,0.1068,0.0616,0.0349,-0.0173,-0.0937,-0.142,-0.1887,-0.2261,-0.2879,-0.3486,-0.4084,-0.4696,-0.5473,-0.6015,-0.6475,-0.6865,-0.7253,-0.7484,-0.7706,-0.8337,-0.8846,-0.8518,-0.8278,-0.8129,-0.8117,-0.8247,-0.8506,-0.8818,-0.9018,-0.8702,-0.8853,-0.8959,-0.9053,-0.9064,-0.9365,-0.9636,-1.0051,-1.0522,-1.0871,-1.1276,-1.1628,-1.2026,-1.2421,-1.291,-1.343,-1.3858,-1.4244,-1.4581,-1.4857,-1.4857,0.8712,0.8937,0.8937,0.8937,0.8937,0.8937,0.8937,0.8937,0.8937,0.8937,0.8937,0.8933,0.8886,0.8747,0.8454,0.834,0.8306,0.815,0.8065,0.8038,0.8038,0.8038,0.8038,0.8038,0.8038,0.8038,0.8038,0.8038,0.8038,0.8038,0.8038,0.8038,0.8038,0.8035,0.7912,0.7753,0.769,0.756,0.727,0.7095,0.7092,0.6948,0.6829,0.6816,0.6734,0.6707,0.659,0.6539,0.656,0.6526,0.6591,0.6477,0.6367,0.626,0.6083,0.5727,0.5369,0.501,0.4743,0.403,0.3138,0.2423,0.2064,0.1705,0.1436,0.1076,0.08,0.0088,-0.0439,-0.087,-0.1363,-0.167,-0.2127,-0.2671,-0.3008,-0.3526,-0.4151,-0.4774,-0.524,-0.5625,-0.6015,-0.6328,-0.6479,-0.6692,-0.723,-0.7772,-0.7794,-0.756,-0.7423,-0.7461,-0.7661,-0.7982,-0.8301,-0.8477,-0.8606,-0.8717,-0.8798,-0.8813,-0.8931,-0.9155,-0.9472,-0.9895,-1.0308,-1.0667,-1.1023,-1.1427,-1.1778,-1.2175,-1.2657,-1.318,-1.3668,-1.4104,-1.4326,-1.4569,-1.4534,0.8937,0.8937,0.8937,0.8937,0.8937,0.8937,0.8937,0.8937,0.8937,0.8937,0.8937,0.8937,0.8937,0.8845,0.8501,0.8364,0.8387,0.817,0.8038,0.8038,0.8038,0.8038,0.8038,0.8038,0.8038,0.8038,0.8038,0.8038,0.8038,0.8038,0.8038,0.8038,0.8038,0.8038,0.8038,0.8035,0.8031,0.7912,0.7583,0.754,0.7408,0.7238,0.7108,0.7092,0.7048,0.7026,0.701,0.6967,0.699,0.7021,0.6976,0.6834,0.6754,0.6447,0.6257,0.5991,0.5366,0.501,0.483,0.3851,0.2959,0.2243,0.1974,0.1615,0.1436,0.1256,0.0897,0.0089,-0.0357,-0.0885,-0.1216,-0.1617,-0.2002,-0.237,-0.264,-0.3066,-0.3616,-0.4153,-0.4538,-0.4849,-0.5085,-0.5321,-0.5473,-0.5671,-0.6139,-0.6606,-0.6857,-0.6851,-0.6697,-0.6806,-0.7068,-0.74,-0.7782,-0.8104,-0.831,-0.8506,-0.8643,-0.8614,-0.8719,-0.8977,-0.9263,-0.9629,-1.0043,-1.0411,-1.0769,-1.1124,-1.1477,-1.1828,-1.2412,-1.2939,-1.3525,-1.3962,-1.4186,-1.4222,-1.4186,0.8937,0.8937,0.8937,0.8937,0.8937,0.8937,0.8937,0.8937,0.8937,0.8937,0.8937,0.8937,0.8937,0.8842,0.8645,0.8479,0.8425,0.8184,0.8038,0.8038,0.8038,0.8038,0.8038,0.8038,0.8038,0.8038,0.8038,0.8038,0.8038,0.8038,0.8038,0.8038,0.8038,0.8038,0.8038,0.8038,0.8038,0.8035,0.7888,0.7865,0.7858,0.771,0.7579,0.7573,0.7495,0.7452,0.7446,0.7393,0.7315,0.7336,0.7287,0.7181,0.6915,0.6598,0.626,0.5902,0.5277,0.4743,0.4297,0.3496,0.296,0.2333,0.1795,0.1436,0.1076,0.0987,0.0538,-0.0,-0.0,-0.0,-0.1239,-0.1391,-0.1704,-0.1918,-0.2285,-0.2633,-0.3164,-0.3538,-0.3917,-0.4073,-0.4309,-0.4384,-0.4538,-0.467,-0.5103,-0.5411,-0.5673,-0.5982,-0.594,-0.6094,-0.6346,-0.6745,-0.7129,-0.7623,-0.7947,-0.8176,-0.8498,-0.8576,-0.8601,-0.8732,-0.9054,-0.9368,-0.9732,-1.0146,-1.0514,-1.0871,-1.1276,-1.1728,-1.2175,-1.2706,-1.319,-1.3621,-1.3894,-1.3894,-1.3752,0.8937,0.8937,0.8937,0.8937,0.8937,0.8937,0.8937,0.8937,0.8937,0.8937,0.8937,0.8937,0.8937,0.8849,0.8642,0.8482,0.8448,0.818,0.8038,0.8038,0.8038,0.8038,0.8038,0.8038,0.8038,0.8038,0.8038,0.8038,0.8038,0.8038,0.8038,0.8038,0.8038,0.8038,0.8038,0.8038,0.8038,0.8035,0.7918,0.7922,0.7925,0.7918,0.7922,0.7898,0.7848,0.7794,0.7865,0.7804,0.7723,0.7662,0.758,0.7372,0.7106,0.6747,0.6299,0.5916,0.5275,0.4654,0.403,0.3496,0.2869,0.2244,0.1705,0.1256,0.0897,0.0718,0.0359,-0.0,-0.0,-0.0,-0.0,-0.0,-0.1467,-0.1688,-0.1899,-0.2258,-0.2612,-0.2987,-0.3136,-0.3294,-0.3372,-0.3524,-0.3677,-0.3803,-0.3993,-0.4254,-0.4571,-0.4833,-0.5145,-0.5446,-0.5752,-0.6218,-0.6679,-0.7181,-0.754,-0.7856,-0.8155,-0.8469,-0.8539,-0.8596,-0.8798,-0.9166,-0.948,-0.9792,-1.0154,-1.0565,-1.1116,-1.1569,-1.1918,-1.2215,-1.2559,-1.3035,-1.3515,-1.3467,-1.3276,0.8937,0.8937,0.8937,0.8937,0.8937,0.8937,0.8937,0.8937,0.8937,0.8937,0.8937,0.8937,0.8937,0.8879,0.8625,0.8499,0.8438,0.8187,0.8082,0.8041,0.8038,0.8038,0.8038,0.8038,0.8038,0.8038,0.8038,0.8038,0.8038,0.8038,0.8038,0.8038,0.8038,0.8038,0.8038,0.8038,0.8038,0.8038,0.8038,0.8038,0.8038,0.8038,0.8038,0.8024,0.8007,0.7997,0.7991,0.7974,0.7913,0.7855,0.779,0.7617,0.7389,0.6917,0.6548,0.6025,0.5366,0.4652,0.403,0.3494,0.2959,0.2333,0.1795,0.1525,0.1166,0.0718,0.0269,-0.0,-0.0,-0.0,-0.0,-0.0,-0.1214,-0.1357,-0.1493,-0.1784,-0.2063,-0.2282,-0.2356,-0.2511,-0.2589,-0.2666,-0.2902,-0.3039,-0.316,-0.335,-0.3687,-0.4084,-0.4441,-0.4906,-0.5289,-0.5752,-0.6214,-0.6745,-0.7159,-0.7535,-0.7894,-0.819,-0.8344,-0.8422,-0.8682,-0.8857,-0.9218,-0.9524,-0.9844,-1.0249,-1.082,-1.1226,-1.1528,-1.1819,-1.2058,-1.2412,-1.289,-1.29,-1.2803,0.8937,0.8937,0.8937,0.8937,0.8937,0.8937,0.8937,0.8937,0.8937,0.8937,0.8937,0.8937,0.8937,0.8916,0.8733,0.8594,0.8445,0.8296,0.815,0.8082,0.8038,0.8038,0.8038,0.8038,0.8038,0.8038,0.8038,0.8038,0.8038,0.8038,0.8038,0.8038,0.8038,0.8038,0.8038,0.8038,0.8038,0.8038,0.8038,0.8038,0.8038,0.8038,0.8038,0.8038,0.8038,0.8038,0.8038,0.8038,0.7991,0.7977,0.7865,0.7706,0.7567,0.7063,0.6488,0.5654,0.5188,0.4741,0.4208,0.3764,0.3138,0.2512,0.2064,0.1795,0.1346,0.0897,0.0359,-0.0,-0.0,-0.0,-0.0,-0.0,-0.0,-0.1117,-0.126,-0.1478,-0.1688,-0.1896,-0.197,-0.2042,-0.2042,-0.212,-0.2277,-0.2352,-0.2549,-0.2604,-0.2812,-0.3237,-0.3712,-0.4188,-0.4761,-0.5289,-0.5752,-0.628,-0.688,-0.7345,-0.7629,-0.7898,-0.8097,-0.8211,-0.8323,-0.8526,-0.8864,-0.9211,-0.9577,-1.0051,-1.0565,-1.0871,-1.1065,-1.1267,-1.1469,-1.1868,-1.2175,-1.2224,-1.2126,0.8937,0.8937,0.8937,0.8937,0.8937,0.8937,0.8937,0.8937,0.8937,0.8937,0.8937,0.8937,0.8937,0.8913,0.8774,0.8625,0.8472,0.8326,0.818,0.8065,0.8038,0.8038,0.8038,0.8038,0.8038,0.8038,0.8038,0.8038,0.8038,0.8038,0.8038,0.8038,0.8038,0.8038,0.8038,0.8038,0.8038,0.8038,0.8038,0.8038,0.8038,0.8038,0.8038,0.8038,0.8038,0.8038,0.8038,0.8038,0.8038,0.8038,0.7926,0.7801,0.7611,0.6945,0.6364,0.5727,0.5369,0.4921,0.4478,0.3941,0.3317,0.2781,0.2333,0.1885,0.1436,0.0987,0.0449,-0.0,-0.0,-0.0,-0.0,-0.0,-0.0,-0.0785,-0.0938,-0.1167,-0.1304,-0.1514,-0.1581,-0.1653,-0.165,-0.165,-0.1729,-0.1805,-0.1934,-0.2083,-0.2239,-0.2544,-0.3033,-0.3574,-0.4159,-0.4694,-0.5226,-0.5752,-0.642,-0.7021,-0.738,-0.7624,-0.7903,-0.8023,-0.8025,-0.817,-0.8493,-0.8949,-0.9368,-0.9784,-1.0198,-1.0352,-1.0557,-1.0761,-1.0913,-1.1116,-1.1368,-1.1569,-1.1418,0.8937,0.8937,0.8937,0.8937,0.8937,0.8937,0.8937,0.8937,0.8937,0.8937,0.8937,0.8937,0.8937,0.8913,0.8811,0.8652,0.8506,0.8364,0.8211,0.8048,0.8038,0.8038,0.8038,0.8038,0.8038,0.8038,0.8038,0.8038,0.8038,0.8038,0.8038,0.8038,0.8038,0.8038,0.8038,0.8038,0.8038,0.8038,0.8038,0.8038,0.8038,0.8038,0.8038,0.8038,0.8038,0.8038,0.8038,0.8038,0.8038,0.8038,0.8001,0.7882,0.7422,0.6907,0.6418,0.5994,0.5547,0.5191,0.4746,0.4208,0.3582,0.3047,0.2511,0.2063,0.1615,0.1166,0.0718,0.0269,-0.0,-0.0,-0.0,-0.0,-0.0,-0.0,-0.0515,-0.0757,-0.1073,-0.1208,-0.1183,-0.1179,-0.1179,-0.1258,-0.1258,-0.1334,-0.163,-0.1714,-0.174,-0.199,-0.2427,-0.2976,-0.3558,-0.4164,-0.4827,-0.5425,-0.6009,-0.6616,-0.7067,-0.7351,-0.7628,-0.7799,-0.7852,-0.7948,-0.8115,-0.8633,-0.9106,-0.9354,-0.9718,-0.988,-1.0095,-1.0249,-1.0403,-1.0403,-1.0557,-1.0753,-1.0761,0.8937,0.8937,0.8937,0.8937,0.8937,0.8937,0.8937,0.8937,0.8937,0.8937,0.8937,0.8937,0.8937,0.8923,0.8893,0.8743,0.8523,0.832,0.8163,0.8019,0.8048,0.8038,0.8038,0.8038,0.8038,0.8038,0.8038,0.8038,0.8038,0.8038,0.8038,0.8038,0.8038,0.8038,0.8038,0.8038,0.8038,0.8038,0.8035,0.8038,0.8041,0.8038,0.8038,0.8038,0.8038,0.8038,0.8038,0.8038,0.8038,0.8038,0.8038,0.7778,0.7325,0.6955,0.6548,0.6195,0.5819,0.5366,0.4924,0.4478,0.3851,0.3314,0.2868,0.2332,0.1884,0.1436,0.1076,0.0628,-0.0,-0.0,-0.0,-0.0,-0.0,-0.0,-0.0086,-0.0424,-0.075,-0.0729,-0.0788,-0.0786,-0.0786,-0.0786,-0.0864,-0.1015,-0.1234,-0.1361,-0.1252,-0.1439,-0.196,-0.2526,-0.3027,-0.3692,-0.4498,-0.5093,-0.569,-0.6268,-0.6729,-0.7103,-0.7389,-0.7575,-0.7665,-0.7775,-0.7949,-0.8427,-0.8844,-0.9047,-0.9249,-0.9406,-0.9621,-0.9784,-0.9836,-0.9836,-0.9725,-0.9821,-0.9991,0.8937,0.8937,0.8937,0.8937,0.8937,0.8937,0.8937,0.8937,0.8937,0.8937,0.8937,0.8937,0.8937,0.8937,0.8937,0.8828,0.8591,0.8397,0.8243,0.8194,0.8072,0.8041,0.8038,0.8038,0.8038,0.8038,0.8038,0.8038,0.8038,0.8038,0.8038,0.8038,0.8038,0.8038,0.8038,0.8038,0.8038,0.8038,0.8035,0.8035,0.8137,0.8137,0.8237,0.8237,0.8131,0.8131,0.8134,0.8035,0.8035,0.8004,0.7974,0.7794,0.7482,0.7111,0.68,0.6352,0.5944,0.5544,0.5102,0.4654,0.4121,0.3673,0.3045,0.2599,0.242,0.1973,0.1436,0.1076,0.0897,-0.0,-0.0,-0.0,-0.0,-0.0,0.0086,-0.0168,-0.0327,-0.0319,-0.0314,-0.0314,-0.0314,-0.0314,-0.0393,-0.0393,-0.0697,-0.1062,-0.1037,-0.123,-0.1692,-0.2068,-0.258,-0.3155,-0.3959,-0.4631,-0.5163,-0.5815,-0.6449,-0.6817,-0.7154,-0.733,-0.7485,-0.7605,-0.7836,-0.8103,-0.8374,-0.8586,-0.8791,-0.8942,-0.9106,-0.9218,-0.9263,-0.9204,-0.9099,-0.8995,-0.9047,0.8916,0.8937,0.8937,0.8937,0.8937,0.8937,0.8937,0.8937,0.8937,0.8937,0.8937,0.8937,0.8937,0.8937,0.893,0.8828,0.8716,0.8491,0.8435,0.8258,0.8136,0.8082,0.8048,0.8038,0.8038,0.8038,0.8038,0.8038,0.8038,0.8038,0.8038,0.8038,0.8038,0.8038,0.8038,0.8038,0.8038,0.8035,0.8031,0.823,0.8333,0.8435,0.863,0.8524,0.8418,0.8319,0.8326,0.823,0.8131,0.8004,0.7943,0.7865,0.7674,0.7409,0.7085,0.6715,0.6172,0.5765,0.5377,0.4832,0.4476,0.403,0.3403,0.2956,0.2778,0.242,0.1883,0.1615,0.1525,0.1256,0.0897,0.0807,0.0807,0.0712,0.043,0.0083,-0.0,-0.0,-0.0,-0.0,-0.0,-0.0,-0.0,-0.0,-0.0,-0.0,-0.0967,-0.1161,-0.1418,-0.1809,-0.2258,-0.2771,-0.3357,-0.4028,-0.4764,-0.5355,-0.6071,-0.6526,-0.6813,-0.7038,-0.7228,-0.7339,-0.743,-0.7628,-0.7895,-0.8109,-0.8262,-0.8408,-0.858,-0.8699,-0.8685,-0.862,-0.8514,-0.8355,-0.809,0.8941,0.8937,0.8937,0.8937,0.8937,0.8937,0.8937,0.8937,0.8937,0.8937,0.8937,0.8937,0.8937,0.8937,0.8937,0.8866,0.8757,0.8662,0.8482,0.8282,0.8225,0.8143,0.8075,0.8055,0.8041,0.8038,0.8038,0.8038,0.8038,0.8038,0.8038,0.8038,0.8038,0.8038,0.8038,0.8038,0.8038,0.8035,0.8028,0.8223,0.863,0.8829,0.8829,0.8825,0.8726,0.8722,0.8627,0.8428,0.8329,0.8223,0.81,0.7926,0.7838,0.7637,0.7321,0.6993,0.6441,0.6085,0.5599,0.5114,0.4748,0.4389,0.3762,0.3406,0.3226,0.2867,0.242,0.2063,0.1884,0.1524,0.1345,0.1256,0.1255,0.1059,0.0773,0.0413,0.0239,0.0158,0.0079,-0.0,-0.0,-0.0,-0.0,-0.0,-0.0,-0.0,-0.0,-0.1112,-0.1233,-0.1558,-0.1932,-0.2387,-0.2902,-0.3758,-0.4628,-0.5096,-0.5679,-0.6159,-0.651,-0.6678,-0.6866,-0.6946,-0.7139,-0.7263,-0.7413,-0.7676,-0.783,-0.7931,-0.7984,-0.8096,-0.809,-0.8031,-0.7877,-0.7717,-0.7503]},{"header":{"parameterUnit":"m.s-1","parameterCategory":1,"la1":31.0,"la2":29.5877,"lo1":-88.7671,"lo2":-86.6584,"dy":0.0162,"dx":0.0185,"nx":115,"ny":88,"refTime":"2023-08-26T06:00:00:Z","depth":0,"parameterNumber":3,"parameterNumberName":"V-component_of_WINDS"},"data":[0.0,0.0,0.0,0.0,0.0,0.0,0.0,0.0,0.0,0.0,0.0,0.0,0.0,0.0,0.0,0.0,0.0,0.0,0.0,0.0,0.0,0.0,0.0,0.0,0.0,0.0,0.0,0.0,0.0,0.0,0.0,0.0,0.0,0.0,0.0,0.0,0.0,0.0,0.0,0.0,0.0,0.0,0.0,0.0,0.0,0.0,0.0,0.0,0.0,0.0,0.0,0.0,0.0,0.0,0.0,0.0,0.0,0.0,0.0,0.0,0.0,0.0,0.0,0.0,0.0,0.0,0.0,0.0,0.0,0.0,0.0,0.0,0.0,0.0,0.0,0.0,0.0,0.0,0.0,0.0,0.0,0.0,0.0,0.0,0.0,0.0,0.0,0.0,0.0,0.0,0.0,0.0,0.0,0.0,0.0,0.0,0.0,0.0,0.0,0.0,0.0,0.0,0.0,0.0,0.0,0.0,0.0,0.0,0.0,0.0,0.0,0.0,0.0,0.0,0.0,0.0,0.0,0.0,0.0,0.0,0.0,0.0,0.0,0.0,0.0,0.0,0.0,0.0,0.0,0.0,0.0,0.0,0.0,0.0,0.0,0.0,0.0,0.0,0.0,0.0,0.0,0.0,0.0,0.0,0.0,0.0,0.0,0.0,0.0,0.0,0.0,0.0,0.0,0.0,0.0,0.0,0.0,0.0,0.0,0.0,0.0,0.0,0.0,0.0,0.0,0.0,0.0,0.0,0.0,0.0,0.0,0.0,0.0,0.0,0.0,0.0,0.0,0.0,0.0,0.0,0.0,0.0,0.0,0.0,0.0,0.0,0.0,0.0,0.0,0.0,0.0,0.0,0.0,0.0,0.0,0.0,0.0,0.0,0.0,0.0,0.0,0.0,0.0,0.0,0.0,0.0,0.0,0.0,0.0,0.0,0.0,0.0,0.0,0.0,0.0,0.0,0.0,0.0,0.0,0.0,0.0,0.0,0.0,0.0,0.0,0.0,0.0,0.0,0.0,0.0,0.0,0.0,0.0,0.0,0.0,0.0,0.0,0.0,0.0,0.0,0.0,0.0,0.0,0.0,0.0,0.0,0.0,0.0,0.0,0.0,0.0,0.0,0.0,0.0,0.0,0.0,0.0,0.0,0.0,0.0,0.0,0.0,0.0,0.0,0.0,0.0,0.0,0.0,0.0,0.0,0.0,0.0,0.0,0.0,0.0,0.0,0.0,0.0,0.0,0.0,0.0,0.0,0.0,0.0,0.0,0.0,0.0,0.0,0.0,0.0,0.0,0.0,0.0,0.0,0.0,0.0,0.0,0.0,0.0,0.0,0.0,0.0,0.0,0.0,0.0,0.0,0.0,0.0,0.0,0.0,0.0,0.0,0.0,0.0,0.0,0.0,0.0,0.0,0.0,0.0,0.0,0.0,0.0,0.0,0.0,0.0,0.0,0.0,0.0,0.0,0.0,0.0,0.0,0.0,0.0,0.0,0.0,0.0,0.0,0.0,0.0,0.0,0.0,0.0,0.0,0.0,0.0,0.0,0.0,0.0,0.0,0.0,0.0,0.0,0.0,0.0,0.0,0.0,0.0,0.0,0.0,0.0,0.0,0.0,0.0,0.0,0.0,0.0,0.0,0.0,0.0,0.0,0.0,0.0,0.0,0.0,0.0,0.0,0.0,0.0,0.0,0.0,0.0,0.0,0.0,0.0,0.0,0.0,0.0,0.0,0.0,0.0,0.0,0.0,0.0,0.0,0.0,0.0,0.0,0.0,0.0,0.0,0.0,0.0,0.0,0.0,0.0,0.0,0.0,0.0,0.0,0.0,0.0,0.0,0.0,0.0,0.0,0.0,0.0,0.0,0.0,0.0,0.0,0.0,0.0,0.0,0.0,0.0,0.0,0.0,0.0,0.0,0.0,0.0,0.0,0.0,0.0,0.0,0.0,0.0,0.0,0.0,0.0,0.0,0.0,0.0,0.0,0.0,0.0,0.0,0.0,0.0,0.0,0.0,0.0,0.0,0.0,0.0,0.0,0.0,0.0,0.0,0.0,0.0,0.0,0.0,0.0,0.0,0.0,0.0,0.0,0.0,0.0,0.0,0.0,0.0,0.0,0.0,0.0,0.0,0.0,0.0,0.0,0.0,0.0,0.0,0.0,0.0,0.0,0.0,0.0,0.0,0.0,0.0,0.0,0.0,0.0,0.0,0.0,0.0,0.0,0.0,0.0,0.0,0.0,0.0,0.0,0.0,0.0,0.0,0.0,0.0,0.0,0.0,0.0,0.0,0.0,0.0,0.0,0.0,0.0,0.0,0.0,0.0,0.0,0.0,0.0,0.0,0.0,0.0,0.0,0.0,0.0,0.0,0.0,0.0,0.0,0.0,0.0,0.0,0.0,0.0,0.0,0.0,0.0,0.0,0.0,0.0,0.0,0.0,0.0,0.0,0.0,0.0,0.0,0.0,0.0,0.0,0.0,0.0,0.0,0.0,0.0,0.0,0.0,0.0,0.0,0.0,0.0,0.0,0.0,0.0,0.0,0.0,0.0,0.0,0.0,0.0,0.0,0.0,0.0,0.0,0.0,0.0,0.0,0.0,0.0,0.0,0.0,0.0,0.0,0.0,0.0,0.0,0.0,0.0,0.0,0.0,0.0,0.0,0.0,0.0,0.0,0.0,0.0,0.0,0.0,0.0,0.0,0.0,0.0,0.0,0.0,0.0,0.0,0.0,0.0,0.0,0.0,0.0,0.0,0.0,0.0,0.0,0.0,0.0,0.0,0.0,0.0,0.0,0.0,0.0,0.0,0.0,0.0,0.0,0.0,0.0,0.0,0.0,0.0,0.0,0.0,0.0,0.0,0.0,0.0,0.0,0.0,0.0,0.0,0.0,0.0,0.0,0.0,0.0,0.0,0.0,0.0,0.0,0.0,0.0,0.0,0.0,0.0,0.0,0.0,0.0,0.0,0.0,0.0,0.0,0.0,0.0,0.0,0.0,0.0,0.0,0.0,0.0,0.0,0.0,0.0,0.0,0.0,0.0,0.0,0.0,0.0,0.0,0.0,0.0,0.0,0.0,0.0,0.0,0.0,0.0,0.0,0.0,0.0,0.0,0.0,0.0,0.0,0.0,0.0,0.0,0.0,0.0,0.0,0.0,0.0,0.0,0.0,0.0,0.0,0.0,0.0,0.0,0.0,0.0,0.0,0.0,0.0,0.0,0.0,0.0,0.0,0.0,0.0,0.0,0.0,0.0,0.0,0.0,0.0,0.0,0.0,0.0,0.0,0.0,0.0,0.0,0.0,0.0,0.0,0.0,0.0,0.0,0.0,0.0,0.0,0.0,0.0,0.0,0.0,0.0,0.0,0.0,0.0,0.0,0.0,0.0,0.0,0.0,0.0,0.0,0.0,0.0,0.0,0.0,0.0,0.0,0.0,0.0,0.0,0.0,0.0,0.0,0.0,0.0,0.0,0.0,0.0,0.0,0.0,0.0,0.0,0.0,0.0,0.0,0.0,0.0,0.0,0.0,0.0,0.0,0.0,0.0,0.0,0.0,0.0,0.0,0.0,0.0,0.0,0.0,0.0,0.0,0.0,0.0,0.0,0.0,0.0,0.0,0.0,0.0,0.0,0.0,0.0,0.0,0.0,0.0,0.0,0.0,0.0,0.0,0.0,0.0,0.0,0.0,0.0,0.0,0.0,0.0,0.0,0.0,0.0,0.0,0.0,0.0,0.0,0.0,0.0,0.0,0.0,0.0,0.0,0.0,0.0,0.0,0.0,0.0,0.0,0.0,0.0,0.0,0.0,0.0,0.0,0.0,0.0,0.0,0.0,0.0,0.0,0.0,0.0,0.0,0.0,0.0,0.0,0.0,0.0,0.0,0.0,0.0,0.0,0.0,0.0,0.0,0.0,0.0,0.0,0.0,0.0,0.0,0.0,0.0,0.0,0.0,0.0,0.0,0.0,0.0,0.0,0.0,0.0,0.0,0.0,0.0,0.0,0.0,0.0,0.0,0.0,0.0,0.0,0.0,0.0,0.0,0.0,0.0,0.0,0.0,0.0,0.0,0.0,0.0,0.0,0.0,0.0,0.0,0.0,0.0,0.0,0.0,0.0,0.0,0.0,0.0,0.0,0.0,0.0,0.0,0.0,0.0,0.0,0.0,0.0,0.0,0.0,0.0,0.0,0.0,0.0,0.0,0.0,0.0,0.0,0.0,0.0,0.0,0.0,0.0,0.0,0.0,0.0,0.0,0.0,0.0,0.0,0.0,0.0,0.0,-0.7597,0.0,0.0,0.0,0.0,0.0,0.0,0.0,0.0,0.0,0.0,0.0,0.0,0.0,0.0,0.0,0.0,0.0,0.0,0.0,0.0,0.0,0.0,0.0,0.0,0.0,0.0,0.0,0.0,0.0,0.0,0.0,0.0,0.0,0.0,0.0,0.0,0.0,0.0,0.0,0.0,0.0,0.0,0.0,0.0,0.0,0.0,0.0,0.0,0.0,0.0,0.0,0.0,0.0,0.0,0.0,0.0,0.0,0.0,0.0,0.0,0.0,0.0,0.0,0.0,0.0,0.0,0.0,0.0,0.0,0.0,0.0,0.0,0.0,0.0,0.0,0.0,0.0,0.0,0.0,0.0,0.0,0.0,0.0,0.0,0.0,0.0,0.0,0.0,0.0,0.0,0.0,0.0,0.0,0.0,0.0,0.0,0.0,0.0,0.0,0.0,0.0,0.0,0.0,0.0,0.0,0.0,0.0,0.0,0.0,0.0,-0.8717,-0.8753,-0.8689,-0.8488,-0.8136,0.0,0.0,0.0,0.0,0.0,0.0,0.0,0.0,0.0,0.0,0.0,0.0,0.0,0.0,0.0,0.0,0.0,0.0,0.0,0.0,0.0,0.0,0.0,0.0,0.0,0.0,0.0,0.0,0.0,0.0,0.0,0.0,0.0,0.0,0.0,0.0,0.0,0.0,0.0,0.0,0.0,0.0,0.0,0.0,0.0,0.0,0.0,0.0,0.0,0.0,0.0,0.0,0.0,0.0,0.0,0.0,0.0,0.0,0.0,0.0,0.0,0.0,0.0,0.0,0.0,0.0,0.0,0.0,0.0,0.0,0.0,0.0,0.0,0.0,0.0,0.0,0.0,0.0,0.0,0.0,0.0,0.0,0.0,0.0,0.0,0.0,0.0,0.0,0.0,0.0,0.0,0.0,0.0,0.0,0.0,0.0,0.0,0.0,0.0,0.0,0.0,0.0,0.0,0.0,0.0,0.0,0.0,0.0,0.0,0.0,0.0,0.0,-0.8513,-0.842,-0.8246,0.0,0.0,0.0,0.0,0.0,0.0,0.0,0.0,0.0,0.0,0.0,0.0,0.0,0.0,0.0,0.0,0.0,0.0,0.0,0.0,0.0,0.0,0.0,0.0,0.0,0.0,0.0,0.0,0.0,0.0,0.0,0.0,0.0,0.0,0.0,0.0,0.0,0.0,0.0,0.0,0.0,0.0,0.0,0.0,0.0,0.0,0.0,0.0,0.0,0.0,0.0,0.0,0.0,0.0,0.0,0.0,0.0,0.0,0.0,0.0,0.0,0.0,0.0,0.0,0.0,0.0,0.0,0.0,0.0,0.0,0.0,0.0,0.0,0.0,0.0,0.0,0.0,0.0,0.0,0.0,0.0,0.0,0.0,0.0,0.0,0.0,0.0,0.0,0.0,0.0,0.0,0.0,0.0,0.0,0.0,0.0,0.0,0.0,0.0,0.0,0.0,0.0,0.0,0.0,0.0,0.0,0.0,0.0,0.0,0.0,-0.8571,-0.8513,-0.8467,0.0,-0.76,0.0,0.0,0.0,0.0,0.0,0.0,0.0,0.0,0.0,0.0,0.0,0.0,0.0,0.0,0.0,0.0,0.0,0.0,0.0,0.0,0.0,0.0,0.0,0.0,0.0,0.0,0.0,0.0,0.0,0.0,0.0,0.0,0.0,0.0,0.0,0.0,0.0,0.0,0.0,0.0,0.0,0.0,0.0,0.0,0.0,0.0,0.0,0.0,0.0,0.0,0.0,0.0,0.0,0.0,0.0,0.0,0.0,0.0,0.0,0.0,0.0,0.0,0.0,0.0,0.0,0.0,0.0,0.0,0.0,0.0,0.0,0.0,0.0,0.0,0.0,0.0,0.0,0.0,0.0,0.0,0.0,0.0,0.0,0.0,0.0,0.0,0.0,0.0,0.0,0.0,0.0,0.0,0.0,0.0,0.0,0.0,0.0,0.0,0.0,0.0,0.0,0.0,0.0,0.0,0.0,0.0,0.0,0.0,0.0,0.0,-0.8816,-0.9132,-0.9053,-0.8511,0.0,0.0,0.0,0.0,0.0,0.0,0.0,0.0,0.0,0.0,0.0,0.0,0.0,0.0,0.0,0.0,0.0,0.0,0.0,0.0,0.0,0.0,0.0,0.0,0.0,0.0,0.0,0.0,0.0,0.0,0.0,0.0,0.0,0.0,0.0,0.0,0.0,0.0,0.0,0.0,0.0,0.0,0.0,0.0,0.0,0.0,0.0,0.0,0.0,0.0,0.0,0.0,0.0,0.0,0.0,0.0,0.0,0.0,0.0,0.0,0.0,0.0,0.0,0.0,0.0,0.0,0.0,0.0,0.0,0.0,0.0,0.0,0.0,0.0,0.0,0.0,0.0,0.0,0.0,0.0,0.0,0.0,0.0,0.0,0.0,0.0,0.0,0.0,0.0,0.0,0.0,0.0,0.0,0.0,0.0,0.0,0.0,0.0,0.0,0.0,0.0,0.0,0.0,0.0,0.0,0.0,0.0,0.0,0.0,0.0,-0.9664,-0.9547,-0.989,-0.9627,-0.9005,-0.8052,0.0,0.0,0.0,0.0,0.0,0.0,0.0,0.0,0.0,0.0,0.0,0.0,0.0,0.0,0.0,0.0,0.0,0.0,0.0,0.0,0.0,0.0,0.0,0.0,0.0,0.0,0.0,0.0,0.0,0.0,0.0,0.0,0.0,0.0,0.0,0.0,0.0,0.0,0.0,0.0,0.0,0.0,0.0,0.0,0.0,0.0,0.0,0.0,0.0,0.0,0.0,0.0,0.0,0.0,0.0,0.0,0.0,0.0,0.0,0.0,0.0,0.0,0.0,0.0,0.0,0.0,0.0,0.0,0.0,0.0,0.0,0.0,0.0,0.0,0.0,0.0,0.0,0.0,0.0,0.0,0.0,0.0,0.0,0.0,0.0,0.0,0.0,0.0,0.0,0.0,0.0,0.0,0.0,0.0,0.0,0.0,0.0,0.0,0.0,0.0,0.0,0.0,0.0,0.0,0.0,0.0,0.0,0.0,-1.1136,-1.1032,-1.0915,-1.0713,-1.0002,-0.9614,0.0,0.0,0.0,0.0,0.0,0.0,0.0,0.0,0.0,0.0,0.0,0.0,0.0,0.0,0.0,0.0,0.0,0.0,0.0,0.0,0.0,0.0,0.0,0.0,0.0,0.0,0.0,0.0,0.0,0.0,0.0,0.0,0.0,0.0,0.0,0.0,0.0,0.0,0.0,0.0,0.0,0.0,0.0,0.0,0.0,0.0,0.0,0.0,0.0,0.0,0.0,0.0,0.0,0.0,0.0,0.0,0.0,0.0,0.0,0.0,0.0,0.0,0.0,0.0,0.0,0.0,0.0,0.0,0.0,0.0,0.0,0.0,0.0,0.0,0.0,0.0,0.0,0.0,0.0,0.0,0.0,0.0,0.0,0.0,0.0,0.0,0.0,0.0,0.0,0.0,0.0,0.0,0.0,0.0,0.0,0.0,0.0,0.0,0.0,0.0,0.0,0.0,0.0,0.0,0.0,0.0,0.0,0.0,0.0,-1.2116,-1.1941,-1.1498,-1.0885,-1.0557,-1.0156,0.0,0.0,0.0,0.0,0.0,0.0,0.0,0.0,0.0,0.0,0.0,0.0,0.0,0.0,0.0,0.0,0.0,0.0,0.0,0.0,0.0,0.0,0.0,0.0,0.0,0.0,0.0,0.0,0.0,0.0,0.0,0.0,0.0,0.0,0.0,0.0,0.0,0.0,0.0,0.0,0.0,0.0,0.0,0.0,0.0,0.0,0.0,0.0,0.0,0.0,0.0,0.0,0.0,0.0,0.0,0.0,0.0,0.0,0.0,0.0,0.0,0.0,0.0,0.0,0.0,0.0,0.0,0.0,0.0,0.0,0.0,0.0,0.0,0.0,0.0,0.0,0.0,0.0,0.0,0.0,0.0,0.0,0.0,0.0,0.0,0.0,0.0,0.0,0.0,0.0,0.0,0.0,0.0,0.0,0.0,0.0,0.0,0.0,0.0,0.0,0.0,0.0,0.0,0.0,0.0,0.0,0.0,0.0,0.0,-1.2705,0.0,-1.1618,-1.0993,-1.0667,-1.0266,0.0,0.0,0.0,0.0,0.0,0.0,0.0,0.0,0.0,0.0,0.0,0.0,0.0,0.0,0.0,0.0,0.0,0.0,0.0,0.0,0.0,0.0,0.0,0.0,0.0,0.0,0.0,0.0,0.0,0.0,0.0,0.0,0.0,0.0,0.0,0.0,0.0,0.0,0.0,0.0,0.0,0.0,0.0,0.0,0.0,0.0,0.0,0.0,0.0,0.0,0.0,0.0,0.0,0.0,0.0,0.0,0.0,0.0,0.0,0.0,0.0,0.0,0.0,0.0,0.0,0.0,0.0,0.0,0.0,0.0,0.0,0.0,0.0,0.0,0.0,0.0,0.0,0.0,0.0,0.0,0.0,0.0,0.0,0.0,0.0,0.0,0.0,0.0,0.0,0.0,0.0,0.0,0.0,0.0,0.0,0.0,0.0,0.0,0.0,0.0,0.0,0.0,0.0,0.0,0.0,0.0,0.0,0.0,-1.3623,-1.2819,-1.1915,-1.133,-1.1083,-1.0369,-0.9949,0.0,0.0,0.0,0.0,0.0,0.0,0.0,0.0,0.0,0.0,0.0,0.0,0.0,0.0,0.0,0.0,0.0,0.0,0.0,0.0,0.0,0.0,0.0,0.0,0.0,0.0,0.0,0.0,0.0,0.0,0.0,0.0,0.0,0.0,0.0,0.0,0.0,0.0,0.0,0.0,0.0,0.0,0.0,0.0,0.0,0.0,0.0,0.0,0.0,0.0,0.0,0.0,0.0,0.0,0.0,0.0,0.0,0.0,0.0,0.0,0.0,0.0,0.0,0.0,0.0,0.0,0.0,0.0,0.0,0.0,0.0,0.0,0.0,0.0,0.0,0.0,0.0,0.0,0.0,0.0,0.0,0.0,0.0,0.0,0.0,0.0,0.0,0.0,0.0,0.0,0.0,0.0,0.0,0.0,0.0,0.0,0.0,0.0,0.0,0.0,0.0,0.0,0.0,0.0,0.0,0.0,0.0,0.0,0.0,-1.3038,-1.2121,-1.1509,-1.1315,-1.1076,-1.0906,0.0,0.0,0.0,0.0,0.0,0.0,0.0,0.0,0.0,0.0,0.0,0.0,0.0,0.0,0.0,0.0,0.0,0.0,0.0,0.0,0.0,0.0,0.0,0.0,0.0,0.0,0.0,0.0,0.0,0.0,0.0,0.0,0.0,0.0,0.0,0.0,0.0,0.0,0.0,0.0,0.0,0.0,0.0,0.0,0.0,0.0,0.0,0.0,0.0,0.0,0.0,0.0,0.0,0.0,0.0,0.0,0.0,0.0,0.0,0.0,0.0,0.0,0.0,0.0,0.0,0.0,0.0,0.0,0.0,0.0,0.0,0.0,0.0,0.0,0.0,0.0,0.0,0.0,0.0,0.0,0.0,0.0,0.0,0.0,0.0,0.0,0.0,0.0,0.0,0.0,0.0,0.0,0.0,0.0,0.0,0.0,0.0,0.0,0.0,0.0,0.0,0.0,0.0,0.0,0.0,0.0,0.0,0.0,0.0,-1.2446,-1.1479,-1.0893,-1.0725,-1.0996,-1.1093,-1.0968,0.0,0.0,0.0,0.0,0.0,0.0,0.0,0.0,0.0,0.0,0.0,0.0,0.0,0.0,0.0,0.0,0.0,0.0,0.0,0.0,0.0,0.0,0.0,0.0,0.0,0.0,0.0,0.0,0.0,0.0,0.0,0.0,0.0,0.0,0.0,0.0,0.0,0.0,0.0,0.0,0.0,0.0,0.0,0.0,0.0,0.0,0.0,0.0,0.0,0.0,0.0,0.0,0.0,0.0,0.0,0.0,0.0,0.0,0.0,0.0,0.0,0.0,0.0,0.0,0.0,0.0,0.0,0.0,0.0,0.0,0.0,0.0,0.0,0.0,0.0,0.0,0.0,0.0,0.0,0.0,0.0,0.0,0.0,0.0,0.0,0.0,0.0,0.0,0.0,0.0,0.0,0.0,0.0,0.0,0.0,0.0,0.0,0.0,0.0,0.0,0.0,0.0,0.0,0.0,0.0,0.0,0.0,0.0,-1.1449,-1.0408,-0.9856,-0.9736,-1.0422,-1.0773,0.0,0.0,0.0,0.0,0.0,0.0,0.0,0.0,0.0,0.0,0.0,0.0,0.0,0.0,0.0,0.0,0.0,0.0,0.0,0.0,0.0,0.0,0.0,0.0,0.0,0.0,0.0,0.0,0.0,0.0,0.0,0.0,0.0,0.0,0.0,0.0,0.0,0.0,0.0,0.0,0.0,0.0,0.0,0.0,0.0,0.0,0.0,0.0,0.0,0.0,0.0,0.0,0.0,0.0,0.0,0.0,0.0,0.0,0.0,0.0,0.0,0.0,0.0,0.0,0.0,0.0,0.0,0.0,0.0,0.0,0.0,0.0,0.0,0.0,0.0,0.0,0.0,0.0,0.0,0.0,0.0,0.0,0.0,0.0,0.0,0.0,0.0,0.0,0.0,0.0,0.0,0.0,0.0,0.0,0.0,0.0,0.0,0.0,0.0,0.0,0.0,0.0,0.0,0.0,0.0,0.0,0.0,0.0,0.0,-1.3185,-1.2371,-1.1536,-1.076,-1.1427,-1.2084,0.0,0.0,0.0,0.0,0.0,0.0,0.0,0.0,0.0,0.0,0.0,0.0,0.0,0.0,0.0,0.0,0.0,0.0,0.0,0.0,0.0,0.0,0.0,0.0,0.0,0.0,0.0,0.0,0.0,0.0,0.0,0.0,0.0,0.0,0.0,0.0,0.0,0.0,0.0,0.0,0.0,0.0,0.0,0.0,0.0,0.0,0.0,0.0,0.0,0.0,0.0,0.0,0.0,0.0,0.0,0.0,0.0,0.0,0.0,0.0,0.0,0.0,0.0,0.0,0.0,0.0,0.0,0.0,0.0,0.0,0.0,0.0,0.0,0.0,0.0,0.0,0.0,0.0,0.0,0.0,0.0,0.0,0.0,0.0,0.0,0.0,0.0,0.0,0.0,0.0,0.0,0.0,0.0,0.0,0.0,0.0,0.0,0.0,0.0,0.0,0.0,0.0,0.0,0.0,0.0,0.0,0.0,0.0,-1.3758,-1.3446,-1.2986,-1.261,-1.2324,-1.2681,-1.307,0.0,0.0,0.0,0.0,0.0,0.0,0.0,0.0,0.0,0.0,0.0,0.0,0.0,0.0,0.0,0.0,0.0,0.0,0.0,0.0,0.0,0.0,0.0,0.0,0.0,0.0,0.0,0.0,0.0,0.0,0.0,0.0,0.0,0.0,0.0,0.0,0.0,0.0,0.0,0.0,0.0,0.0,0.0,0.0,0.0,0.0,0.0,0.0,0.0,0.0,0.0,0.0,0.0,0.0,0.0,0.0,0.0,0.0,0.0,0.0,0.0,0.0,0.0,0.0,0.0,0.0,0.0,0.0,0.0,0.0,0.0,0.0,0.0,0.0,0.0,0.0,0.0,0.0,0.0,0.0,0.0,0.0,0.0,0.0,0.0,0.0,0.0,0.0,0.0,0.0,0.0,0.0,0.0,0.0,0.0,0.0,0.0,0.0,0.0,0.0,0.0,0.0,0.0,0.0,0.0,0.0,0.0,0.0,-1.3797,-1.3106,-1.3072,-1.3409,-1.4101,-1.3917,-1.3783,0.0,0.0,0.0,0.0,0.0,0.0,0.0,0.0,0.0,0.0,0.0,0.0,0.0,0.0,0.0,0.0,0.0,0.0,0.0,0.0,0.0,0.0,0.0,0.0,0.0,0.0,0.0,0.0,0.0,0.0,0.0,0.0,0.0,0.0,0.0,0.0,0.0,0.0,0.0,0.0,0.0,0.0,0.0,0.0,0.0,0.0,0.0,0.0,0.0,0.0,0.0,0.0,0.0,0.0,0.0,0.0,0.0,0.0,0.0,0.0,0.0,0.0,0.0,0.0,0.0,0.0,0.0,0.0,0.0,0.0,0.0,0.0,0.0,0.0,0.0,0.0,0.0,0.0,0.0,0.0,0.0,0.0,0.0,0.0,0.0,0.0,0.0,0.0,0.0,0.0,0.0,0.0,0.0,0.0,0.0,0.0,0.0,0.0,0.0,0.0,0.0,0.0,0.0,0.0,0.0,0.0,0.0,0.0,-1.5031,-1.4846,-1.4844,-1.492,-1.5015,-1.428,-1.4174,0.0,0.0,0.0,0.0,0.0,0.0,0.0,0.0,0.0,0.0,0.0,0.0,0.0,0.0,0.0,0.0,0.0,0.0,0.0,0.0,0.0,0.0,0.0,0.0,0.0,0.0,0.0,0.0,0.0,0.0,0.0,0.0,0.0,0.0,0.0,0.0,0.0,0.0,0.0,0.0,0.0,0.0,0.0,0.0,0.0,0.0,0.0,0.0,-0.5114,0.0,0.0,0.0,0.0,0.0,0.0,0.0,0.0,0.0,0.0,0.0,0.0,0.0,0.0,0.0,0.0,0.0,0.0,0.0,0.0,0.0,0.0,0.0,0.0,0.0,0.0,0.0,0.0,0.0,0.0,0.0,0.0,0.0,0.0,0.0,0.0,0.0,0.0,0.0,0.0,0.0,0.0,0.0,0.0,0.0,0.0,0.0,0.0,0.0,0.0,0.0,0.0,0.0,0.0,0.0,0.0,0.0,0.0,0.0,-1.5404,-1.5416,-1.541,-1.5373,-1.5323,-1.4869,-1.4762,0.0,0.0,0.0,0.0,0.0,0.0,0.0,0.0,0.0,0.0,0.0,0.0,0.0,0.0,0.0,0.0,0.0,0.0,0.0,0.0,0.0,0.0,0.0,0.0,0.0,0.0,0.0,0.0,0.0,0.0,0.0,0.0,0.0,0.0,0.0,0.0,0.0,0.0,0.0,0.0,0.0,0.0,0.0,0.0,0.0,0.0,0.0,0.0,0.0,0.0,0.0,0.0,0.0,0.0,0.0,0.0,0.0,0.0,0.0,0.0,0.0,0.0,0.0,0.0,0.0,0.0,0.0,0.0,0.0,0.0,0.0,0.0,0.0,0.0,0.0,0.0,0.0,0.0,0.0,0.0,0.0,0.0,0.0,0.0,0.0,0.0,0.0,0.0,0.0,0.0,0.0,0.0,0.0,0.0,0.0,0.0,0.0,0.0,0.0,0.0,0.0,0.0,0.0,0.0,0.0,0.0,0.0,-1.5375,-1.5407,-1.5395,-1.5269,-1.5193,-1.519,-1.5196,-1.5154,-1.5023,0.0,0.0,0.0,0.0,0.0,0.0,0.0,0.0,0.0,0.0,0.0,0.0,0.0,0.0,0.0,0.0,0.0,0.0,0.0,0.0,0.0,0.0,0.0,0.0,0.0,0.0,0.0,0.0,0.0,0.0,0.0,0.0,0.0,0.0,0.0,0.0,0.0,0.0,-1.0152,-1.0756,0.0,0.0,0.0,0.0,0.0,0.0,0.0,0.0,-0.844,0.0,0.0,0.0,0.0,0.0,0.0,0.0,0.0,0.0,0.0,0.0,0.0,0.0,0.0,0.0,0.0,0.0,0.0,0.0,0.0,0.0,0.0,0.0,0.0,0.0,0.0,0.0,0.0,0.0,0.0,0.0,0.0,0.0,0.0,0.0,0.0,0.0,0.0,0.0,0.0,0.0,0.0,0.0,0.0,0.0,0.0,0.0,0.0,0.0,0.0,0.0,0.0,0.0,0.0,0.0,0.0,-1.5292,-1.5371,-1.5403,-1.5406,-1.4687,-1.4316,-1.4316,-1.4314,-1.43,-1.4304,0.0,0.0,0.0,0.0,0.0,0.0,0.0,0.0,0.0,0.0,0.0,0.0,0.0,0.0,0.0,0.0,0.0,0.0,0.0,0.0,0.0,0.0,0.0,0.0,0.0,0.0,0.0,0.0,0.0,0.0,0.0,0.0,0.0,0.0,0.0,0.0,0.0,0.0,0.0,-1.2162,-1.2477,0.0,0.0,0.0,0.0,0.0,0.0,0.0,0.0,-1.01,0.0,0.0,0.0,0.0,0.0,0.0,0.0,0.0,0.0,0.0,0.0,0.0,0.0,0.0,0.0,0.0,0.0,0.0,0.0,0.0,0.0,0.0,0.0,0.0,0.0,0.0,0.0,0.0,0.0,0.0,0.0,0.0,0.0,0.0,0.0,0.0,0.0,0.0,0.0,0.0,0.0,0.0,0.0,0.0,0.0,0.0,0.0,0.0,0.0,0.0,0.0,0.0,0.0,0.0,0.0,-1.5306,-1.5357,-1.5407,-1.5388,-1.455,-1.4097,-1.4095,-1.369,-1.365,0.0,0.0,0.0,0.0,0.0,0.0,0.0,0.0,0.0,0.0,0.0,0.0,0.0,0.0,0.0,0.0,0.0,0.0,0.0,0.0,0.0,0.0,0.0,0.0,0.0,0.0,0.0,0.0,0.0,0.0,0.0,0.0,0.0,0.0,0.0,0.0,0.0,0.0,0.0,0.0,-1.303,-1.322,-1.3538,0.0,0.0,0.0,0.0,0.0,0.0,-1.2106,-1.2024,0.0,0.0,0.0,0.0,0.0,0.0,0.0,0.0,0.0,0.0,0.0,0.0,0.0,0.0,0.0,0.0,0.0,0.0,0.0,0.0,0.0,0.0,0.0,0.0,0.0,0.0,0.0,0.0,0.0,0.0,0.0,0.0,0.0,0.0,0.0,0.0,0.0,0.0,0.0,0.0,0.0,0.0,0.0,0.0,0.0,0.0,0.0,0.0,0.0,0.0,0.0,0.0,0.0,0.0,0.0,-1.5313,-1.5379,-1.5407,-1.5367,-1.4394,-1.386,-1.3853,-1.3233,-1.3183,0.0,0.0,0.0,0.0,0.0,0.0,0.0,0.0,0.0,0.0,0.0,0.0,0.0,0.0,0.0,0.0,0.0,0.0,0.0,0.0,0.0,0.0,0.0,0.0,0.0,0.0,0.0,0.0,0.0,0.0,0.0,0.0,0.0,0.0,0.0,0.0,0.0,0.0,0.0,0.0,0.0,-1.3958,-1.4497,-1.4162,0.0,0.0,0.0,0.0,-1.3711,-1.386,0.0,0.0,0.0,0.0,0.0,0.0,0.0,0.0,0.0,0.0,0.0,0.0,0.0,0.0,0.0,0.0,0.0,0.0,0.0,0.0,0.0,0.0,0.0,0.0,0.0,0.0,0.0,0.0,0.0,0.0,0.0,0.0,0.0,0.0,0.0,0.0,0.0,0.0,0.0,0.0,0.0,0.0,0.0,0.0,0.0,0.0,0.0,0.0,0.0,0.0,0.0,0.0,0.0,0.0,0.0,0.0,-1.5387,-1.5396,-1.5405,-1.5343,-1.3867,-1.3044,-1.304,-1.2941,-1.2909,0.0,0.0,0.0,0.0,0.0,0.0,0.0,0.0,0.0,0.0,0.0,0.0,0.0,0.0,0.0,0.0,0.0,0.0,0.0,0.0,0.0,0.0,0.0,0.0,0.0,0.0,0.0,0.0,0.0,0.0,0.0,0.0,0.0,0.0,0.0,0.0,0.0,0.0,0.0,0.0,0.0,-1.5101,-1.5705,-1.554,-1.541,0.0,0.0,-1.5278,-1.511,-1.5188,0.0,0.0,0.0,0.0,0.0,0.0,0.0,0.0,0.0,0.0,0.0,0.0,0.0,0.0,0.0,0.0,0.0,0.0,0.0,0.0,0.0,0.0,0.0,0.0,0.0,0.0,0.0,0.0,0.0,0.0,0.0,0.0,0.0,0.0,0.0,0.0,0.0,0.0,0.0,0.0,0.0,0.0,0.0,0.0,0.0,0.0,0.0,0.0,0.0,0.0,0.0,0.0,0.0,0.0,0.0,-1.5827,-1.5423,-1.5418,-1.5415,-1.5363,-1.4199,-1.3573,-1.3588,-1.3142,-1.332,0.0,0.0,0.0,0.0,0.0,0.0,0.0,0.0,0.0,0.0,0.0,0.0,0.0,0.0,0.0,0.0,0.0,0.0,0.0,0.0,0.0,0.0,0.0,0.0,0.0,0.0,0.0,0.0,0.0,0.0,0.0,0.0,0.0,0.0,0.0,0.0,0.0,0.0,0.0,0.0,0.0,0.0,-1.6912,-1.6804,0.0,0.0,0.0,-1.6507,-1.6288,0.0,0.0,0.0,0.0,0.0,0.0,0.0,0.0,0.0,0.0,0.0,0.0,0.0,0.0,0.0,0.0,0.0,0.0,0.0,0.0,0.0,0.0,0.0,0.0,0.0,0.0,0.0,0.0,0.0,0.0,0.0,0.0,0.0,0.0,0.0,0.0,0.0,0.0,0.0,0.0,0.0,0.0,0.0,0.0,0.0,0.0,0.0,0.0,0.0,0.0,0.0,0.0,0.0,0.0,0.0,0.0,0.0,-1.5733,-1.5509,-1.5404,-1.5386,-1.457,-1.4101,-1.408,-1.3496,0.0,0.0,0.0,0.0,0.0,0.0,0.0,0.0,0.0,0.0,0.0,0.0,0.0,0.0,0.0,0.0,0.0,0.0,0.0,0.0,0.0,0.0,0.0,0.0,0.0,0.0,0.0,-1.123,0.0,0.0,0.0,0.0,0.0,0.0,0.0,0.0,0.0,0.0,0.0,0.0,0.0,0.0,-1.7229,-1.8017,-1.7915,-1.7748,0.0,0.0,-1.77,-1.7679,-1.7458,-1.7357,0.0,0.0,0.0,0.0,0.0,0.0,0.0,0.0,0.0,0.0,0.0,0.0,0.0,0.0,0.0,0.0,0.0,0.0,0.0,0.0,0.0,0.0,0.0,0.0,0.0,0.0,0.0,0.0,0.0,0.0,0.0,0.0,0.0,0.0,0.0,0.0,0.0,0.0,0.0,0.0,0.0,0.0,0.0,0.0,0.0,0.0,0.0,0.0,0.0,0.0,0.0,0.0,0.0,0.0,0.0,-1.6585,-1.5809,-1.5428,-1.5371,-1.4551,-1.4101,-1.4099,-1.4039,-1.4481,0.0,0.0,0.0,0.0,0.0,0.0,0.0,0.0,0.0,0.0,0.0,0.0,0.0,0.0,0.0,0.0,0.0,0.0,0.0,0.0,0.0,0.0,0.0,0.0,0.0,0.0,0.0,0.0,0.0,0.0,0.0,0.0,0.0,0.0,0.0,0.0,0.0,0.0,0.0,0.0,0.0,-1.8163,-1.8912,-1.8848,-1.9127,0.0,0.0,-1.8968,-1.9447,-1.8732,-1.8159,-1.8316,0.0,0.0,0.0,0.0,0.0,0.0,0.0,0.0,0.0,0.0,0.0,0.0,0.0,0.0,0.0,0.0,0.0,0.0,0.0,0.0,0.0,0.0,0.0,0.0,0.0,0.0,0.0,0.0,0.0,0.0,0.0,0.0,0.0,0.0,0.0,0.0,0.0,0.0,0.0,0.0,0.0,0.0,0.0,0.0,0.0,0.0,0.0,0.0,0.0,0.0,0.0,0.0,0.0,-1.7738,-1.6733,-1.6379,-1.5936,-1.541,-1.5059,-1.4902,-1.4896,-1.5436,-1.61,0.0,0.0,0.0,0.0,0.0,0.0,0.0,0.0,0.0,0.0,0.0,0.0,0.0,0.0,0.0,0.0,0.0,0.0,0.0,0.0,0.0,0.0,0.0,0.0,0.0,0.0,0.0,0.0,-1.1799,-1.1828,-1.2393,0.0,0.0,0.0,0.0,0.0,0.0,0.0,0.0,0.0,0.0,-1.9077,-1.9853,-2.0259,0.0,0.0,-2.0288,-1.981,-1.9781,-1.888,-1.8208,-1.8211,-1.8126,0.0,0.0,0.0,0.0,0.0,0.0,0.0,0.0,0.0,0.0,0.0,0.0,0.0,0.0,0.0,0.0,0.0,0.0,0.0,0.0,0.0,0.0,0.0,0.0,0.0,0.0,0.0,0.0,0.0,0.0,0.0,0.0,0.0,0.0,0.0,0.0,0.0,0.0,0.0,0.0,0.0,0.0,0.0,0.0,0.0,0.0,0.0,0.0,0.0,0.0,0.0,0.0,-1.8664,-1.7483,-1.7221,-1.6678,-1.5801,-1.58,-1.5779,-1.5813,-1.6382,-1.7196,0.0,0.0,0.0,0.0,0.0,0.0,0.0,0.0,0.0,0.0,0.0,0.0,0.0,0.0,0.0,0.0,0.0,0.0,0.0,0.0,0.0,0.0,0.0,0.0,0.0,0.0,0.0,0.0,-1.2787,-1.3073,-1.4173,0.0,0.0,0.0,0.0,0.0,0.0,0.0,0.0,0.0,0.0,-1.9854,-2.0428,-2.0861,-2.1081,-2.0975,-2.0406,-1.9917,-1.9726,-1.8951,-1.8344,-1.8261,0.0,0.0,0.0,0.0,0.0,0.0,0.0,0.0,0.0,0.0,0.0,0.0,0.0,0.0,0.0,0.0,0.0,0.0,0.0,0.0,0.0,0.0,0.0,0.0,0.0,0.0,0.0,0.0,0.0,0.0,-2.0352,0.0,0.0,0.0,0.0,0.0,0.0,0.0,0.0,0.0,0.0,0.0,0.0,0.0,0.0,0.0,0.0,0.0,0.0,0.0,0.0,0.0,0.0,-1.9294,-1.9205,-1.8393,-1.7558,-1.6699,-1.6676,-1.6673,-1.6693,-1.6709,-1.7504,-1.913,0.0,0.0,0.0,0.0,0.0,0.0,0.0,0.0,0.0,0.0,0.0,0.0,0.0,0.0,0.0,0.0,0.0,0.0,0.0,0.0,0.0,0.0,0.0,0.0,0.0,0.0,-1.4006,-1.3236,-1.3389,0.0,0.0,0.0,0.0,0.0,0.0,0.0,0.0,0.0,0.0,-1.994,-2.0486,-2.0487,-2.0344,-2.0431,-2.0835,-1.9855,-1.9164,-1.9456,-1.9087,-1.874,0.0,0.0,0.0,0.0,0.0,0.0,0.0,0.0,0.0,0.0,0.0,0.0,0.0,0.0,0.0,0.0,0.0,0.0,0.0,0.0,0.0,0.0,0.0,0.0,0.0,0.0,0.0,-2.1955,-2.1999,0.0,0.0,0.0,0.0,0.0,0.0,0.0,0.0,0.0,0.0,0.0,-2.4557,-2.4557,0.0,0.0,0.0,0.0,0.0,0.0,0.0,0.0,0.0,0.0,0.0,0.0,-2.0402,-1.9342,-1.9016,-1.8432,-1.7592,-1.7569,-1.7565,-1.7558,-1.8078,-1.8893,-2.0029,0.0,0.0,0.0,0.0,0.0,0.0,0.0,0.0,0.0,0.0,0.0,0.0,0.0,0.0,0.0,0.0,0.0,0.0,0.0,0.0,0.0,0.0,0.0,0.0,0.0,-1.5097,0.0,0.0,0.0,0.0,0.0,0.0,0.0,0.0,0.0,0.0,0.0,-2.0049,-2.0016,-2.0214,-2.0354,-2.0296,-2.0605,-2.0756,0.0,0.0,0.0,0.0,0.0,0.0,0.0,0.0,0.0,0.0,0.0,0.0,0.0,0.0,-1.7261,-1.7844,-1.7386,-1.6807,-1.6549,0.0,0.0,0.0,0.0,0.0,0.0,0.0,0.0,0.0,0.0,0.0,0.0,0.0,0.0,-2.4626,0.0,-2.4706,0.0,0.0,0.0,0.0,0.0,0.0,0.0,0.0,-2.4621,-2.4885,-2.536,-2.536,-2.5379,0.0,-2.5387,-2.4833,0.0,0.0,0.0,0.0,0.0,0.0,0.0,0.0,-2.1698,-2.0662,-2.0316,-1.9749,-1.8902,-1.8566,-1.8423,-1.8432,-1.9215,-1.9924,-2.0491,-2.2134,-2.3033,0.0,0.0,0.0,0.0,0.0,0.0,0.0,0.0,0.0,0.0,0.0,0.0,0.0,0.0,0.0,0.0,0.0,0.0,0.0,0.0,0.0,0.0,0.0,-1.5883,0.0,0.0,0.0,0.0,0.0,0.0,0.0,0.0,0.0,-2.0175,-2.0566,-2.0874,-2.0796,-2.0422,-2.0136,-2.0011,0.0,0.0,0.0,0.0,0.0,0.0,0.0,-1.7746,-1.7573,-1.8192,-1.8694,-1.8614,-1.85,-1.8489,-1.8753,0.0,0.0,-1.7991,-1.748,-1.6872,-1.6387,-1.5811,-1.5473,-1.5645,-1.5355,-1.5026,0.0,0.0,0.0,0.0,0.0,0.0,0.0,0.0,-2.7537,-2.7884,0.0,-2.7942,0.0,0.0,0.0,0.0,0.0,-2.5602,0.0,0.0,-2.5455,-2.5399,-2.5351,-2.5322,-2.5332,-2.539,-2.538,-2.5378,-2.5346,-2.5434,0.0,0.0,0.0,0.0,0.0,0.0,-2.312,-2.3007,-2.223,-2.1428,-2.0594,-1.9763,-1.9344,-1.9375,-2.013,-2.0554,-2.0608,-2.2189,-2.3097,-2.3116,-2.476,0.0,0.0,0.0,0.0,0.0,0.0,0.0,0.0,0.0,0.0,0.0,0.0,0.0,0.0,0.0,0.0,0.0,0.0,0.0,0.0,-1.5772,0.0,0.0,0.0,0.0,0.0,0.0,0.0,0.0,0.0,0.0,-2.1852,-2.174,-2.1679,-2.152,0.0,0.0,0.0,0.0,-1.8899,-1.85,-1.7808,-1.7197,-1.6596,-1.7149,-1.7578,-1.7408,0.0,0.0,-1.8985,-1.8812,-1.8622,-1.8574,-1.8341,-1.8044,-1.7556,-1.7104,-1.659,-1.613,-1.5929,-1.5866,-1.5659,-1.5242,-1.4927,-3.0702,0.0,0.0,0.0,0.0,-2.7268,-2.7387,-2.7612,-2.7817,-2.7952,-2.8009,-2.8025,0.0,0.0,0.0,0.0,0.0,0.0,-2.7226,-2.7142,-2.6545,-2.6256,-2.6217,-2.5601,-2.5313,-2.5332,-2.538,-2.5379,-2.5388,-2.5423,-2.5456,-2.5515,0.0,0.0,0.0,0.0,-2.366,-2.3056,-2.2773,-2.2535,-2.2289,-2.2051,-2.191,-2.1915,-2.1586,-2.1441,-2.1441,-2.2504,-2.3095,-2.3134,-2.4762,0.0,0.0,0.0,0.0,0.0,0.0,0.0,0.0,0.0,0.0,0.0,0.0,0.0,0.0,0.0,0.0,0.0,0.0,0.0,-1.5907,-1.6073,-1.6822,0.0,0.0,0.0,0.0,0.0,0.0,0.0,0.0,0.0,-2.3318,-2.2731,-2.2246,0.0,0.0,-2.0964,-2.0572,-2.0061,-1.9386,-1.846,-1.7646,0.0,-1.6323,-1.65,-1.6789,-1.7074,-1.7852,-1.8422,-1.8496,-1.8355,-1.8187,-1.8121,-1.7949,-1.765,-1.7078,-1.6676,-1.6127,-1.5289,-1.5018,-1.4972,-1.4786,-1.4596,-1.4401,-3.3948,-3.2899,-3.0599,-2.9419,-2.9174,-2.9458,-2.9544,-2.9534,-2.9835,-2.996,-2.995,-2.9651,-2.9525,-2.9513,-2.888,0.0,0.0,0.0,-2.7943,-2.7883,-2.7353,-2.7112,-2.7082,-2.6582,-2.6332,-2.6332,-2.6391,-2.6227,-2.5871,-2.587,-2.5723,-2.5468,0.0,0.0,-2.4801,-2.4775,-2.4515,-2.4008,-2.3639,-2.3489,-2.3533,-2.3178,-2.3009,-2.3028,-2.2559,-2.2302,-2.2338,-2.3143,-2.3611,-2.3628,-2.4943,-2.5696,0.0,0.0,0.0,0.0,0.0,0.0,0.0,0.0,0.0,0.0,0.0,-2.3981,0.0,0.0,0.0,0.0,-1.817,-1.7142,-1.6637,-1.7275,0.0,0.0,0.0,0.0,0.0,0.0,0.0,-2.3572,-2.4199,-2.454,-2.4309,-2.3679,-2.3025,-2.2449,-2.1709,-2.1033,-2.0543,0.0,-1.9194,-1.8242,-1.7392,-1.6654,-1.6061,-1.6135,-1.6442,-1.7008,-1.7517,-1.7922,-1.8028,-1.7962,-1.7895,-1.7882,-1.7842,-1.7572,-1.694,-1.6661,-1.6277,-1.5319,-1.5133,-1.5066,-1.5053,-1.4904,-1.4801,-3.6948,-3.6709,-3.3699,-3.1882,-3.1093,-3.1787,-3.2027,-3.1981,-3.2745,-3.3059,-3.2952,-3.2227,-3.1901,-3.1804,-3.0298,0.0,-2.829,-2.8242,-2.8192,-2.8095,-2.8016,-2.7986,-2.7986,-2.7928,-2.789,-2.789,-2.789,-2.7497,-2.6747,-2.6708,-2.6314,-2.5618,-2.5661,-2.5615,-2.5505,-2.5492,-2.5499,-2.5493,-2.4704,-2.4348,-2.4402,-2.362,-2.3242,-2.3294,-2.3229,-2.3186,-2.3224,-2.3968,-2.4375,-2.4404,-2.5213,-2.5693,-2.5707,0.0,0.0,0.0,0.0,0.0,0.0,0.0,0.0,0.0,0.0,0.0,0.0,0.0,0.0,0.0,-1.8437,0.0,-1.753,-1.9094,0.0,0.0,0.0,-2.3203,-2.3203,-2.3963,-2.4473,-2.4389,0.0,0.0,-2.4905,-2.4457,-2.3805,-2.2831,-2.1575,-2.0529,-1.9976,-1.9377,-1.8635,-1.7973,-1.7161,-1.6438,-1.5982,-1.6074,-1.6465,-1.7124,-1.7393,-1.7639,-1.7747,-1.7801,-1.7842,-1.7975,-1.7949,-1.7839,-1.7252,-1.7194,-1.6927,-1.6271,-1.5982,-1.5891,-1.5914,-1.5801,-1.5738,-3.7797,-3.775,-3.7065,-3.5593,-3.3646,-3.3128,-3.2897,-3.2879,-3.2975,-3.3018,-3.2976,-3.2791,-3.2725,-3.2698,-3.2293,-3.1656,-3.0824,-3.0813,-3.0425,-2.9775,-2.9121,-2.8813,-2.8775,-2.8189,-2.7901,-2.789,-2.7898,-2.7783,-2.7593,-2.7574,-2.7488,-2.7325,-2.7335,-2.6688,-2.5464,-2.5426,-2.5461,-2.551,-2.5291,-2.5227,-2.5263,-2.5084,-2.4987,-2.5009,-2.442,-2.4099,-2.4085,-2.428,-2.4385,-2.4343,-2.5153,-2.5639,-2.5634,-2.5644,0.0,0.0,0.0,0.0,0.0,0.0,0.0,0.0,0.0,-2.5605,-2.5422,0.0,-2.3456,0.0,-2.0279,-1.9473,-2.0327,-2.0806,0.0,0.0,-2.3422,-2.4097,-2.41,-2.4813,-2.5304,-2.5218,-2.5181,-2.5034,-2.4714,-2.4172,-2.3572,-2.2852,-2.2218,-2.1566,-2.0904,-2.0114,-1.925,-1.815,-1.7289,-1.6599,-1.6166,-1.6395,-1.6863,-1.7338,-1.7679,-1.7922,-1.8123,-1.8254,-1.8422,-1.843,-1.8511,-1.8482,-1.8264,-1.8212,-1.8131,-1.7873,-1.6917,-1.6064,-1.6078,-1.6018,-1.5968,-3.9245,-3.9226,-3.8955,-3.8054,-3.6753,-3.5893,-3.5471,-3.5408,-3.5303,-3.5063,-3.4653,-3.3865,-3.3326,-3.3006,-3.2983,-3.2733,-3.2289,-3.2289,-3.2016,-3.153,-3.0645,-3.0248,-3.0217,-2.9421,-2.9025,-2.9006,-2.9014,-2.881,-2.8445,-2.8429,-2.8247,-2.7911,-2.7892,-2.7441,-2.6543,-2.6146,-2.5824,-2.5515,-2.5538,-2.5762,-2.6143,-2.5834,-2.582,-2.6178,-2.5418,-2.4976,-2.4991,-2.4969,-2.4931,-2.4899,-2.5342,-2.56,-2.5601,-2.5598,-2.5409,0.0,0.0,0.0,0.0,0.0,0.0,0.0,0.0,0.0,0.0,0.0,-2.3844,-2.2782,-2.1693,-2.1302,-2.1959,-2.2412,-2.2914,-2.3553,-2.443,-2.4978,-2.4978,-2.534,-2.5571,-2.5466,-2.5216,-2.4917,-2.4557,-2.3988,-2.3397,-2.2754,-2.2201,-2.1582,-2.0911,-2.0112,-1.925,-1.8284,-1.7545,-1.693,-1.6512,-1.6783,-1.7157,-1.7544,-1.7908,-1.8226,-1.8542,-1.8721,-1.8846,-1.8954,-1.8968,-1.8945,-1.8884,-1.886,-1.8836,-1.8674,-1.8031,-1.7409,-1.7115,-1.7054,-1.7002,-4.0968,-4.0932,-4.015,-3.9854,-3.9865,-3.9044,-3.852,-3.8214,-3.8156,-3.7688,-3.6864,-3.5355,-3.425,-3.3508,-3.3485,-3.3369,-3.3161,-3.3161,-3.3111,-3.2972,-3.2208,-3.1831,-3.166,-3.0929,-3.0506,-3.0398,-3.0398,-3.0021,-2.9267,-2.9264,-2.8909,-2.8236,-2.8217,-2.8172,-2.8039,-2.7354,-2.6625,-2.5846,-2.591,-2.6291,-2.7054,-2.6389,-2.6334,-2.6939,-2.6263,-2.5814,-2.5698,-2.5699,-2.5668,-2.5595,-2.5604,-2.5607,-2.5609,-2.5615,-2.5641,0.0,-2.57,0.0,0.0,0.0,0.0,0.0,0.0,0.0,0.0,-2.4937,-2.4078,-2.314,-2.302,-2.3032,-2.3156,-2.3909,-2.4423,-2.4583,-2.5258,-2.5704,-2.5699,-2.5624,-2.5543,-2.541,-2.5152,-2.4855,-2.4435,-2.3848,-2.323,-2.2574,-2.1843,-2.1191,-2.0534,-1.9743,-1.9014,-1.8369,-1.7801,-1.7272,-1.7063,-1.7186,-1.7475,-1.7828,-1.8212,-1.8553,-1.8936,-1.9139,-1.9288,-1.945,-1.942,-1.9317,-1.9317,-1.9236,-1.9176,-1.9176,-1.902,-1.8788,-1.843,-1.8246,-1.8319,-4.2626,-4.2583,-4.1847,-4.1545,-4.148,-4.0684,-3.9533,-3.8214,-3.8175,-3.8067,-3.7829,-3.7514,-3.6897,-3.6112,-3.6074,-3.5353,-3.4067,-3.406,-3.3682,-3.2987,-3.2817,-3.2382,-3.1715,-3.1542,-3.1076,-3.0417,-3.0398,-3.0302,-3.0148,-3.0148,-3.0063,-2.9929,-2.9936,-2.9594,-2.8983,0.0,0.0,0.0,-2.7687,-2.7818,-2.8021,-2.7875,-2.7537,-2.7023,-2.6859,0.0,-2.5735,-2.564,-2.5605,-2.5593,-2.5607,0.0,0.0,0.0,0.0,0.0,0.0,0.0,0.0,0.0,0.0,0.0,-2.5703,-2.5703,-2.5689,-2.5481,-2.5262,-2.507,-2.5039,-2.5079,-2.515,-2.5303,-2.5428,-2.5466,-2.5601,-2.5707,-2.5703,-2.5595,-2.546,-2.5327,-2.5069,-2.4766,-2.4352,-2.3746,-2.3117,-2.2468,-2.1707,-2.0959,-2.0364,-1.9666,-1.902,-1.8383,-1.7841,-1.7475,-1.7393,-1.7733,-1.8095,-1.8422,-1.8793,-1.9147,-1.9493,-1.9705,-1.9848,-1.994,-1.9925,-1.9889,-1.9833,-1.969,-1.9545,-1.9487,-1.9391,-1.9242,-1.8941,-1.8736,-1.862,-4.3092,0.0,-4.2758,-4.2599,0.0,-4.1685,-4.0829,-3.9998,-3.9599,-3.9161,-3.8724,-3.8331,-3.7887,-3.7494,-3.7518,-3.6853,-3.5643,-3.5635,-3.516,-3.4287,-3.3848,-3.3412,-3.2964,-3.2567,-3.2107,-3.1691,-3.166,-3.1648,-3.1616,-3.1244,-3.1044,-3.1044,-3.0641,-3.019,-2.982,-2.9853,-2.9289,-2.8119,-2.8165,-2.8435,-2.8856,-2.8498,-2.8076,-2.7633,-2.7237,0.0,0.0,0.0,0.0,0.0,0.0,0.0,0.0,-2.5599,0.0,-2.5701,-2.5703,-2.5696,-2.5702,-2.5702,-2.5701,-2.5703,-2.5703,-2.5703,-2.5699,-2.5673,-2.5646,-2.5651,-2.5652,-2.566,-2.5699,-2.5704,-2.5701,-2.5705,-2.5696,-2.5697,-2.5652,-2.556,-2.5452,-2.5274,-2.5005,-2.4697,-2.4283,-2.366,-2.3045,-2.2459,-2.1715,-2.0991,-2.0345,-1.9639,-1.8927,-1.8279,-1.7948,-1.7801,-1.7908,-1.824,-1.8592,-1.8936,-1.9347,-1.966,-1.9995,-2.022,-2.0373,-2.0426,-2.0376,-2.0289,-2.022,-2.003,-1.9869,-1.9741,-1.9617,-1.9523,-1.9317,-1.9078,-1.8851,-4.3538,-4.3535,-4.347,-4.3408,-4.3351,-4.2483,-4.2035,-4.1861,0.0,0.0,0.0,-3.8962,-3.8569,-3.8443,-3.8485,-3.8031,-3.7248,-3.7228,-3.6734,-3.5811,-3.5113,-3.4596,-3.4284,-3.3562,-3.3152,-3.2993,-3.2942,-3.291,-3.2865,-3.2225,-3.191,-3.1852,-3.1198,-3.0748,-3.064,-3.0598,-2.9918,-2.8618,-2.8607,-2.8981,-2.9676,-2.9092,-2.8668,-2.8532,-2.784,-2.7047,-2.6175,-2.6108,-2.6058,-2.6048,-2.604,-2.6048,-2.6054,-2.6042,-2.6065,-2.6119,-2.6146,-2.6144,-2.6154,-2.6149,-2.6152,-2.6172,-2.6152,-2.6035,-2.5742,-2.5839,-2.5935,-2.5935,-2.6068,-2.6161,-2.6161,-2.6003,-2.5924,-2.5922,-2.5791,-2.5694,-2.5604,-2.5549,-2.5434,-2.5224,-2.4962,-2.4636,-2.4248,-2.3617,-2.3021,-2.2459,-2.179,-2.1071,-2.0376,-1.956,-1.8879,-1.8319,-1.8187,-1.824,-1.8422,-1.8731,-1.9072,-1.9479,-1.9854,-2.0185,-2.046,-2.0677,-2.0777,-2.0843,-2.0728,-2.0579,-2.0478,-2.0273,-2.01,-1.9919,-1.9797,-1.969,-1.9596,-1.9376,-1.9101,-4.5238,-4.5199,-4.4501,-4.4229,-4.4171,-4.3354,-4.2628,-4.1923,-4.1087,-4.0655,-4.0597,-4.05,-4.001,-3.9317,-3.9329,-3.8894,-3.8141,-3.8121,-3.7656,-3.6803,-3.6607,-3.5762,-3.4397,-3.4206,-3.3716,-3.3037,-3.2998,-3.2954,-3.2891,-3.2795,-3.2737,-3.2718,-3.2602,-3.2184,-3.1518,-3.0848,-3.0452,-3.0331,-3.0335,-3.0453,-3.0601,-3.0517,-3.0131,-2.9449,-2.9279,-2.8811,-2.7979,-2.7857,-2.7804,-2.7763,-2.7744,-2.775,-2.7755,-2.7717,-2.7783,-2.7843,-2.7833,-2.7878,-2.79,-2.7922,-2.7948,-2.793,-2.793,-2.7305,-2.5879,-2.6387,-2.6836,-2.6855,-2.7441,-2.7949,-2.789,-2.7244,-2.6829,-2.6763,-2.6147,-2.5678,-2.5667,-2.5582,-2.5453,-2.5214,-2.4962,-2.4636,-2.4229,-2.3656,-2.3093,-2.2538,-2.1832,-2.1103,-2.0139,-1.9376,-1.8979,-1.876,-1.8707,-1.8798,-1.8988,-1.931,-1.9639,-1.9975,-2.0292,-2.0613,-2.0909,-2.1071,-2.1135,-2.1135,-2.1071,-2.0925,-2.0778,-2.0545,-2.0357,-2.0185,-1.9975,-1.9797,-1.9705,-1.9523,-1.9376,-4.5586,-4.5565,-4.5199,-4.5062,-4.4985,-4.4155,-4.3339,-4.2594,-4.2203,-4.155,-4.0829,-4.0815,-4.0575,-4.0219,-4.0253,-3.979,-3.9005,-3.9005,-3.852,-3.7735,-3.7675,-3.7005,-3.5871,-3.5731,-3.5272,-3.4453,-3.4371,-3.4353,-3.4276,-3.3833,-3.3603,-3.3564,-3.3141,-3.2736,-3.2408,-3.2034,-3.169,-3.1344,-3.093,-3.0739,-3.079,-3.0794,-3.0409,-2.9567,-2.9556,-2.9133,-2.8279,-2.8203,-2.8179,-2.8158,-2.8106,-2.8112,-2.8099,-2.8099,-2.8126,-2.8188,-2.8199,-2.8225,-2.8288,-2.8294,-2.83,-2.8281,-2.8281,-2.7988,-2.7187,-2.748,-2.7715,-2.7715,-2.8086,-2.8281,-2.8281,-2.7948,-2.7689,-2.77,-2.7335,-2.6883,-2.6398,-2.6242,-2.5936,-2.5318,-2.4968,-2.4636,-2.4248,-2.3684,-2.3112,-2.2548,-2.1774,-2.091,-2.0154,-1.9777,-1.9428,-1.9124,-1.9124,-1.931,-1.9545,-1.9854,-2.017,-2.0496,-2.0778,-2.1039,-2.1325,-2.1435,-2.145,-2.145,-2.134,-2.1151,-2.1006,-2.0794,-2.0561,-2.0339,-2.02,-2.001,-1.9812,-1.9632,-1.9501,-4.5586,-4.5586,-4.5586,-4.5586,-4.5528,-4.4893,-4.4141,-4.3423,-4.3447,-4.2676,-4.1435,-4.1163,-4.0963,-4.0812,-4.0837,-4.0509,-3.9947,-3.9888,-3.9442,-3.8666,-3.8578,-3.8132,-3.7355,-3.7246,-3.6756,-3.5956,-3.581,-3.5682,-3.543,-3.4814,-3.4507,-3.4391,-3.3622,-3.3217,-3.3246,-3.3103,-3.2733,-3.2163,-3.1573,-3.1106,-3.0789,-3.0782,-3.0482,-2.9866,-2.9808,-2.9487,-2.8831,-2.8778,-2.8757,-2.8754,-2.8708,-2.8694,-2.8676,-2.8676,-2.8716,-2.8752,-2.8778,-2.8809,-2.8879,-2.888,-2.8886,-2.8887,-2.8906,-2.8887,-2.8887,-2.8886,-2.8788,-2.8633,-2.8809,-2.8945,-2.8926,-2.8709,-2.8587,-2.8576,-2.8408,-2.7936,-2.7308,-2.7116,-2.6749,-2.5902,-2.5538,-2.5249,-2.4783,-2.4254,-2.3744,-2.3059,-2.209,-2.1355,-2.0914,-2.0608,-2.0152,-1.9891,-1.9692,-1.9762,-2.0061,-2.0308,-2.0597,-2.0942,-2.1199,-2.1419,-2.162,-2.1708,-2.1738,-2.1708,-2.1542,-2.1356,-2.1199,-2.0958,-2.0712,-2.0475,-2.0339,-2.0166,-1.9833,-1.9705,-1.9611,-4.5586,-4.5586,-4.5586,-4.5586,-4.5586,-4.549,-4.5009,-4.4335,-4.4302,-4.3805,-4.2902,-4.2209,-4.1505,-4.0854,-4.0826,-4.08,-4.0743,-4.0771,-4.0315,-3.9616,-3.95,-3.9005,-3.8228,-3.8158,-3.7649,-3.6793,-3.6672,-3.6325,-3.568,-3.5449,-3.5372,-3.5276,-3.4507,-3.4077,-3.4038,-3.34,-3.3001,-3.2996,-3.2909,-3.2167,-3.08,-3.0764,-3.076,-3.0687,-3.0658,-3.0672,-3.0453,-3.0502,-3.0458,-3.0464,-3.0404,-3.0428,-3.0428,-3.0447,-3.0438,-3.0425,-3.0497,-3.0607,-3.0621,-3.0645,-3.0598,-3.0644,-3.0586,-3.0566,-3.0586,-3.0619,-3.0304,-2.9785,-3.0176,-3.0508,-3.0605,-2.994,-2.9485,-2.9435,-2.8873,-2.8205,-2.8043,-2.7926,-2.7774,-2.752,-2.7048,-2.6914,-2.632,-2.5786,-2.5207,-2.4139,-2.347,-2.291,-2.248,-2.1886,-2.1463,-2.1213,-2.0701,-2.0262,-2.0457,-2.0679,-2.0974,-2.1214,-2.1467,-2.1683,-2.1844,-2.1911,-2.1936,-2.1811,-2.1708,-2.1556,-2.1309,-2.1071,-2.086,-2.0644,-2.0407,-2.0185,-1.9833,-1.969,-1.9654,-4.5586,-4.5586,-4.5586,-4.5586,-4.5586,-4.5586,-4.5413,-4.5124,-4.5153,-4.47,-4.394,-4.3598,-4.2776,-4.1602,-4.1623,-4.1373,-4.0927,-4.0888,-4.0733,-4.0422,-4.0374,-3.9897,-3.912,-3.9041,-3.8512,-3.7622,-3.7585,-3.7365,-3.6964,-3.6469,-3.5988,-3.5512,-3.5122,-3.4962,-3.4944,-3.4648,-3.426,-3.3834,-3.3847,-3.3287,-3.2225,-3.1708,-3.1514,-3.1454,-3.1026,-3.0748,-3.0736,-3.0704,-3.0711,-3.069,-3.0703,-3.0695,-3.0703,-3.0703,-3.0697,-3.0703,-3.0765,-3.0817,-3.0858,-3.088,-3.0905,-3.0916,-3.0918,-3.0917,-3.0912,-3.0923,-3.0728,-3.05,-3.0702,-3.0918,-3.0879,-3.0565,-3.0364,-3.0313,-3.0001,-2.9546,-2.8918,-2.8793,-2.853,-2.7831,-2.748,-2.7177,-2.6727,-2.6067,-2.533,-2.4605,-2.4131,-2.3751,-2.331,-2.2844,-2.2611,-2.2512,-2.2204,-2.1682,-2.1163,-2.1119,-2.1371,-2.1556,-2.1741,-2.1906,-2.2036,-2.2101,-2.2068,-2.194,-2.184,-2.1661,-2.1386,-2.1214,-2.1006,-2.0744,-2.0392,-2.008,-1.9833,-1.9797,-1.9762,-4.5586,-4.5586,-4.5586,-4.5586,-4.5586,-4.5586,-4.5586,-4.5622,-4.5676,-4.5343,-4.4797,-4.4824,-4.4084,-4.2884,-4.261,-4.2139,-4.1597,-4.1335,-4.1218,-4.1208,-4.0974,-4.0527,-3.9962,-3.9863,-3.9364,-3.8593,-3.8466,-3.8304,-3.7964,-3.7123,-3.6392,-3.5892,-3.5622,-3.5501,-3.5489,-3.5502,-3.5232,-3.472,-3.4685,-3.4408,-3.379,-3.3061,-3.2559,-3.2305,-3.1728,-3.1274,-3.1047,-3.1034,-3.0898,-3.069,-3.069,-3.069,-3.069,-3.0697,-3.0698,-3.0739,-3.0778,-3.0785,-3.0799,-3.086,-3.0921,-3.0911,-3.0916,-3.0915,-3.0923,-3.0919,-3.0919,-3.0882,-3.0912,-3.0918,-3.0918,-3.0917,-3.0891,-3.0875,-3.0813,-3.0477,-2.9866,-2.9691,-2.9361,-2.8552,-2.8351,-2.7836,-2.7333,-2.6669,-2.5998,-2.5521,-2.5075,-2.4597,-2.4208,-2.3918,-2.3635,-2.36,-2.3525,-2.2928,-2.1876,-2.1823,-2.1941,-2.1873,-2.1991,-2.2111,-2.2225,-2.2231,-2.2169,-2.1998,-2.1882,-2.1751,-2.1495,-2.1325,-2.1087,-2.0711,-2.0357,-2.0115,-1.994,-1.9869,-1.9762,-4.5586,-4.5586,-4.5586,-4.5586,-4.5586,-4.5586,-4.5586,-4.5586,-4.5676,-4.5651,-4.5591,-4.5654,-4.5254,-4.4413,-4.3653,-4.3252,-4.3133,-4.2399,-4.205,-4.1981,-4.1225,-4.0807,-4.0761,-4.0742,-4.0234,-3.9373,-3.9322,-3.8888,-3.8046,-3.7199,-3.668,-3.6642,-3.5935,-3.5526,-3.5545,-3.5528,-3.5528,-3.5449,-3.5454,-3.5499,-3.5407,-3.47,-3.3897,-3.3275,-3.3078,-3.2602,-3.1961,-3.1856,-3.152,-3.0749,-3.0768,-3.0749,-3.069,-3.0704,-3.0722,-3.0793,-3.079,-3.0785,-3.0799,-3.086,-3.0899,-3.0921,-3.0911,-3.0912,-3.0921,-3.0919,-3.0919,-3.0919,-3.0921,-3.0909,-3.0918,-3.0917,-3.0868,-3.0824,-3.081,-3.0721,-3.0626,-3.044,-3.0443,-3.0068,-2.9688,-2.9138,-2.8608,-2.819,-2.7518,-2.6999,-2.6703,-2.6303,-2.5721,-2.5149,-2.4783,-2.455,-2.4226,-2.3589,-2.2801,-2.2566,-2.2485,-2.2367,-2.2332,-2.2282,-2.2349,-2.236,-2.2231,-2.2101,-2.1986,-2.1811,-2.1587,-2.1325,-2.099,-2.0695,-2.0441,-2.0235,-2.001,-1.9904,-1.9797,-4.5586,-4.5586,-4.5586,-4.5586,-4.5586,-4.5586,-4.5586,-4.5586,-4.5622,-4.5657,-4.5709,-4.5742,-4.5615,-4.5351,-4.5037,-4.4337,-4.3431,-4.3055,-4.2939,-4.2831,-4.2024,-4.1633,-4.1563,-4.1042,-4.0565,-4.0236,-4.0158,-3.9721,-3.8892,-3.8488,-3.8084,-3.7469,-3.668,-3.6262,-3.618,-3.5751,-3.5541,-3.5611,-3.5616,-3.5639,-3.5676,-3.5386,-3.5097,-3.4768,-3.374,-3.3048,-3.2737,-3.2749,-3.2368,-3.1564,-3.1525,-3.1273,-3.0775,-3.0698,-3.0734,-3.0798,-3.0794,-3.0785,-3.0799,-3.0821,-3.086,-3.088,-3.0907,-3.0948,-3.0921,-3.0919,-3.0919,-3.0919,-3.0919,-3.0923,-3.0911,-3.0918,-3.0868,-3.0804,-3.0802,-3.0769,-3.0698,-3.0599,-3.0472,-3.0273,-2.9905,-2.9357,-2.8888,-2.8368,-2.7961,-2.7522,-2.7135,-2.6792,-2.6418,-2.5994,-2.5706,-2.5688,-2.5576,-2.5212,-2.4644,-2.3653,-2.3123,-2.2924,-2.2773,-2.2479,-2.2415,-2.2415,-2.2315,-2.2192,-2.2061,-2.1869,-2.1648,-2.1277,-2.0958,-2.0744,-2.0475,-2.0304,-2.0131,-1.999,-1.9869,-4.5586,-4.5586,-4.5586,-4.5586,-4.5586,-4.5586,-4.5586,-4.5586,-4.5586,-4.5622,-4.5676,-4.5693,-4.5742,-4.577,-4.5785,-4.5235,-4.4182,-4.3918,-4.3795,-4.3685,-4.2854,-4.2338,-4.199,-4.139,-4.0899,-4.0629,-4.0579,-4.025,-3.9734,-3.9431,-3.8988,-3.8411,-3.7546,-3.6969,-3.6661,-3.6161,-3.5836,-3.5688,-3.5623,-3.562,-3.5704,-3.5695,-3.5706,-3.5533,-3.4593,-3.3863,-3.363,-3.3635,-3.3235,-3.2555,-3.2407,-3.2162,-3.1612,-3.1559,-3.1593,-3.1644,-3.1656,-3.1646,-3.1638,-3.1641,-3.168,-3.166,-3.1431,-3.1296,-3.1289,-3.1036,-3.0899,-3.0899,-3.0923,-3.0923,-3.0905,-3.0918,-3.0868,-3.0804,-3.0798,-3.0764,-3.0691,-3.0582,-3.0411,-3.0174,-2.9786,-2.9316,-2.8902,-2.8558,-2.8174,-2.7736,-2.7359,-2.7072,-2.6775,-2.6589,-2.6469,-2.6418,-2.6419,-2.627,-2.5711,-2.4777,-2.3769,-2.3465,-2.2835,-2.2573,-2.2453,-2.2453,-2.2388,-2.2265,-2.2077,-2.1869,-2.1631,-2.1261,-2.099,-2.0777,-2.0577,-2.0373,-2.02,-2.0061,-1.9955,-4.5605,-4.5586,-4.5586,-4.5586,-4.5586,-4.5586,-4.5586,-4.5586,-4.5586,-4.5603,-4.5603,-4.5657,-4.5709,-4.5706,-4.57,-4.5638,-4.5403,-4.4849,-4.4587,-4.451,-4.3656,-4.285,-4.2246,-4.201,-4.1461,-4.0737,-4.0558,-4.0504,-4.0354,-3.9758,-3.9354,-3.9161,-3.843,-3.768,-3.6815,-3.6766,-3.6363,-3.5861,-3.5693,-3.5651,-3.5684,-3.5697,-3.5698,-3.5698,-3.5563,-3.5202,-3.4551,-3.4501,-3.414,-3.341,-3.3315,-3.3304,-3.3134,-3.3131,-3.3273,-3.3177,-3.3282,-3.3311,-3.3278,-3.3202,-3.3107,-3.3029,-3.2539,-3.2129,-3.2031,-3.1504,-3.1075,-3.1055,-3.1044,-3.0969,-3.0945,-3.0918,-3.0868,-3.0824,-3.0798,-3.0778,-3.0704,-3.0574,-3.037,-3.0075,-2.9734,-2.9454,-2.9071,-2.8743,-2.8362,-2.7911,-2.7604,-2.7341,-2.704,-2.6859,-2.6825,-2.6742,-2.6742,-2.6707,-2.6328,-2.5794,-2.4795,-2.3893,-2.3093,-2.2561,-2.2535,-2.2525,-2.2443,-2.2321,-2.2089,-2.1882,-2.1631,-2.1309,-2.1087,-2.086,-2.0662,-2.0475,-2.0304,-2.0166,-1.999,-4.6144,-4.5605,-4.5586,-4.5586,-4.5586,-4.5586,-4.5586,-4.5586,-4.5586,-4.5586,-4.5622,-4.5622,-4.5657,-4.569,-4.5687,-4.5684,-4.5661,-4.5461,-4.5345,-4.519,-4.4446,-4.3871,-4.3539,-4.2988,-4.2283,-4.1443,-4.0773,-4.0508,-4.0469,-4.0219,-4.0138,-3.9969,-3.9277,-3.8792,-3.8363,-3.7415,-3.6646,-3.6465,-3.5898,-3.5623,-3.5687,-3.5707,-3.5718,-3.5765,-3.5773,-3.5643,-3.5488,-3.5403,-3.5006,-3.4229,-3.4192,-3.3965,-3.3521,-3.3375,-3.3395,-3.3379,-3.3383,-3.3389,-3.3395,-3.3417,-3.3456,-3.3378,-3.3144,-3.3027,-3.3007,-3.2714,-3.2285,-3.1836,-3.1723,-3.1548,-3.1062,-3.0918,-3.0888,-3.0801,-3.0798,-3.0778,-3.069,-3.0511,-3.0266,-3.0041,-2.9767,-2.9456,-2.9123,-2.8803,-2.8448,-2.8053,-2.7736,-2.7465,-2.723,-2.7103,-2.7038,-2.7006,-2.7038,-2.7002,-2.6585,-2.5958,-2.5005,-2.4119,-2.3315,-2.2676,-2.2632,-2.2605,-2.2497,-2.2332,-2.2101,-2.1882,-2.1631,-2.1402,-2.1183,-2.0958,-2.0761,-2.0577,-2.0407,-2.0235,-2.0096,-4.6855,-4.6105,-4.6086,-4.5893,-4.5605,-4.5586,-4.5586,-4.5586,-4.5586,-4.5586,-4.5586,-4.5586,-4.5622,-4.5657,-4.5657,-4.5673,-4.5651,-4.5671,-4.5651,-4.561,-4.5189,-4.4742,-4.4338,-4.3516,-4.2868,-4.222,-4.1393,-4.0989,-4.095,-4.0662,-4.0489,-4.0373,-3.9988,-3.9542,-3.9297,-3.8309,-3.7578,-3.6945,-3.6397,-3.5994,-3.5756,-3.5727,-3.5754,-3.5799,-3.5815,-3.5857,-3.5892,-3.5872,-3.5606,-3.5171,-3.5068,-3.4845,-3.4399,-3.4389,-3.4363,-3.4358,-3.4365,-3.4387,-3.4351,-3.4468,-3.4351,-3.4334,-3.4081,-3.3886,-3.3827,-3.3673,-3.3107,-3.2721,-3.2582,-3.2251,-3.1576,-3.1367,-3.122,-3.082,-3.0798,-3.0748,-3.0642,-3.0471,-3.0248,-3.0022,-2.9801,-2.9514,-2.9169,-2.8855,-2.8551,-2.8201,-2.7864,-2.763,-2.743,-2.7307,-2.7261,-2.723,-2.7261,-2.7134,-2.6866,-2.6097,-2.5142,-2.4299,-2.3536,-2.3006,-2.2712,-2.2668,-2.2605,-2.236,-2.2118,-2.1957,-2.1738,-2.1495,-2.1277,-2.1055,-2.086,-2.0662,-2.0509,-2.0339,-2.0166,-4.7702,-4.7009,-4.6971,-4.6471,-4.5796,-4.572,-4.5682,-4.5586,-4.5586,-4.5586,-4.5586,-4.5586,-4.5586,-4.5603,-4.5622,-4.5603,-4.5603,-4.5622,-4.5603,-4.562,-4.5503,-4.5211,-4.4556,-4.3715,-4.3258,-4.3047,-4.2277,-4.1835,-4.1623,-4.1027,-4.0527,-4.0489,-4.0427,-4.0154,-3.9567,-3.9383,-3.8531,-3.7452,-3.7138,-3.6667,-3.595,-3.5912,-3.5864,-3.5834,-3.5864,-3.5892,-3.5911,-3.5903,-3.5897,-3.5879,-3.58,-3.5763,-3.5919,-3.5994,-3.5822,-3.5763,-3.5949,-3.5854,-3.5932,-3.5718,-3.5757,-3.5678,-3.5135,-3.4783,-3.4705,-3.4237,-3.3775,-3.3509,-3.3467,-3.3156,-3.2461,-3.2225,-3.1825,-3.1074,-3.0867,-3.0724,-3.0528,-3.0439,-3.0267,-3.0056,-2.9872,-2.9626,-2.9169,-2.892,-2.8651,-2.8335,-2.7989,-2.7789,-2.7642,-2.7522,-2.7526,-2.7496,-2.7478,-2.7173,-2.6883,-2.6096,-2.5197,-2.4462,-2.3693,-2.3163,-2.2816,-2.2738,-2.2632,-2.2388,-2.2192,-2.2003,-2.1811,-2.1601,-2.1371,-2.1167,-2.0974,-2.0761,-2.0561,-2.0407,-2.02,-4.8548,-4.7817,-4.7778,-4.7316,-4.6602,-4.6547,-4.6182,-4.5643,-4.5605,-4.5643,-4.5586,-4.5586,-4.5586,-4.5586,-4.5586,-4.5586,-4.5586,-4.5586,-4.5586,-4.5586,-4.5622,-4.5543,-4.5141,-4.441,-4.3989,-4.3874,-4.3162,-4.2431,-4.1854,-4.1566,-4.1123,-4.0523,-4.0558,-4.0477,-4.0217,-3.9714,-3.9264,-3.8775,-3.8199,-3.755,-3.6869,-3.6717,-3.6443,-3.5905,-3.5898,-3.5936,-3.5987,-3.5992,-3.5973,-3.5968,-3.5973,-3.5962,-3.5994,-3.6017,-3.6001,-3.6007,-3.601,-3.601,-3.601,-3.601,-3.601,-3.601,-3.5737,-3.5681,-3.5662,-3.5447,-3.5005,-3.4564,-3.4352,-3.4004,-3.3299,-3.3042,-3.26,-3.1859,-3.1226,-3.0729,-3.0539,-3.0439,-3.0286,-3.0037,-2.9888,-2.9589,-2.9212,-2.892,-2.8676,-2.8362,-2.8091,-2.7893,-2.776,-2.7689,-2.7647,-2.7659,-2.7572,-2.721,-2.6757,-2.6028,-2.5279,-2.4564,-2.3862,-2.3235,-2.2944,-2.279,-2.2659,-2.247,-2.2293,-2.2152,-2.1945,-2.1738,-2.1511,-2.1278,-2.1038,-2.0827,-2.0595,-2.0407,-2.0235,-4.9433,-4.8644,-4.8644,-4.8163,-4.745,-4.7413,-4.6913,-4.624,-4.6144,-4.5913,-4.5663,-4.5586,-4.5586,-4.5586,-4.5586,-4.5586,-4.5586,-4.5586,-4.5586,-4.5586,-4.5586,-4.5584,-4.5432,-4.5009,-4.4855,-4.4739,-4.4008,-4.3374,-4.2797,-4.2181,-4.1527,-4.1101,-4.0746,-4.0603,-4.0549,-4.021,-3.9772,-3.9495,-3.9044,-3.8461,-3.7719,-3.7299,-3.6936,-3.6415,-3.6181,-3.5968,-3.599,-3.6013,-3.6017,-3.6013,-3.6009,-3.6017,-3.6004,-3.6004,-3.6007,-3.601,-3.601,-3.601,-3.601,-3.601,-3.601,-3.601,-3.601,-3.601,-3.5991,-3.601,-3.5686,-3.5339,-3.5252,-3.4804,-3.4096,-3.3641,-3.3191,-3.2625,-3.1806,-3.1049,-3.0568,-3.0409,-3.0254,-3.0056,-2.9836,-2.9589,-2.9169,-2.892,-2.8694,-2.8406,-2.8182,-2.8025,-2.7893,-2.7824,-2.7766,-2.7806,-2.7659,-2.731,-2.6666,-2.5923,-2.5037,-2.4335,-2.3897,-2.3276,-2.307,-2.2868,-2.2712,-2.2569,-2.2422,-2.2254,-2.2049,-2.1827,-2.1573,-2.1325,-2.1119,-2.086,-2.0644,-2.0475,-2.0304,-5.026,-4.9529,-4.9529,-4.9029,-4.8298,-4.8221,-4.7778,-4.7124,-4.7028,-4.6567,-4.5951,-4.574,-4.574,-4.5586,-4.5586,-4.5586,-4.5586,-4.5586,-4.5586,-4.5586,-4.5586,-4.5586,-4.5566,-4.549,-4.5432,-4.5355,-4.4759,-4.4355,-4.3835,-4.272,-4.2027,-4.1639,-4.1054,-4.0709,-4.0654,-4.0604,-4.0326,-3.9904,-3.9791,-3.9315,-3.8618,-3.8053,-3.7648,-3.7283,-3.6606,-3.6165,-3.6059,-3.6007,-3.6007,-3.602,-3.602,-3.6004,-3.601,-3.601,-3.601,-3.601,-3.6007,-3.6007,-3.6007,-3.6007,-3.6007,-3.6007,-3.6007,-3.601,-3.601,-3.601,-3.5955,-3.5857,-3.5992,-3.5527,-3.4916,-3.4095,-3.3637,-3.3336,-3.2662,-3.1728,-3.0965,-3.0494,-3.0222,-3.0022,-2.982,-2.9495,-2.9172,-2.892,-2.8694,-2.8432,-2.8237,-2.8099,-2.7996,-2.7957,-2.7957,-2.7996,-2.7741,-2.7368,-2.6606,-2.5786,-2.4842,-2.4005,-2.3721,-2.3313,-2.3193,-2.302,-2.2816,-2.2659,-2.2515,-2.2349,-2.218,-2.1932,-2.1634,-2.1388,-2.1167,-2.0876,-2.061,-2.0543,-2.0407,-5.0567,-5.0414,-5.0414,-4.9913,-4.9183,-4.9106,-4.8625,-4.7855,-4.7855,-4.7394,-4.6759,-4.6605,-4.622,-4.5624,-4.5624,-4.5586,-4.5586,-4.5586,-4.5586,-4.5586,-4.5586,-4.5586,-4.5586,-4.5586,-4.5586,-4.5528,-4.5432,-4.497,-4.4299,-4.3855,-4.3044,-4.1905,-4.1662,-4.1258,-4.0707,-4.07,-4.0738,-4.0574,-4.0567,-4.0169,-3.9579,-3.9221,-3.877,-3.8161,-3.7422,-3.671,-3.6144,-3.601,-3.601,-3.601,-3.6046,-3.6105,-3.603,-3.6004,-3.6004,-3.602,-3.6017,-3.6013,-3.6013,-3.6013,-3.6013,-3.6013,-3.602,-3.6004,-3.6004,-3.6007,-3.601,-3.6013,-3.6007,-3.5859,-3.5582,-3.4914,-3.4476,-3.4155,-3.3498,-3.2826,-3.2318,-3.1176,-3.0375,-3.0083,-2.9805,-2.9494,-2.9129,-2.8892,-2.8644,-2.8432,-2.8273,-2.8126,-2.8099,-2.8071,-2.8099,-2.8126,-2.8029,-2.7629,-2.6708,-2.5821,-2.4837,-2.4009,-2.3618,-2.3424,-2.3289,-2.3144,-2.297,-2.279,-2.2605,-2.2443,-2.2265,-2.1974,-2.1678,-2.145,-2.1183,-2.0909,-2.0677,-2.0577,-2.0426,-5.0682,-5.0702,-5.0702,-5.0433,-5.0048,-4.999,-4.951,-4.8817,-4.8702,-4.8259,-4.749,-4.7124,-4.6644,-4.6182,-4.5797,-4.5586,-4.5586,-4.5586,-4.5586,-4.5586,-4.5586,-4.5586,-4.5586,-4.5586,-4.5586,-4.5586,-4.5566,-4.5278,-4.4951,-4.4451,-4.3605,-4.2447,-4.2106,-4.1393,-4.0752,-4.0739,-4.0788,-4.0796,-4.0867,-4.0674,-4.0365,-3.9942,-3.9394,-3.8662,-3.8115,-3.7653,-3.7321,-3.7217,-3.6964,-3.671,-3.659,-3.6372,-3.6063,-3.6017,-3.6013,-3.6013,-3.6009,-3.6005,-3.6005,-3.6005,-3.6005,-3.6044,-3.6029,-3.6013,-3.6017,-3.6004,-3.6007,-3.6013,-3.6005,-3.5995,-3.5972,-3.5672,-3.529,-3.5051,-3.4374,-3.3796,-3.3362,-3.1992,-3.0789,-3.0491,-3.0017,-2.9548,-2.9163,-2.8978,-2.8662,-2.845,-2.8291,-2.8154,-2.8182,-2.8154,-2.8191,-2.8219,-2.8291,-2.7878,-2.6914,-2.5931,-2.4923,-2.4177,-2.3661,-2.3539,-2.3407,-2.3265,-2.3119,-2.2919,-2.2685,-2.2487,-2.2293,-2.202,-2.1708,-2.1419,-2.1135,-2.0909,-2.0711,-2.0561,-2.0392,-5.072,-5.0701,-5.0683,-5.0683,-5.0683,-5.0644,-5.024,-4.9663,-4.9586,-4.9125,-4.8336,-4.7548,-4.7298,-4.6759,-4.6163,-4.5778,-4.5605,-4.5586,-4.5586,-4.5586,-4.5586,-4.5586,-4.5586,-4.5586,-4.5586,-4.5586,-4.5586,-4.5528,-4.5336,-4.4874,-4.4201,-4.3278,-4.2495,-4.1803,-4.1073,-4.0746,-4.0776,-4.0815,-4.0867,-4.0927,-4.0832,-4.0331,-3.9666,-3.8978,-3.8795,-3.8603,-3.8369,-3.8268,-3.8104,-3.7539,-3.7449,-3.7039,-3.6532,-3.6044,-3.6114,-3.6153,-3.6285,-3.6431,-3.6626,-3.6553,-3.6533,-3.6387,-3.625,-3.6239,-3.6247,-3.6118,-3.6004,-3.6018,-3.601,-3.6015,-3.6009,-3.5907,-3.5895,-3.5727,-3.5113,-3.468,-3.4202,-3.2929,-3.201,-3.132,-3.081,-3.029,-2.9658,-2.9247,-2.8844,-2.8495,-2.8336,-2.8237,-2.8237,-2.8264,-2.83,-2.8353,-2.8406,-2.7799,-2.6826,-2.594,-2.4928,-2.4252,-2.37,-2.3589,-2.3517,-2.3354,-2.3168,-2.297,-2.2764,-2.2569,-2.2321,-2.202,-2.1708,-2.1419,-2.1135,-2.0957,-2.0744,-2.0527,-2.0357,-5.0757,-5.0701,-5.0683,-5.0683,-5.0683,-5.0683,-5.0587,-5.0491,-5.0414,-4.999,-4.9221,-4.899,-4.8105,-4.724,-4.6817,-4.6297,-4.574,-4.5586,-4.5586,-4.5586,-4.5586,-4.5586,-4.5586,-4.5586,-4.5586,-4.5586,-4.5586,-4.5586,-4.5586,-4.5393,-4.4778,-4.4066,-4.323,-4.241,-4.1624,-4.1125,-4.0764,-4.0796,-4.0848,-4.0917,-4.0902,-4.0772,-4.0363,-3.9653,-3.9583,-3.9291,-3.8779,-3.8584,-3.8424,-3.8312,-3.8277,-3.8168,-3.7675,-3.6707,-3.6493,-3.6824,-3.6962,-3.7151,-3.7618,-3.7864,-3.7988,-3.7903,-3.7409,-3.7001,-3.682,-3.6423,-3.616,-3.6003,-3.6016,-3.6021,-3.6016,-3.6013,-3.5968,-3.5839,-3.5655,-3.535,-3.5037,-3.4236,-3.3146,-3.2462,-3.1806,-3.1086,-3.0392,-2.971,-2.9232,-2.8843,-2.8496,-2.8407,-2.8371,-2.838,-2.8406,-2.8484,-2.8536,-2.7677,-2.6704,-2.5819,-2.4944,-2.423,-2.3747,-2.3656,-2.3544,-2.3424,-2.3217,-2.302,-2.2816,-2.2596,-2.2332,-2.2032,-2.1738,-2.1433,-2.1199,-2.1006,-2.0793,-2.0561,-2.0392,-5.0793,-5.0757,-5.0721,-5.0683,-5.0683,-5.0683,-5.0683,-5.0683,-5.0683,-5.0452,-5.0029,-4.9586,-4.9009,-4.8125,-4.7182,-4.6432,-4.5778,-4.5586,-4.5586,-4.5586,-4.5586,-4.5586,-4.5586,-4.5586,-4.5586,-4.5586,-4.5586,-4.5586,-4.5586,-4.5586,-4.5143,-4.4297,-4.35,-4.2718,-4.1899,-4.1112,-4.0797,-4.0792,-4.0837,-4.0878,-4.0943,-4.0972,-4.0714,-4.0538,-4.0398,-4.0189,-3.9945,-3.9803,-3.9569,-3.924,-3.9124,-3.8843,-3.8342,-3.7848,-3.7377,-3.776,-3.7805,-3.7914,-3.833,-3.8388,-3.8376,-3.8416,-3.8072,-3.7648,-3.7284,-3.6829,-3.6433,-3.6124,-3.6016,-3.6016,-3.602,-3.6005,-3.5948,-3.5866,-3.5776,-3.565,-3.5418,-3.4971,-3.4279,-3.3449,-3.2502,-3.1685,-3.1038,-3.0375,-2.9773,-2.922,-2.8763,-2.8593,-2.8521,-2.8536,-2.8587,-2.8612,-2.8615,-2.7809,-2.6899,-2.6089,-2.5008,-2.4221,-2.381,-2.3703,-2.3589,-2.343,-2.3265,-2.3095,-2.2868,-2.2623,-2.2332,-2.202,-2.1738,-2.1479,-2.123,-2.1022,-2.0777,-2.0577,-2.0392,-5.0812,-5.0793,-5.074,-5.0683,-5.0683,-5.0683,-5.0683,-5.0683,-5.0683,-5.0683,-5.0587,-5.001,-4.9586,-4.8971,-4.7702,-4.6432,-4.5643,-4.5586,-4.5586,-4.5586,-4.5586,-4.5586,-4.5586,-4.5586,-4.5586,-4.5586,-4.5586,-4.5586,-4.5586,-4.5586,-4.5182,-4.4622,-4.3772,-4.2938,-4.2193,-4.147,-4.1074,-4.0776,-4.0804,-4.0828,-4.0888,-4.0941,-4.0972,-4.0979,-4.0994,-4.0935,-4.0786,-4.0753,-4.0473,-4.0108,-3.989,-3.9652,-3.9044,-3.8879,-3.8868,-3.8855,-3.8755,-3.8716,-3.893,-3.9015,-3.9198,-3.9279,-3.8896,-3.8383,-3.7869,-3.7515,-3.6944,-3.6401,-3.6054,-3.6021,-3.6017,-3.5981,-3.5919,-3.5833,-3.5741,-3.564,-3.5502,-3.5249,-3.499,-3.4131,-3.3083,-3.2396,-3.1843,-3.1347,-3.0786,-2.9792,-2.9297,-2.8905,-2.8833,-2.8755,-2.8761,-2.881,-2.8596,-2.7926,-2.7163,-2.6498,-2.5345,-2.4153,-2.385,-2.3721,-2.3594,-2.3458,-2.3295,-2.3119,-2.2868,-2.2605,-2.2332,-2.2049,-2.1797,-2.1526,-2.1262,-2.1038,-2.0827,-2.0628,-2.0475,-5.0812,-5.0793,-5.074,-5.0683,-5.0683,-5.0683,-5.0683,-5.0683,-5.0683,-5.0683,-5.0683,-5.0529,-5.0048,-4.9086,-4.7702,-4.649,-4.5817,-4.5586,-4.5586,-4.5586,-4.5586,-4.5586,-4.5586,-4.5586,-4.5586,-4.5586,-4.5586,-4.5586,-4.5586,-4.5586,-4.5547,-4.518,-4.4449,-4.3772,-4.2973,-4.2174,-4.1401,-4.0887,-4.0808,-4.0846,-4.0898,-4.0915,-4.0932,-4.0968,-4.0976,-4.0976,-4.0968,-4.0932,-4.077,-4.0751,-4.0704,-4.0655,-4.0546,-4.0527,-4.0527,-4.0305,-4.0014,-3.9791,-4.0267,-4.0334,-4.0341,-4.0237,-3.9933,-3.9617,-3.9,-3.805,-3.7343,-3.7201,-3.6523,-3.6062,-3.6033,-3.5958,-3.5894,-3.582,-3.5743,-3.5639,-3.5509,-3.536,-3.5122,-3.4889,-3.3899,-3.3365,-3.285,-3.2379,-3.181,-3.0746,-2.9856,-2.9442,-2.9101,-2.9002,-2.8994,-2.9017,-2.881,-2.815,-2.7229,-2.6603,-2.557,-2.4233,-2.391,-2.3743,-2.3634,-2.3499,-2.3313,-2.3095,-2.2868,-2.2632,-2.236,-2.2077,-2.1827,-2.1587,-2.1325,-2.1119,-2.0909,-2.0712,-2.0509,-5.0812,-5.0793,-5.0721,-5.0683,-5.0683,-5.0683,-5.0683,-5.0683,-5.0683,-5.0683,-5.0683,-5.0683,-4.9952,-4.874,-4.7798,-4.6854,-4.5853,-4.5586,-4.5586,-4.5586,-4.5586,-4.5586,-4.5586,-4.5586,-4.5586,-4.5586,-4.5586,-4.5586,-4.5586,-4.5586,-4.5586,-4.5451,-4.4778,-4.4179,-4.3692,-4.2992,-4.2208,-4.1564,-4.1074,-4.0812,-4.0828,-4.0849,-4.0878,-4.0898,-4.0878,-4.0907,-4.0898,-4.0868,-4.0858,-4.0839,-4.0848,-4.0837,-4.0815,-4.0784,-4.0773,-4.0742,-4.0497,-4.0479,-4.081,-4.0907,-4.0963,-4.0976,-4.0609,-4.0253,-3.9711,-3.8798,-3.7773,-3.7309,-3.6992,-3.6569,-3.6153,-3.5981,-3.5908,-3.5833,-3.5735,-3.5639,-3.5514,-3.5355,-3.5171,-3.5,-3.4793,-3.4191,-3.3654,-3.3115,-3.2471,-3.1531,-3.0525,-2.9863,-2.948,-2.9189,-2.9175,-2.9215,-2.8913,-2.8504,-2.7466,-2.656,-2.5612,-2.449,-2.3912,-2.3768,-2.3674,-2.3517,-2.333,-2.3119,-2.2893,-2.2659,-2.2405,-2.2135,-2.1886,-2.1648,-2.1388,-2.1183,-2.0974,-2.081,-2.0626,-5.0775,-5.0775,-5.0721,-5.0683,-5.0683,-5.0683,-5.0683,-5.0683,-5.0683,-5.0683,-5.0683,-5.0644,-4.9837,-4.8625,-4.8124,-4.7277,-4.597,-4.5682,-4.5605,-4.5586,-4.5586,-4.5586,-4.5586,-4.5586,-4.5586,-4.5586,-4.5586,-4.5586,-4.5586,-4.5586,-4.5586,-4.5566,-4.5066,-4.4545,-4.4215,-4.3747,-4.3046,-4.2295,-4.1558,-4.1209,-4.1141,-4.092,-4.0834,-4.0807,-4.0798,-4.0798,-4.0807,-4.0804,-4.0804,-4.0765,-4.0773,-4.0769,-4.0757,-4.0776,-4.0796,-4.0776,-4.0688,-4.074,-4.0868,-4.0927,-4.0971,-4.1003,-4.1,-4.0705,-4.0223,-3.9387,-3.8768,-3.8183,-3.7773,-3.7216,-3.6583,-3.6352,-3.6142,-3.5969,-3.5743,-3.563,-3.5531,-3.5411,-3.5266,-3.5122,-3.4963,-3.487,-3.4329,-3.3777,-3.3082,-3.221,-3.1314,-3.0386,-2.9811,-2.9386,-2.9368,-2.9388,-2.9153,-2.8611,-2.7442,-2.644,-2.5513,-2.475,-2.4153,-2.381,-2.37,-2.3562,-2.3378,-2.3168,-2.2944,-2.2738,-2.2497,-2.2203,-2.1915,-2.1678,-2.1464,-2.1214,-2.1023,-2.0859,-2.0726,-5.0701,-5.0701,-5.0683,-5.0683,-5.0683,-5.0683,-5.0683,-5.0683,-5.0683,-5.0683,-5.0683,-5.0625,-5.0164,-4.924,-4.8374,-4.7604,-4.674,-4.597,-4.5663,-4.5586,-4.5586,-4.5586,-4.5586,-4.5586,-4.5586,-4.5586,-4.5586,-4.5586,-4.5586,-4.5586,-4.5586,-4.5528,-4.5355,-4.4932,-4.4564,-4.4251,-4.3782,-4.3076,-4.2314,-4.1931,-4.1738,-4.1415,-4.1013,-4.0959,-4.0884,-4.0807,-4.0826,-4.08,-4.0757,-4.0706,-4.07,-4.0726,-4.0707,-4.0726,-4.0746,-4.0784,-4.0792,-4.0826,-4.0848,-4.0927,-4.0991,-4.1011,-4.1013,-4.1018,-4.0758,-4.0218,-3.9771,-3.9437,-3.8809,-3.8133,-3.7523,-3.7089,-3.6615,-3.6255,-3.5962,-3.5689,-3.5596,-3.5483,-3.536,-3.5235,-3.5122,-3.5054,-3.4982,-3.4452,-3.3759,-3.2924,-3.1723,-3.0768,-3.0,-2.9589,-2.955,-2.9531,-2.9392,-2.8682,-2.736,-2.6467,-2.5887,-2.5032,-2.4253,-2.3967,-2.3786,-2.3611,-2.3424,-2.3259,-2.3045,-2.2816,-2.2605,-2.2343,-2.2089,-2.1797,-2.1526,-2.1309,-2.1103,-2.0924,-2.0859,-5.0682,-5.0702,-5.0702,-5.0683,-5.0683,-5.0683,-5.0683,-5.0683,-5.0683,-5.0683,-5.0683,-5.0644,-5.0221,-4.9356,-4.8489,-4.7681,-4.6855,-4.6009,-4.5682,-4.5586,-4.5586,-4.5586,-4.5586,-4.5586,-4.5586,-4.5586,-4.5586,-4.5586,-4.5586,-4.5586,-4.5586,-4.5586,-4.5586,-4.5451,-4.5103,-4.4677,-4.4267,-4.3879,-4.3196,-4.2739,-4.2681,-4.2521,-4.2265,-4.2259,-4.1616,-4.1519,-4.1428,-4.0926,-4.0739,-4.0668,-4.0693,-4.0693,-4.0687,-4.0706,-4.0733,-4.079,-4.0792,-4.0807,-4.0828,-4.0917,-4.1003,-4.1058,-4.1091,-4.1109,-4.1101,-4.0767,-4.0347,-3.9979,-3.9648,-3.9032,-3.8274,-3.757,-3.6962,-3.6586,-3.62,-3.5842,-3.5669,-3.5558,-3.547,-3.5369,-3.5315,-3.5258,-3.5209,-3.5122,-3.4395,-3.3601,-3.2354,-3.1165,-3.0336,-2.9773,-2.9737,-2.9664,-2.9532,-2.9042,-2.7811,-2.7045,-2.6392,-2.5387,-2.4406,-2.4083,-2.385,-2.3678,-2.3494,-2.3313,-2.3119,-2.2944,-2.2738,-2.2525,-2.2248,-2.1915,-2.1648,-2.1419,-2.1215,-2.1022,-2.1022,-5.0702,-5.0683,-5.0683,-5.0683,-5.0683,-5.0683,-5.0683,-5.0683,-5.0683,-5.0683,-5.0683,-5.0664,-5.0394,-4.9606,-4.8566,-4.7912,-4.7105,-4.622,-4.574,-4.5586,-4.5586,-4.5586,-4.5586,-4.5586,-4.5586,-4.5586,-4.5586,-4.5586,-4.5586,-4.5586,-4.5586,-4.5586,-4.5586,-4.5566,-4.5449,-4.512,-4.4754,-4.4578,-4.4033,-4.3567,-4.3547,-4.3254,-4.3115,-4.3038,-4.2517,-4.2343,-4.2203,-4.1875,-4.1417,-4.1205,-4.1036,-4.0896,-4.0775,-4.0673,-4.07,-4.0752,-4.0781,-4.0807,-4.0839,-4.0915,-4.1013,-4.1081,-4.11,-4.1117,-4.1108,-4.1099,-4.0754,-4.0488,-4.0271,-3.9893,-3.9019,-3.8245,-3.7459,-3.7033,-3.6203,-3.5803,-3.5736,-3.5658,-3.5593,-3.5514,-3.547,-3.5435,-3.5388,-3.5249,-3.4385,-3.3665,-3.2778,-3.1488,-3.0335,-2.9924,-2.9893,-2.9789,-2.9681,-2.9083,-2.8372,-2.7438,-2.6487,-2.5595,-2.4705,-2.4164,-2.3894,-2.3743,-2.3567,-2.3407,-2.3241,-2.3045,-2.2868,-2.2659,-2.2371,-2.2044,-2.1768,-2.1511,-2.134,-2.1199,-2.1247,-5.0683,-5.0683,-5.0683,-5.0683,-5.0683,-5.0683,-5.0683,-5.0683,-5.0683,-5.0683,-5.0683,-5.0683,-5.0683,-5.0164,-4.8836,-4.8047,-4.7567,-4.6336,-4.5586,-4.5586,-4.5586,-4.5586,-4.5586,-4.5586,-4.5586,-4.5586,-4.5586,-4.5586,-4.5586,-4.5586,-4.5586,-4.5586,-4.5586,-4.5586,-4.5586,-4.5566,-4.5547,-4.5449,-4.4713,-4.4463,-4.4267,-4.384,-4.3644,-4.3547,-4.3277,-4.3142,-4.3046,-4.2776,-4.2337,-4.1956,-4.1686,-4.1393,-4.0911,-4.0703,-4.0654,-4.0694,-4.0761,-4.0807,-4.0809,-4.0932,-4.1026,-4.1091,-4.1105,-4.1101,-4.1108,-4.1094,-4.1103,-4.084,-4.0897,-4.0557,-3.9806,-3.899,-3.8209,-3.7405,-3.6604,-3.5944,-3.5912,-3.5756,-3.5669,-3.5629,-3.5615,-3.5601,-3.5558,-3.5309,-3.4378,-3.3595,-3.2966,-3.1889,-3.0524,-3.0079,-3.0019,-2.9959,-2.9822,-2.9472,-2.8745,-2.7606,-2.66,-2.5745,-2.4967,-2.4334,-2.3976,-2.3831,-2.366,-2.3522,-2.336,-2.3193,-2.302,-2.2842,-2.2508,-2.2186,-2.1857,-2.1603,-2.1433,-2.1386,-2.1433,-5.0683,-5.0683,-5.0683,-5.0683,-5.0683,-5.0683,-5.0683,-5.0683,-5.0683,-5.0683,-5.0683,-5.0683,-5.0683,-5.0144,-4.9029,-4.8086,-4.7778,-4.6413,-4.5586,-4.5586,-4.5586,-4.5586,-4.5586,-4.5586,-4.5586,-4.5586,-4.5586,-4.5586,-4.5586,-4.5586,-4.5586,-4.5586,-4.5586,-4.5586,-4.5586,-4.5586,-4.5586,-4.5566,-4.5315,-4.518,-4.5141,-4.487,-4.4694,-4.4655,-4.4193,-4.3943,-4.3904,-4.3596,-4.3134,-4.2694,-4.2406,-4.179,-4.132,-4.1075,-4.0673,-4.0707,-4.0773,-4.0839,-4.0888,-4.0984,-4.1046,-4.1086,-4.1113,-4.1108,-4.1099,-4.1101,-4.1129,-4.1152,-4.1133,-4.084,-4.0567,-3.9819,-3.9025,-3.8194,-3.7352,-3.6507,-3.617,-3.592,-3.5763,-3.5745,-3.5737,-3.5708,-3.5669,-3.5475,-3.4665,-3.3689,-3.3012,-3.1885,-3.0561,-3.0291,-3.018,-3.0113,-2.9984,-2.9742,-2.9151,-2.8051,-2.7158,-2.6395,-2.5338,-2.432,-2.4056,-2.3935,-2.3789,-2.3616,-2.3476,-2.3313,-2.3119,-2.2893,-2.2659,-2.2343,-2.2061,-2.1797,-2.1601,-2.1601,-2.1691,-5.0683,-5.0683,-5.0683,-5.0683,-5.0683,-5.0683,-5.0683,-5.0683,-5.0683,-5.0683,-5.0683,-5.0683,-5.0683,-5.0183,-4.9009,-4.8105,-4.7913,-4.6394,-4.5586,-4.5586,-4.5586,-4.5586,-4.5586,-4.5586,-4.5586,-4.5586,-4.5586,-4.5586,-4.5586,-4.5586,-4.5586,-4.5586,-4.5586,-4.5586,-4.5586,-4.5586,-4.5586,-4.5566,-4.5488,-4.5507,-4.5526,-4.5488,-4.5507,-4.5372,-4.5084,-4.4776,-4.4605,-4.4259,-4.3797,-4.3451,-4.2989,-4.2351,-4.1902,-4.1427,-4.0924,-4.0804,-4.0754,-4.0849,-4.0915,-4.0984,-4.1033,-4.1111,-4.1117,-4.1114,-4.1103,-4.1107,-4.1151,-4.1152,-4.1113,-4.1094,-4.0937,-4.0254,-3.9523,-3.8654,-3.7804,-3.6923,-3.6214,-3.595,-3.584,-3.5845,-3.5838,-3.5784,-3.5729,-3.5441,-3.5047,-3.4032,-3.3045,-3.1862,-3.0744,-3.0494,-3.0299,-3.0226,-3.0128,-2.9912,-2.942,-2.8568,-2.7752,-2.7065,-2.5894,-2.4616,-2.4171,-2.4034,-2.3912,-2.3786,-2.3634,-2.3453,-2.3175,-2.2952,-2.2773,-2.2615,-2.2426,-2.213,-2.184,-2.1869,-2.1986,-5.0683,-5.0683,-5.0683,-5.0683,-5.0683,-5.0683,-5.0683,-5.0683,-5.0683,-5.0683,-5.0683,-5.0683,-5.0683,-5.0356,-4.8913,-4.8202,-4.7855,-4.6432,-4.5836,-4.5605,-4.5586,-4.5586,-4.5586,-4.5586,-4.5586,-4.5586,-4.5586,-4.5586,-4.5586,-4.5586,-4.5586,-4.5586,-4.5586,-4.5586,-4.5586,-4.5586,-4.5586,-4.5586,-4.5586,-4.5586,-4.5586,-4.5586,-4.5586,-4.5509,-4.5413,-4.5355,-4.5316,-4.522,-4.4874,-4.4547,-4.4182,-4.3201,-4.2447,-4.1894,-4.134,-4.0926,-4.0761,-4.0829,-4.0915,-4.0964,-4.1026,-4.1086,-4.1113,-4.1104,-4.1116,-4.1107,-4.1151,-4.1172,-4.1152,-4.1133,-4.0996,-4.0371,-3.9727,-3.8863,-3.7998,-3.7145,-3.6328,-3.6021,-3.5938,-3.5908,-3.5903,-3.5878,-3.5879,-3.5632,-3.523,-3.4015,-3.2998,-3.2104,-3.111,-3.0546,-3.0383,-3.0299,-3.0207,-3.0113,-2.9535,-2.8877,-2.799,-2.7212,-2.6265,-2.5171,-2.469,-2.417,-2.4014,-2.3873,-2.3765,-2.3571,-2.3336,-2.3144,-2.2995,-2.2825,-2.2677,-2.2508,-2.2215,-2.2231,-2.2287,-5.0683,-5.0683,-5.0683,-5.0683,-5.0683,-5.0683,-5.0683,-5.0683,-5.0683,-5.0683,-5.0683,-5.0683,-5.0683,-5.0567,-4.9529,-4.874,-4.7894,-4.7048,-4.622,-4.5836,-4.5586,-4.5586,-4.5586,-4.5586,-4.5586,-4.5586,-4.5586,-4.5586,-4.5586,-4.5586,-4.5586,-4.5586,-4.5586,-4.5586,-4.5586,-4.5586,-4.5586,-4.5586,-4.5586,-4.5586,-4.5586,-4.5586,-4.5586,-4.5586,-4.5586,-4.5586,-4.5586,-4.5586,-4.5316,-4.524,-4.4605,-4.3701,-4.2912,-4.2206,-4.1547,-4.088,-4.0784,-4.0819,-4.0897,-4.096,-4.1013,-4.1075,-4.11,-4.1113,-4.1111,-4.1123,-4.1131,-4.1152,-4.1172,-4.1152,-4.1113,-4.0664,-4.0078,-3.9359,-3.8475,-3.7627,-3.6817,-3.6181,-3.6079,-3.5958,-3.5958,-3.5953,-3.5943,-3.588,-3.5338,-3.4041,-3.2966,-3.2142,-3.1363,-3.0771,-3.049,-3.0383,-3.0299,-3.0194,-2.9802,-2.9188,-2.8225,-2.7319,-2.6485,-2.5651,-2.4875,-2.4413,-2.4189,-2.3996,-2.3852,-2.3678,-2.3453,-2.3313,-2.3199,-2.3102,-2.3003,-2.2799,-2.2659,-2.2632,-2.2685,-5.0683,-5.0683,-5.0683,-5.0683,-5.0683,-5.0683,-5.0683,-5.0683,-5.0683,-5.0683,-5.0683,-5.0683,-5.0683,-5.0548,-4.976,-4.8913,-4.8048,-4.7221,-4.6394,-4.574,-4.5586,-4.5586,-4.5586,-4.5586,-4.5586,-4.5586,-4.5586,-4.5586,-4.5586,-4.5586,-4.5586,-4.5586,-4.5586,-4.5586,-4.5586,-4.5586,-4.5586,-4.5586,-4.5586,-4.5586,-4.5586,-4.5586,-4.5586,-4.5586,-4.5586,-4.5586,-4.5586,-4.5586,-4.5586,-4.5586,-4.4951,-4.4239,-4.3162,-4.2067,-4.1349,-4.0752,-4.0781,-4.0818,-4.0888,-4.0924,-4.0999,-4.1058,-4.1086,-4.1109,-4.1108,-4.1101,-4.113,-4.1152,-4.1172,-4.1191,-4.1152,-4.1016,-4.0488,-3.9953,-3.9071,-3.8185,-3.734,-3.6492,-3.6215,-3.6056,-3.5997,-3.5997,-3.5994,-3.5951,-3.5416,-3.4057,-3.3049,-3.2322,-3.1495,-3.077,-3.0558,-3.05,-3.0414,-3.0299,-2.9884,-2.9528,-2.8796,-2.7964,-2.7114,-2.6242,-2.526,-2.4596,-2.4321,-2.4095,-2.3935,-2.3768,-2.3594,-2.3526,-2.3435,-2.3342,-2.3271,-2.3175,-2.3052,-2.2952,-2.3028,-5.0683,-5.0683,-5.0683,-5.0683,-5.0683,-5.0683,-5.0683,-5.0683,-5.0683,-5.0683,-5.0683,-5.0683,-5.0683,-5.0548,-4.9971,-4.9067,-4.824,-4.7432,-4.6567,-4.5643,-4.5586,-4.5586,-4.5586,-4.5586,-4.5586,-4.5586,-4.5586,-4.5586,-4.5586,-4.5586,-4.5586,-4.5586,-4.5586,-4.5586,-4.5586,-4.5586,-4.5586,-4.5586,-4.5586,-4.5586,-4.5586,-4.5586,-4.5586,-4.5586,-4.5586,-4.5586,-4.5586,-4.5586,-4.5586,-4.5586,-4.5374,-4.4701,-4.3195,-4.1836,-4.1103,-4.0713,-4.0757,-4.0804,-4.0858,-4.0897,-4.0937,-4.1,-4.1056,-4.1081,-4.1101,-4.1097,-4.1126,-4.1132,-4.1152,-4.1172,-4.1133,-4.1113,-4.0762,-4.0137,-3.9332,-3.8547,-3.7817,-3.6894,-3.6133,-3.6016,-3.6016,-3.6013,-3.6013,-3.5952,-3.5549,-3.4137,-3.3197,-3.2537,-3.1724,-3.0912,-3.0634,-3.0597,-3.0479,-3.0379,-3.0209,-2.9842,-2.9437,-2.8682,-2.774,-2.6758,-2.5682,-2.5018,-2.443,-2.421,-2.4036,-2.3899,-2.3753,-2.3707,-2.3638,-2.3571,-2.3504,-2.3504,-2.3435,-2.3324,-2.3342,-5.0683,-5.0683,-5.0683,-5.0683,-5.0683,-5.0683,-5.0683,-5.0683,-5.0683,-5.0683,-5.0683,-5.0683,-5.0683,-5.0606,-5.0433,-4.9586,-4.8336,-4.7797,-4.6892,-4.6065,-4.5643,-4.5586,-4.5586,-4.5586,-4.5586,-4.5586,-4.5586,-4.5586,-4.5586,-4.5586,-4.5586,-4.5586,-4.5586,-4.5586,-4.5586,-4.5586,-4.5586,-4.5586,-4.5566,-4.5586,-4.5605,-4.5586,-4.5586,-4.5586,-4.5586,-4.5586,-4.5586,-4.5586,-4.5586,-4.5586,-4.5586,-4.468,-4.3192,-4.2125,-4.134,-4.0841,-4.0759,-4.0761,-4.0837,-4.0888,-4.0932,-4.096,-4.1013,-4.1067,-4.109,-4.1108,-4.1099,-4.1108,-4.1113,-4.1133,-4.1133,-4.1113,-4.1016,-4.0312,-3.9512,-3.8845,-3.8176,-3.7141,-3.6105,-3.6007,-3.6007,-3.6007,-3.6005,-3.5786,-3.5349,-3.4641,-3.3746,-3.2957,-3.2049,-3.1226,-3.073,-3.0618,-3.055,-3.0436,-3.033,-3.0136,-2.9736,-2.9026,-2.8067,-2.7086,-2.6085,-2.5235,-2.4464,-2.4303,-2.4134,-2.4037,-2.3939,-2.3878,-2.3813,-2.3768,-2.3747,-2.3747,-2.3771,-2.371,-2.3682,-5.0683,-5.0683,-5.0683,-5.0683,-5.0683,-5.0683,-5.0683,-5.0683,-5.0683,-5.0683,-5.0683,-5.0683,-5.0683,-5.0683,-5.0683,-5.0067,-4.8721,-4.8239,-4.7354,-4.6471,-4.5778,-4.5605,-4.5586,-4.5586,-4.5586,-4.5586,-4.5586,-4.5586,-4.5586,-4.5586,-4.5586,-4.5586,-4.5586,-4.5586,-4.5586,-4.5586,-4.5586,-4.5586,-4.5566,-4.5566,-4.5568,-4.5568,-4.555,-4.555,-4.553,-4.553,-4.5549,-4.5566,-4.5566,-4.5393,-4.522,-4.4776,-4.3541,-4.2495,-4.1754,-4.1272,-4.0997,-4.0738,-4.0815,-4.0849,-4.0926,-4.0949,-4.0981,-4.1031,-4.1042,-4.1066,-4.1108,-4.1099,-4.1103,-4.1113,-4.1113,-4.1113,-4.1113,-4.0684,-3.9433,-3.8398,-3.7518,-3.6522,-3.6034,-3.6014,-3.6014,-3.6014,-3.6013,-3.5994,-3.5501,-3.4749,-3.3949,-3.3141,-3.228,-3.1553,-3.1045,-3.0658,-3.0585,-3.053,-3.0444,-3.0267,-3.0018,-2.9235,-2.843,-2.7355,-2.632,-2.5267,-2.4479,-2.4393,-2.4321,-2.4247,-2.4153,-2.4077,-2.4036,-2.4014,-2.3976,-2.3978,-2.4018,-2.4057,-2.4037,-5.0567,-5.0683,-5.0683,-5.0683,-5.0683,-5.0683,-5.0683,-5.0683,-5.0683,-5.0683,-5.0683,-5.0683,-5.0683,-5.0683,-5.0644,-5.0067,-4.9433,-4.8778,-4.7836,-4.6836,-4.6144,-4.5836,-4.5643,-4.5586,-4.5586,-4.5586,-4.5586,-4.5586,-4.5586,-4.5586,-4.5586,-4.5586,-4.5586,-4.5586,-4.5586,-4.5586,-4.5586,-4.5566,-4.5547,-4.5512,-4.5513,-4.5514,-4.5457,-4.5438,-4.5418,-4.5436,-4.5475,-4.5512,-4.553,-4.5393,-4.5047,-4.4605,-4.4083,-4.3118,-4.2341,-4.1808,-4.1299,-4.1023,-4.0839,-4.0828,-4.0869,-4.0915,-4.0953,-4.0987,-4.1019,-4.1042,-4.107,-4.1101,-4.1104,-4.1094,-4.1103,-4.1105,-4.1105,-4.0775,-3.9392,-3.7949,-3.6953,-3.6094,-3.6035,-3.6016,-3.6016,-3.6016,-3.6016,-3.6016,-3.5605,-3.4844,-3.4088,-3.3241,-3.2469,-3.1863,-3.1305,-3.0892,-3.0656,-3.0595,-3.0509,-3.0371,-3.0177,-2.9742,-2.8935,-2.7714,-2.6513,-2.5386,-2.4687,-2.4566,-2.4481,-2.4411,-2.4339,-2.4248,-2.4229,-2.4228,-2.4191,-2.4173,-2.4211,-2.4266,-2.4355,-5.0067,-5.0683,-5.0683,-5.0683,-5.0683,-5.0683,-5.0683,-5.0683,-5.0683,-5.0683,-5.0683,-5.0683,-5.0683,-5.0683,-5.0683,-5.0279,-4.9663,-4.9125,-4.8105,-4.6971,-4.6644,-4.6182,-4.5797,-4.5682,-4.5605,-4.5586,-4.5586,-4.5586,-4.5586,-4.5586,-4.5586,-4.5586,-4.5586,-4.5586,-4.5586,-4.5586,-4.5586,-4.5566,-4.5528,-4.5473,-4.5457,-4.5419,-4.5419,-4.54,-4.5419,-4.54,-4.5438,-4.5475,-4.5494,-4.5473,-4.5357,-4.4951,-4.4451,-4.3871,-4.3173,-4.2356,-4.1851,-4.1332,-4.1144,-4.0912,-4.0877,-4.0898,-4.0941,-4.0991,-4.0986,-4.0994,-4.1042,-4.1081,-4.109,-4.1085,-4.1091,-4.1114,-4.1074,-4.0455,-3.9387,-3.783,-3.6542,-3.6171,-3.6015,-3.6016,-3.6016,-3.6016,-3.6016,-3.6016,-3.5996,-3.5312,-3.4805,-3.3966,-3.3239,-3.2443,-3.1582,-3.1198,-3.084,-3.061,-3.051,-3.0455,-3.0273,-2.9939,-2.9365,-2.8084,-2.679,-2.5476,-2.4895,-2.4717,-2.4631,-2.453,-2.4461,-2.4408,-2.4391,-2.4374,-2.4355,-2.4355,-2.4425,-2.4476,-2.4543]}]]